[[{"header":{"parameterUnit":"m.s-1","parameterCategory":1,"la1":30.6,"la2":29.2853,"lo1":-89.7004,"lo2":-87.6739,"dy":0.0162,"dx":0.0183,"nx":112,"ny":82,"refTime":"2025-09-05T12:00:00:Z","depth":0,"parameterNumber":2,"parameterNumberName":"U-component_of_WINDS"},"data":[0.0,0.0,0.0,0.0,0.0,0.0,0.0,0.0,0.0,0.0,0.0,0.0,0.0,0.0,0.0,0.0,0.0,0.0,0.0,0.0,0.0,0.0,0.0,0.0,0.0,0.0,0.0,0.0,0.0,0.0,0.0,0.0,0.0,0.0,0.0,0.0,0.0,0.0,0.0,0.0,0.0,0.0,0.0,0.0,0.0,0.0,0.0,0.0,0.0,0.0,0.0,0.0,0.0,0.0,0.0,0.0,0.0,0.0,0.0,0.0,0.0,0.0,0.0,0.0,0.0,0.0,0.0,0.0,0.0,0.0,0.0,0.0,0.0,0.0,0.0,0.0,0.0,0.0,0.0,0.0,0.0,0.0,0.0,0.0,0.0,0.0,0.0,0.0,0.0,0.0,0.0,3.4125,3.8416,4.0801,4.0058,3.9732,3.6801,3.0299,0.0,0.0,0.0,0.0,0.0,0.0,0.0,0.0,0.0,0.0,0.0,0.0,0.0,0.0,0.0,0.0,0.0,0.0,0.0,0.0,0.0,0.0,0.0,0.0,0.0,0.0,0.0,0.0,0.0,0.0,0.0,0.0,0.0,0.0,0.0,0.0,0.0,0.0,0.0,0.0,0.0,0.0,0.0,0.0,0.0,0.0,0.0,0.0,0.0,0.0,0.0,0.0,0.0,0.0,0.0,0.0,0.0,0.0,0.0,0.0,0.0,0.0,0.0,0.0,0.0,0.0,0.0,0.0,0.0,0.0,0.0,0.0,0.0,0.0,0.0,0.0,0.0,0.0,0.0,0.0,0.0,0.0,0.0,0.0,0.0,0.0,0.0,0.0,0.0,0.0,0.0,0.0,0.0,0.0,0.0,0.0,0.0,0.0,0.0,0.0,0.0,0.0,0.0,0.0,3.212,3.8183,4.0195,4.1014,4.0823,3.9466,3.6611,3.1917,0.0,0.0,0.0,0.0,0.0,0.0,0.0,0.0,0.0,0.0,0.0,0.0,0.0,0.0,0.0,0.0,0.0,0.0,0.0,0.0,0.0,0.0,0.0,0.0,0.0,0.0,0.0,0.0,0.0,0.0,0.0,0.0,0.0,0.0,0.0,0.0,0.0,0.0,0.0,0.0,0.0,0.0,0.0,0.0,0.0,0.0,0.0,0.0,0.0,0.0,0.0,0.0,0.0,0.0,0.0,0.0,0.0,0.0,0.0,0.0,0.0,0.0,0.0,0.0,0.0,0.0,0.0,0.0,0.0,0.0,0.0,0.0,0.0,0.0,0.0,0.0,0.0,0.0,0.0,0.0,0.0,0.0,0.0,0.0,0.0,0.0,0.0,0.0,0.0,0.0,0.0,0.0,0.0,0.0,0.0,0.0,0.0,0.0,0.0,0.0,0.0,0.0,0.0,3.0248,3.3925,3.9863,4.0828,4.1039,4.0998,3.9403,3.6365,3.161,2.8462,0.0,0.0,0.0,0.0,0.0,0.0,0.0,0.0,0.0,0.0,0.0,0.0,0.0,0.0,0.0,0.0,0.0,0.0,0.0,0.0,0.0,0.0,0.0,0.0,0.0,0.0,0.0,0.0,0.0,0.0,0.0,0.0,0.0,0.0,0.0,0.0,0.0,0.0,0.0,0.0,0.0,0.0,0.0,0.0,0.0,0.0,0.0,0.0,0.0,0.0,0.0,0.0,0.0,0.0,0.0,0.0,0.0,0.0,0.0,0.0,0.0,0.0,0.0,0.0,0.0,0.0,0.0,0.0,0.0,0.0,0.0,0.0,0.0,0.0,0.0,0.0,0.0,0.0,0.0,0.0,0.0,0.0,0.0,0.0,0.0,0.0,0.0,0.0,0.0,0.0,0.0,0.0,0.0,0.0,0.0,0.0,0.0,0.0,0.0,0.0,0.0,0.0,3.408,3.6034,4.0584,4.1031,4.0929,4.0714,3.8716,3.5449,3.069,2.6805,0.0,0.0,0.0,0.0,0.0,0.0,0.0,0.0,0.0,0.0,0.0,0.0,0.0,0.0,0.0,0.0,0.0,0.0,0.0,0.0,0.0,0.0,0.0,0.0,0.0,0.0,0.0,0.0,0.0,0.0,0.0,0.0,0.0,0.0,0.0,0.0,0.0,0.0,0.0,0.0,0.0,0.0,0.0,0.0,0.0,0.0,0.0,0.0,0.0,0.0,0.0,0.0,0.0,0.0,0.0,0.0,0.0,0.0,0.0,0.0,0.0,0.0,0.0,0.0,0.0,0.0,0.0,0.0,0.0,0.0,0.0,0.0,0.0,0.0,0.0,0.0,0.0,0.0,0.0,0.0,0.0,0.0,0.0,0.0,0.0,0.0,0.0,0.0,0.0,0.0,0.0,0.0,0.0,0.0,0.0,0.0,0.0,0.0,0.0,0.0,0.0,0.0,3.451,3.7986,4.0723,4.0994,4.0675,3.9857,3.672,3.3254,2.9719,2.4766,0.0,0.0,0.0,0.0,0.0,0.0,0.0,0.0,0.0,0.0,0.0,0.0,0.0,0.0,0.0,0.0,0.0,0.0,0.0,0.0,0.0,0.0,0.0,0.0,0.0,0.0,0.0,0.0,0.0,0.0,0.0,0.0,0.0,0.0,0.0,0.0,0.0,0.0,0.0,0.0,0.0,0.0,0.0,0.0,0.0,0.0,0.0,0.0,0.0,0.0,0.0,0.0,0.0,0.0,0.0,0.0,0.0,0.0,0.0,0.0,0.0,0.0,0.0,0.0,0.0,0.0,0.0,0.0,0.0,0.0,0.0,0.0,0.0,0.0,0.0,0.0,0.0,0.0,0.0,0.0,0.0,0.0,0.0,0.0,0.0,0.0,0.0,0.0,0.0,0.0,0.0,0.0,0.0,0.0,0.0,0.0,0.0,0.0,0.0,0.0,0.0,0.0,3.3593,3.6972,0.0,4.0955,4.0593,3.9761,3.7508,3.4206,2.968,0.0,0.0,0.0,0.0,0.0,0.0,0.0,0.0,0.0,0.0,0.0,0.0,0.0,0.0,0.0,0.0,0.0,0.0,0.0,0.0,0.0,0.0,0.0,0.0,0.0,0.0,0.0,0.0,0.0,0.0,0.0,0.0,0.0,0.0,0.0,0.0,0.0,0.0,0.0,0.0,0.0,0.0,0.0,0.0,0.0,0.0,0.0,0.0,0.0,0.0,0.0,0.0,0.0,0.0,0.0,0.0,0.0,0.0,0.0,0.0,0.0,0.0,0.0,0.0,0.0,0.0,0.0,0.0,0.0,0.0,0.0,0.0,0.0,0.0,0.0,0.0,0.0,0.0,0.0,0.0,0.0,0.0,0.0,0.0,0.0,0.0,0.0,0.0,0.0,0.0,0.0,0.0,0.0,0.0,0.0,0.0,0.0,0.0,0.0,0.0,0.0,0.0,2.9757,3.3587,3.7051,0.0,4.0765,4.0461,3.9373,3.7169,3.3907,2.9292,0.0,0.0,0.0,0.0,0.0,0.0,0.0,0.0,0.0,0.0,0.0,0.0,0.0,0.0,0.0,0.0,0.0,0.0,0.0,0.0,0.0,0.0,0.0,0.0,0.0,0.0,0.0,0.0,0.0,0.0,0.0,0.0,0.0,0.0,0.0,0.0,0.0,0.0,0.0,0.0,0.0,0.0,0.0,0.0,0.0,0.0,0.0,0.0,0.0,0.0,0.0,0.0,0.0,0.0,0.0,0.0,0.0,0.0,0.0,0.0,0.0,0.0,0.0,0.0,0.0,0.0,0.0,0.0,0.0,0.0,0.0,0.0,0.0,0.0,0.0,0.0,0.0,0.0,0.0,0.0,0.0,0.0,0.0,0.0,0.0,0.0,0.0,0.0,0.0,0.0,0.0,0.0,0.0,0.0,0.0,0.0,0.0,0.0,0.0,0.0,0.0,0.0,2.9179,3.4771,3.8807,3.9602,4.0404,4.0208,3.8538,3.5219,3.1755,0.0,0.0,0.0,0.0,0.0,0.0,0.0,0.0,0.0,0.0,0.0,0.0,0.0,0.0,0.0,0.0,0.0,0.0,0.0,0.0,0.0,0.0,0.0,0.0,0.0,0.0,0.0,0.0,0.0,0.0,0.0,0.0,0.0,0.0,0.0,0.0,0.0,0.0,0.0,0.0,0.0,0.0,0.0,0.0,0.0,0.0,0.0,0.0,0.0,0.0,0.0,0.0,0.0,0.0,0.0,0.0,0.0,0.0,0.0,0.0,0.0,0.0,0.0,0.0,0.0,0.0,0.0,0.0,0.0,0.0,0.0,0.0,0.0,0.0,0.0,0.0,0.0,0.0,0.0,0.0,0.0,0.0,0.0,0.0,0.0,0.0,0.0,0.0,0.0,0.0,0.0,0.0,0.0,0.0,0.0,0.0,0.0,0.0,0.0,0.0,0.0,0.0,0.0,2.9179,3.4732,3.877,3.9616,3.9918,3.9606,3.8479,3.5763,3.2396,2.8346,0.0,0.0,0.0,0.0,0.0,0.0,0.0,0.0,0.0,0.0,0.0,0.0,0.0,0.0,0.0,0.0,0.0,0.0,0.0,0.0,0.0,0.0,0.0,0.0,0.0,0.0,0.0,0.0,0.0,0.0,0.0,0.0,0.0,0.0,0.0,0.0,0.0,0.0,0.0,0.0,0.0,0.0,0.0,0.0,0.0,0.0,0.0,0.0,0.0,0.0,0.0,0.0,0.0,0.0,0.0,0.0,0.0,0.0,0.0,0.0,0.0,0.0,0.0,0.0,0.0,0.0,0.0,0.0,0.0,0.0,0.0,0.0,0.0,0.0,0.0,0.0,0.0,0.0,0.0,0.0,0.0,0.0,0.0,0.0,0.0,0.0,0.0,0.0,0.0,0.0,0.0,0.0,0.0,0.0,0.0,0.0,0.0,0.0,0.0,0.0,0.0,0.0,2.8703,3.4495,3.8468,3.8643,3.9263,3.918,3.7985,3.5784,3.2798,2.8868,0.0,0.0,0.0,0.0,0.0,0.0,0.0,0.0,0.0,0.0,0.0,0.0,0.0,0.0,0.0,0.0,0.0,0.0,0.0,0.0,0.0,0.0,0.0,0.0,0.0,0.0,0.0,0.0,0.0,0.0,0.0,0.0,0.0,0.0,0.0,0.0,0.0,0.0,0.0,0.0,0.0,0.0,0.0,0.0,0.0,0.0,0.0,0.0,0.0,0.0,0.0,0.0,0.0,0.0,0.0,0.0,0.0,0.0,0.0,0.0,0.0,0.0,0.0,0.0,0.0,0.0,0.0,0.0,0.0,0.0,0.0,0.0,0.0,0.0,0.0,0.0,0.0,0.0,0.0,0.0,0.0,0.0,0.0,0.0,0.0,0.0,0.0,0.0,0.0,0.0,0.0,0.0,0.0,0.0,0.0,0.0,0.0,0.0,0.0,0.0,0.0,0.0,2.7972,3.4179,3.8072,3.7186,3.8539,3.8831,3.7239,3.5427,3.3006,2.9718,0.0,0.0,0.0,0.0,0.0,0.0,0.0,0.0,0.0,0.0,0.0,0.0,0.0,0.0,0.0,0.0,0.0,0.0,0.0,0.0,0.0,0.0,0.0,0.0,0.0,0.0,0.0,0.0,0.0,0.0,0.0,0.0,0.0,0.0,0.0,0.0,0.0,0.0,0.0,0.0,0.0,0.0,0.0,0.0,0.0,0.0,0.0,0.0,0.0,0.0,0.0,0.0,0.0,0.0,0.0,0.0,0.0,0.0,0.0,0.0,2.8359,0.0,0.0,0.0,0.0,0.0,0.0,0.0,0.0,0.0,0.0,0.0,0.0,0.0,0.0,0.0,0.0,0.0,0.0,0.0,0.0,0.0,0.0,0.0,0.0,0.0,0.0,0.0,0.0,0.0,0.0,0.0,0.0,0.0,0.0,0.0,0.0,0.0,0.0,0.0,0.0,0.0,2.7989,3.416,3.8069,3.7199,3.7986,3.8152,3.7124,3.5398,3.3238,3.0527,2.7594,0.0,0.0,0.0,0.0,0.0,0.0,0.0,0.0,0.0,0.0,0.0,0.0,0.0,0.0,0.0,0.0,0.0,0.0,0.0,0.0,0.0,0.0,0.0,0.0,0.0,0.0,0.0,0.0,0.0,0.0,0.0,0.0,0.0,0.0,0.0,0.0,0.0,0.0,0.0,0.0,0.0,0.0,0.0,0.0,0.0,0.0,0.0,0.0,0.0,0.0,0.0,0.0,0.0,0.0,0.0,0.0,0.0,0.0,0.0,0.0,3.0423,0.0,0.0,0.0,0.0,0.0,0.0,0.0,0.0,0.0,0.0,0.0,0.0,0.0,0.0,0.0,0.0,0.0,0.0,0.0,0.0,0.0,0.0,0.0,0.0,0.0,0.0,0.0,0.0,0.0,0.0,0.0,0.0,0.0,0.0,0.0,0.0,0.0,0.0,0.0,0.0,2.9119,3.4637,3.8016,3.7143,3.7793,3.7783,3.6493,3.5165,3.3655,3.1913,2.9029,0.0,0.0,0.0,0.0,0.0,0.0,0.0,0.0,0.0,0.0,0.0,0.0,0.0,0.0,0.0,0.0,0.0,0.0,0.0,0.0,0.0,0.0,0.0,0.0,0.0,0.0,0.0,0.0,0.0,0.0,0.0,0.0,0.0,0.0,0.0,0.0,0.0,0.0,0.0,0.0,0.0,0.0,0.0,0.0,0.0,0.0,0.0,0.0,0.0,0.0,0.0,0.0,0.0,3.3763,3.4734,3.6084,3.682,3.7935,3.9082,3.5538,3.487,3.5968,0.0,0.0,0.0,0.0,0.0,0.0,0.0,0.0,0.0,0.0,0.0,0.0,0.0,0.0,0.0,0.0,0.0,0.0,0.0,0.0,0.0,0.0,0.0,0.0,0.0,3.3689,3.3942,0.0,0.0,0.0,0.0,0.0,0.0,0.0,0.0,0.0,0.0,0.0,0.0,3.0562,3.5241,3.8015,3.7288,3.7848,3.7644,3.6046,3.5125,3.4253,3.3383,3.052,2.8373,0.0,0.0,0.0,0.0,0.0,0.0,0.0,0.0,0.0,0.0,0.0,0.0,0.0,0.0,0.0,0.0,0.0,0.0,0.0,0.0,0.0,0.0,0.0,0.0,0.0,0.0,0.0,0.0,0.0,0.0,0.0,0.0,2.2565,2.3655,0.0,0.0,0.0,0.0,0.0,0.0,0.0,0.0,0.0,0.0,0.0,0.0,0.0,3.2241,3.3805,3.6198,3.7819,3.8703,4.0917,4.2102,4.2316,4.2442,4.2617,4.2811,4.2228,0.0,3.7955,3.6634,0.0,0.0,0.0,0.0,0.0,0.0,0.0,0.0,0.0,0.0,0.0,0.0,0.0,0.0,0.0,0.0,0.0,0.0,0.0,0.0,0.0,0.0,3.7155,3.6502,3.72,3.7569,0.0,3.219,2.8317,2.5483,2.4404,0.0,0.0,0.0,0.0,0.0,0.0,0.0,3.1416,3.5581,3.8237,3.805,3.8205,3.7885,3.6837,3.5994,3.5162,3.4272,3.3093,3.1391,2.905,2.7078,0.0,0.0,0.0,0.0,0.0,0.0,0.0,0.0,0.0,0.0,0.0,0.0,0.0,0.0,0.0,0.0,0.0,0.0,0.0,0.0,0.0,0.0,0.0,0.0,0.0,0.0,0.0,0.0,0.0,2.1762,2.4426,2.4302,2.5162,2.5071,0.0,0.0,0.0,0.0,0.0,0.0,0.0,0.0,0.0,3.4699,3.5745,3.7093,3.8801,4.0451,4.1451,4.1859,4.2966,4.3763,4.4229,4.4229,4.4481,4.487,4.4423,4.3374,4.182,3.9509,3.71,3.473,0.0,0.0,0.0,0.0,3.2681,3.2597,3.4948,3.5203,0.0,3.3841,0.0,0.0,0.0,0.0,0.0,0.0,0.0,0.0,0.0,0.0,0.0,3.8596,3.9267,3.9666,3.8765,3.6805,3.4037,0.0,2.9289,2.8043,2.3878,0.0,0.0,0.0,0.0,3.1701,3.3777,3.6929,3.8949,3.8938,3.8957,3.8415,3.7019,3.6574,3.6013,3.5182,3.4311,3.3325,3.2203,2.9592,2.7232,0.0,0.0,0.0,0.0,0.0,0.0,0.0,0.0,0.0,0.0,0.0,0.0,0.0,0.0,0.0,0.0,0.0,0.0,0.0,0.0,0.0,0.0,0.0,0.0,0.0,0.0,0.0,0.0,2.3739,2.6243,2.5376,2.7382,2.799,0.0,0.0,0.0,0.0,0.0,0.0,3.3103,3.427,3.5939,3.8268,3.9811,4.1218,4.2519,4.3403,4.384,4.384,4.4035,4.4481,4.5103,4.5103,4.5433,4.5958,4.5375,4.4986,4.4598,4.182,3.9781,3.8285,3.6984,3.5974,3.543,3.6906,3.6887,3.6553,3.9356,3.9623,3.8565,3.7537,0.0,3.575,3.3211,0.0,0.0,0.0,0.0,3.4975,3.6489,3.7999,3.9268,3.9883,4.0507,4.0789,4.0148,4.0014,3.8682,0.0,3.3822,3.2701,2.7751,0.0,0.0,0.0,0.0,3.4468,3.6144,3.8205,3.9584,3.9797,3.9623,3.8876,3.7367,3.7038,3.6555,3.5742,3.5085,3.4621,3.4408,3.1739,2.965,2.8354,0.0,0.0,0.0,0.0,0.0,0.0,0.0,0.0,0.0,0.0,0.0,0.0,0.0,0.0,0.0,0.0,0.0,0.0,0.0,0.0,0.0,0.0,0.0,0.0,0.0,0.0,0.0,0.0,0.0,2.8003,3.1584,0.0,0.0,0.0,0.0,3.1674,3.2555,3.4148,3.6692,3.846,4.0169,4.1879,4.283,4.3355,4.3433,4.4307,4.4734,4.4734,4.5511,4.5899,4.5938,4.5938,4.5958,4.5997,4.5958,4.5511,4.4715,4.3724,4.2772,4.1917,4.184,4.1276,4.0635,4.1529,4.1335,4.0713,4.1733,4.0994,3.976,4.0507,3.9112,3.7093,3.6921,3.5779,0.0,0.0,3.6926,3.8419,3.9283,4.0136,4.0807,4.0915,4.0918,4.0897,4.0849,4.0849,4.0043,0.0,3.688,3.6298,3.4318,0.0,3.4143,3.4065,3.4988,3.6279,3.7957,3.8963,3.9832,4.0665,3.9983,3.9127,3.8218,3.7386,3.6555,3.5742,3.5665,3.5259,3.4427,3.3441,3.1758,2.9282,2.6652,0.0,0.0,0.0,0.0,0.0,0.0,0.0,0.0,0.0,0.0,0.0,0.0,0.0,0.0,0.0,0.0,0.0,0.0,0.0,0.0,0.0,0.0,0.0,0.0,0.0,0.0,0.0,0.0,3.1485,3.3802,0.0,3.2137,3.27,3.3784,3.5177,3.66,3.8299,4.0266,4.151,4.2675,4.384,4.4171,4.4598,4.5103,4.5414,4.5569,4.5569,4.5861,4.5997,4.5997,4.5997,4.5997,4.5997,4.5997,4.5841,4.556,4.5279,4.4336,4.3044,4.3044,4.285,4.2617,4.2928,4.285,4.2539,4.2287,4.1801,4.1266,4.1073,4.0413,3.9719,3.9719,3.9263,3.8807,3.9091,3.9591,4.0101,4.0408,4.068,4.0917,4.0932,4.0915,4.0907,4.0907,4.0907,4.0635,3.9713,3.9131,3.8043,3.5724,3.6276,3.6626,3.5519,3.6996,3.8462,3.9054,3.9837,4.0466,4.0776,4.0513,3.9979,3.9124,3.8291,3.7196,3.5781,3.5162,3.4466,3.3596,3.2725,3.1835,3.0926,2.8412,2.584,0.0,0.0,0.0,0.0,0.0,0.0,0.0,0.0,0.0,0.0,0.0,0.0,0.0,0.0,0.0,0.0,0.0,0.0,0.0,0.0,0.0,0.0,0.0,0.0,0.0,0.0,3.3448,3.378,3.6055,3.6824,3.482,3.5928,3.7338,3.8751,3.9918,4.1174,4.2567,4.3462,4.421,4.4773,4.5064,4.5453,4.5977,4.5997,4.5997,4.5997,4.5997,4.5997,4.5997,4.5997,4.5997,4.5997,4.5997,4.5997,4.6007,4.6056,4.5386,4.4345,4.4365,4.4365,4.4345,4.4345,4.4171,4.3782,4.2636,4.2226,4.2088,4.1276,4.1025,4.1066,4.1081,4.1033,4.0998,4.098,4.0945,4.0926,4.0907,4.0907,4.0907,4.0907,4.0907,4.0907,4.0907,4.0907,4.0907,4.0907,4.048,3.9548,3.7819,3.8479,3.8848,3.7683,3.8947,4.0044,4.0044,4.0509,4.0818,4.0818,4.0818,4.0331,3.9185,3.8332,3.7237,3.5803,3.4612,3.3838,3.3557,3.2164,3.141,3.141,2.8876,2.6729,2.5047,0.0,0.0,0.0,0.0,0.0,0.0,0.0,0.0,0.0,0.0,0.0,0.0,0.0,0.0,0.0,0.0,0.0,0.0,0.0,0.0,0.0,0.0,0.0,2.9708,3.3336,3.569,3.4891,3.8466,4.0019,3.7551,3.9577,4.1383,4.2247,4.2349,4.2708,4.3506,4.4375,4.4841,4.4831,4.5599,4.6007,4.6007,4.5997,4.5997,4.5997,4.5997,4.5997,4.5997,4.5997,4.5997,4.5997,4.6007,4.6007,4.6007,4.6007,4.6007,4.6007,4.6075,4.6066,4.5997,4.6007,4.5502,4.4569,4.2944,4.2369,4.2208,4.1325,4.1033,4.1046,4.1011,4.1006,4.1,4.0915,4.0943,4.0988,4.0917,4.0907,4.0907,4.0907,4.0907,4.0907,4.0907,4.0907,4.0907,4.0907,4.0907,4.0907,4.0907,4.0907,4.0907,4.0907,4.0907,0.0,4.0907,4.0898,4.0907,4.0907,4.0848,4.0148,3.8519,3.7569,3.6668,3.5766,3.4081,3.3471,3.4302,3.1952,3.0636,3.0636,2.8141,2.6779,2.6741,0.0,0.0,0.0,0.0,0.0,0.0,0.0,0.0,0.0,0.0,0.0,0.0,0.0,0.0,0.0,0.0,0.0,0.0,0.0,0.0,0.0,0.0,3.3419,3.4043,3.6246,3.8174,3.9185,4.0352,4.0793,4.0092,4.1237,4.2091,4.2286,4.3461,4.4267,4.4428,4.5321,4.578,4.5745,4.5959,4.6075,4.6075,4.6017,4.5997,4.5997,4.5997,4.5997,4.5997,4.5997,4.5997,4.6007,4.6037,4.6075,4.6075,4.6111,4.613,4.6075,4.6027,4.6017,4.6007,4.6047,4.5557,4.4803,4.435,4.3793,4.3178,4.2295,4.2013,4.1889,4.1261,4.1076,4.1056,4.0993,4.0991,4.0988,4.0917,4.0907,4.0907,4.0907,4.0907,4.0907,4.0907,4.0907,4.0907,4.0907,4.0907,4.0907,4.0907,4.0907,4.0907,4.0907,4.0907,0.0,4.0907,4.0898,4.0898,4.0898,4.0869,4.0684,4.0218,3.8802,3.7288,3.5785,3.41,3.2968,3.2532,3.1835,3.1468,3.1468,3.0192,2.8915,0.0,0.0,0.0,0.0,0.0,0.0,0.0,0.0,0.0,0.0,0.0,0.0,0.0,0.0,0.0,0.0,0.0,0.0,0.0,0.0,0.0,0.0,3.414,3.6679,3.7903,3.8955,3.9966,4.0971,4.1108,4.1241,4.1616,4.2096,4.2698,4.3378,4.4328,4.5039,4.537,4.5903,4.6189,4.6146,4.6146,4.6138,4.6093,4.6066,4.6027,4.5997,4.5997,4.5997,4.5997,4.6027,4.6037,0.0,4.6102,4.613,4.6102,4.6146,4.6138,0.0,0.0,0.0,0.0,0.0,4.5857,4.5384,4.5027,4.4601,4.404,4.2807,4.2405,4.2236,4.1351,4.1105,4.1086,4.1019,4.0993,4.0991,4.0949,4.0932,4.0935,4.0935,4.0926,4.0907,4.0907,4.0907,4.0907,4.0907,4.0907,0.0,4.0907,4.0907,4.0907,4.0907,4.0907,4.0907,4.0907,4.0907,4.0907,4.0907,4.0907,4.0762,4.0432,3.8801,0.0,0.0,0.0,3.2755,3.1835,3.1797,0.0,0.0,0.0,0.0,0.0,0.0,0.0,0.0,3.0146,2.9996,0.0,0.0,0.0,0.0,0.0,0.0,0.0,0.0,0.0,0.0,0.0,0.0,0.0,0.0,0.0,0.0,3.7503,3.9228,4.0866,4.1097,4.1108,4.1108,4.1108,4.1439,4.2318,4.2494,4.3235,4.4875,4.5031,4.5387,4.6167,0.0,0.0,0.0,0.0,4.6169,4.6102,4.6102,4.6075,4.5997,4.5997,4.6007,4.6007,4.6075,4.6102,4.6111,4.6169,4.6162,4.6102,4.6111,4.6111,4.6102,4.6102,4.6111,4.6119,4.6169,4.6209,4.6094,4.5333,0.0,0.0,4.3235,4.263,4.2373,4.1515,4.1174,4.1091,4.1025,4.1019,4.1013,4.0994,4.1006,4.1003,4.0996,4.0943,4.0917,4.0907,4.0907,4.0907,4.0907,4.0907,4.0907,4.0907,4.0907,4.0907,4.0907,4.0907,4.0907,4.0907,4.0907,4.0907,4.0907,0.0,0.0,3.9897,3.8325,3.7308,3.7172,3.4865,3.3171,3.2416,3.2474,3.2493,3.2377,3.3297,3.4487,3.5929,3.6822,3.7287,3.7293,3.3451,3.3245,0.0,0.0,0.0,0.0,0.0,0.0,0.0,0.0,0.0,0.0,0.0,0.0,0.0,0.0,0.0,3.6671,3.8452,3.9911,4.0945,4.1108,4.1108,4.1108,4.1108,4.1439,4.2318,4.304,4.3879,4.4914,4.5633,4.6074,4.6187,4.624,4.626,4.6201,4.6201,4.6183,4.6189,4.613,4.6075,4.5997,0.0,0.0,4.6084,4.6093,4.6138,4.6189,4.6183,4.6183,4.6189,4.6177,4.6177,4.6189,4.6189,4.6183,4.617,4.6195,4.6236,4.6257,4.6101,4.6042,4.587,4.4836,4.4016,4.3294,4.2412,4.1667,0.0,4.1076,4.1086,4.1061,4.1019,4.1007,4.0993,4.1003,4.0988,4.0971,4.0917,4.0907,4.0907,4.0907,4.0907,4.0907,4.0907,4.0907,4.0907,4.0907,4.0907,4.0907,4.0907,4.0907,4.0907,4.0907,4.0907,4.0849,4.0674,3.9704,3.8802,3.8093,3.6859,3.6091,3.5916,3.6593,3.6632,3.5936,3.6767,3.7038,3.669,3.7611,3.8435,3.9081,3.7672,3.6988,0.0,0.0,0.0,0.0,0.0,0.0,0.0,0.0,0.0,0.0,0.0,3.1374,3.3137,0.0,3.7218,3.8912,3.9894,4.061,4.1049,4.1108,4.1108,4.1108,4.1108,4.1439,4.2318,4.3196,4.4055,4.4933,4.5812,4.6296,4.6245,4.6277,4.6277,4.6245,4.6245,4.6236,4.6203,4.617,4.6142,4.6093,4.6093,4.613,4.6146,4.615,4.617,4.6209,4.6236,4.6231,4.6203,4.6201,4.6201,4.6209,4.624,4.6226,4.6211,4.624,4.6273,4.63,4.63,4.63,4.6163,4.5285,4.4719,4.4114,4.2806,4.2103,4.1654,4.1214,4.1094,4.109,4.1061,4.1047,4.105,4.1052,4.1025,4.0988,4.0963,4.0926,4.0907,4.0907,4.0907,4.0907,4.0907,4.0907,4.0907,4.0907,4.0907,4.0907,4.0907,4.0907,4.0907,4.0907,4.0907,4.0907,4.0907,4.0102,3.9228,3.8363,3.7835,3.756,3.756,3.7967,3.8005,3.756,3.8431,3.8682,3.8237,3.9236,3.9932,4.0331,3.9998,3.9603,0.0,0.0,0.0,0.0,0.0,0.0,0.0,0.0,2.9035,3.0936,3.3105,3.5083,3.6498,3.8044,3.9548,4.0875,4.1103,4.1097,4.1094,4.1091,4.1108,4.1108,4.1108,4.1439,4.2318,4.3196,4.4055,4.4933,4.5812,4.63,4.63,4.63,4.63,4.63,4.63,4.6273,4.6206,4.6206,4.6195,4.6196,4.6196,4.6203,4.6209,4.6195,4.6211,4.6216,4.6269,4.6269,4.6216,4.6211,4.6211,4.6216,4.6273,4.6273,4.6236,4.6277,4.63,4.63,4.63,4.63,4.6183,4.548,4.5148,4.4738,4.3333,4.2669,4.2259,4.1557,4.1225,4.1108,4.1108,4.1097,4.11,4.1096,4.1052,4.1003,4.0996,4.0943,4.0907,4.0907,4.0907,4.0907,4.0907,4.0907,4.0907,4.0907,4.0907,4.0907,4.0907,4.0907,4.0907,4.0907,4.0907,4.0907,4.0898,4.0237,3.9517,3.8836,3.8733,3.8721,3.8721,3.8721,3.8721,3.8721,3.9456,3.9855,3.9855,4.0687,4.1093,4.1098,4.116,4.1169,2.4066,2.6072,2.8087,3.0416,3.0017,3.0637,0.0,0.0,3.453,3.6996,3.8381,3.9237,3.9435,4.0269,4.0957,4.1074,4.1094,4.1093,4.1107,4.1097,4.1108,4.1108,4.1108,4.1439,4.2318,4.3196,4.4055,4.4933,4.5812,4.63,4.63,4.63,4.63,4.63,4.63,4.6273,4.6206,4.6206,4.6195,4.6196,4.6196,4.6196,4.6201,4.6206,4.624,4.6296,4.6221,4.624,4.6277,4.6216,4.624,4.6296,4.63,4.63,4.6296,4.63,4.63,4.63,4.63,4.63,4.628,4.6183,4.5636,4.4953,4.4777,4.3626,4.2376,4.2279,4.1693,4.1108,4.1108,4.1108,4.1101,4.11,4.105,4.0993,4.1003,4.0943,4.0907,4.0907,4.0907,4.0907,4.0907,4.0907,4.0907,4.0907,4.0907,4.0907,4.0907,4.0907,4.0907,4.0907,4.0907,4.0898,4.0888,4.077,4.0621,4.0529,4.0505,4.05,4.05,4.05,4.05,4.05,4.0655,4.0764,4.0764,4.0996,4.1093,4.1105,4.1174,4.1206,2.8924,3.0152,3.0872,0.0,3.4107,3.5242,3.7127,3.7253,3.7416,3.8983,3.9998,4.0609,4.0659,4.0956,4.1191,0.0,4.1152,4.1133,4.1112,4.1107,4.1099,4.1097,4.1091,4.1244,4.1615,4.2884,4.384,4.4211,4.5519,4.63,4.63,4.63,4.63,4.63,4.63,4.6296,4.6269,4.6269,4.6264,4.6255,4.6255,4.626,4.6269,4.6269,4.6273,4.6339,4.6819,4.6741,4.63,4.6273,4.6273,4.63,4.63,4.63,4.63,4.63,4.63,4.63,4.63,4.63,4.63,4.63,4.6046,4.5656,4.5148,4.4484,4.3704,4.2689,4.2142,4.1732,4.1225,4.1108,4.1104,4.11,4.105,4.1,4.1003,4.0943,4.0907,4.0907,4.0907,4.0907,4.0907,4.0907,4.0907,4.0907,4.0907,4.0907,4.0907,4.0907,4.0907,4.0907,4.0907,4.0898,4.0888,4.0868,4.0837,4.0804,4.08,4.0796,4.079,4.079,4.079,4.079,4.0829,4.0848,4.09,4.0995,4.1072,4.1105,4.1172,4.1191,3.141,0.0,0.0,3.4815,3.7077,3.8595,3.7639,3.8381,3.9474,4.0108,4.0713,4.1144,4.1191,4.1191,4.1191,4.1191,4.1191,4.1172,4.1112,4.1107,4.1101,4.1099,4.1094,4.1108,4.1108,4.2454,4.343,4.3684,4.509,4.6046,4.628,4.63,4.63,4.63,4.63,4.63,4.63,4.63,4.63,4.63,4.63,4.63,4.63,4.63,4.63,4.6339,4.6963,4.6885,4.63,4.63,4.63,4.63,4.63,4.63,4.63,4.63,4.63,4.63,4.63,4.63,4.63,4.63,4.63,4.6183,4.5558,4.5187,4.4738,4.3469,4.2942,4.2552,4.1674,4.1459,4.1397,4.1168,4.1061,4.1007,4.0999,4.0952,4.0907,4.0907,4.0907,4.0907,4.0907,4.0907,4.0907,4.0907,4.0907,4.0907,4.0907,4.0907,4.0907,4.0907,4.0907,4.0907,4.0907,4.0898,4.0877,4.0807,4.0792,4.0808,4.079,4.079,4.079,4.079,4.081,4.0848,4.0938,4.0979,4.1058,4.1129,4.1172,4.1191,0.0,0.0,3.4948,3.6676,3.8453,3.997,4.0766,4.0983,4.103,4.1052,4.1128,4.1191,4.1191,4.1191,4.1191,4.1191,4.1191,4.117,4.1114,4.1091,4.1111,4.1111,4.1108,4.1108,0.0,4.1908,4.2786,4.3645,4.4524,4.5402,4.6241,4.63,4.63,4.63,4.63,4.63,4.63,4.63,4.63,4.63,4.63,4.63,4.63,4.63,4.63,4.63,4.6339,4.6319,4.63,4.63,4.63,4.63,4.63,4.63,4.63,4.63,4.63,4.63,4.63,4.63,4.63,4.63,4.63,4.63,4.6261,4.5675,4.4992,4.4933,4.4309,4.345,4.2591,4.2357,4.2142,4.1303,4.1057,4.0994,4.1007,4.0949,4.0907,4.0907,4.0907,4.0907,4.0907,4.0907,4.0907,4.0907,4.0907,4.0907,4.0907,4.0907,4.0907,4.0907,4.0907,4.0907,4.0907,4.0898,4.0877,4.0807,4.0792,4.0808,4.079,4.079,4.079,4.079,4.0848,4.0938,4.0996,4.107,4.1133,4.1191,4.1191,4.1191,3.3745,0.0,3.6789,3.8507,3.9794,4.075,4.103,4.1108,4.1108,4.1108,4.0698,4.0332,4.0332,4.0332,4.0332,4.0332,4.0797,4.1144,4.1168,4.1121,4.1108,4.1108,4.1108,0.0,0.0,0.0,0.0,4.3626,4.4504,4.5382,4.6241,4.63,4.63,4.63,4.63,4.63,4.63,4.63,4.63,4.63,4.63,4.63,4.6319,4.6905,4.6846,4.6339,4.6905,4.6827,4.63,4.63,4.63,4.63,4.63,4.63,4.63,4.63,4.63,4.63,4.63,4.63,4.63,4.63,4.63,4.63,4.63,4.6105,4.5734,4.5168,4.4797,4.4367,4.3489,4.2825,4.2334,4.203,4.1505,4.105,4.1006,4.0976,4.0943,4.0917,4.0907,4.0907,4.0907,4.0907,4.0907,4.0907,4.0907,4.0907,4.0907,4.0907,4.0907,4.0907,4.0907,4.0907,4.0907,4.0898,4.0878,4.0787,4.0796,4.0812,4.0803,4.079,4.079,4.079,4.081,4.09,4.0996,4.1558,4.1894,4.2012,4.2598,4.2851,3.6911,3.7922,3.8235,4.0231,4.116,4.1484,4.1206,4.1146,4.0967,4.0342,3.9548,3.8887,3.8555,3.8241,3.8357,3.9274,3.9873,4.0437,4.1071,4.114,4.1108,4.1108,4.1361,4.1557,0.0,0.0,0.0,4.3216,4.4328,4.5246,4.5812,4.6124,4.63,4.63,4.63,4.63,4.63,4.63,4.63,4.63,4.63,4.63,4.6319,4.6885,4.6827,4.6339,4.6885,4.6827,4.63,4.63,4.63,4.63,4.63,4.63,4.63,4.63,4.63,4.63,4.63,4.63,4.63,4.63,4.63,4.63,4.63,4.63,4.6183,4.5617,4.546,4.5265,4.4387,4.3743,4.3251,4.2947,4.2188,4.1518,4.1473,4.121,4.0943,4.0917,4.0907,4.0907,4.0907,4.0907,4.0907,4.0907,4.0907,4.0907,4.0907,4.0907,4.0907,4.0907,4.0907,4.0907,4.0907,4.0907,4.0869,4.0787,4.0807,4.0804,4.0803,4.079,4.0945,4.1216,4.1235,4.1429,4.1867,4.2399,4.2713,4.2832,4.3437,4.3691,3.9169,3.9375,3.9412,4.1755,4.238,4.217,4.1328,4.1094,4.0586,3.8887,3.7734,3.6777,0.0,0.0,3.5469,3.7985,3.8541,3.9248,4.0876,4.1108,4.1127,0.0,0.0,0.0,0.0,0.0,0.0,4.2533,0.0,4.5012,4.507,4.5851,4.63,4.63,4.63,4.63,4.63,4.63,4.63,4.63,4.63,4.63,4.63,4.63,4.63,4.63,4.63,4.63,4.63,4.63,4.63,4.63,4.63,4.63,4.63,4.63,4.63,4.63,4.63,4.63,4.63,4.63,4.63,4.63,4.63,4.63,4.63,4.63,4.63,4.6105,4.5285,4.5031,4.4797,4.3957,4.3051,4.2364,4.2364,4.1657,4.1033,4.1024,4.1024,4.1024,4.1024,4.1005,4.0966,4.0966,4.0927,4.0907,4.0907,4.0907,4.0907,4.0907,4.0907,4.0907,4.0907,4.0907,4.0869,4.0787,4.0846,4.0862,4.0861,4.0887,4.1293,4.2048,4.2067,4.2512,4.3395,4.3508,4.3606,4.3672,4.3789,4.3828,4.0237,4.1577,4.224,4.1596,4.1931,4.2014,4.0566,3.9724,3.8957,3.7865,3.5389,3.3164,0.0,0.0,0.0,3.548,3.7867,0.0,4.0955,4.1108,0.0,4.1986,0.0,4.2669,4.3313,4.4153,0.0,0.0,4.4387,4.5285,4.5929,4.6183,4.63,4.63,4.63,4.63,4.63,4.63,4.63,4.63,4.63,4.63,4.63,4.63,4.63,4.63,4.63,4.63,4.63,4.63,4.63,4.63,4.63,4.63,4.63,4.63,4.63,4.63,4.63,4.63,4.63,4.63,4.63,4.63,4.63,4.63,4.63,4.63,4.63,4.6241,4.6027,4.55,4.4933,4.4719,4.3989,4.3329,4.3286,4.3084,4.2899,4.284,4.285,4.285,4.285,4.2306,4.1859,4.1859,4.1315,4.0907,4.0907,4.0907,4.0907,4.0907,4.0907,4.0907,4.0907,4.0907,4.0869,4.0787,4.1408,4.1742,4.1699,4.2318,4.2763,4.2957,4.2976,4.3111,4.3388,4.4117,4.4491,4.459,4.5293,4.5644,4.1758,4.2674,4.2895,4.1906,4.1769,4.1323,3.9238,3.8084,3.6791,3.4406,3.1753,0.0,2.8769,3.0012,0.0,0.0,0.0,0.0,4.0873,4.1108,4.142,0.0,4.2747,0.0,4.4192,4.5051,4.5363,0.0,4.5285,4.5617,4.5714,4.6085,4.63,4.63,4.63,4.63,4.63,4.63,4.63,4.63,4.63,4.63,4.63,4.63,4.63,4.63,0.0,4.63,4.63,4.63,4.63,4.63,4.63,4.63,4.63,4.63,4.63,4.63,4.63,4.63,4.63,4.63,4.63,4.63,4.63,4.63,4.63,4.63,4.63,4.63,4.63,4.5948,4.5578,4.5578,4.4883,4.4217,4.4182,4.3856,4.3536,4.352,4.351,4.351,4.351,4.3083,4.2772,4.2772,4.2345,4.2034,4.2034,4.1374,4.1043,4.1432,4.1471,4.1626,4.2015,4.2034,4.2014,4.1953,4.2408,4.2644,4.2615,4.3066,4.3479,4.3866,4.3866,4.4059,4.4446,4.504,4.5356,4.5447,4.5994,4.6269,4.298,4.2893,4.2378,4.2265,4.1621,4.0332,3.7715,3.6269,3.4336,3.0268,0.0,2.6224,2.5351,2.6712,2.9081,3.2514,0.0,3.8024,4.0581,4.103,4.142,4.2298,4.3177,4.4094,4.509,4.5851,4.63,4.63,4.63,4.5968,4.5207,4.589,4.63,4.63,4.63,4.63,4.63,4.63,4.63,4.63,4.63,4.63,4.63,4.63,4.63,4.63,4.63,0.0,4.63,4.63,4.63,4.63,4.63,4.63,4.63,4.63,4.63,4.63,4.63,4.63,4.63,4.63,4.63,4.63,4.63,4.63,4.63,4.63,4.63,4.63,4.63,4.63,4.63,4.63,4.5665,4.5072,4.5072,4.442,4.384,4.384,4.384,4.384,4.384,4.3743,4.3666,4.3666,4.3569,4.351,4.351,4.2189,4.1529,4.2287,4.2364,4.2675,4.3452,4.351,4.3481,4.3402,4.3505,4.3567,4.355,4.3621,4.4001,4.4736,4.4755,4.5104,4.58,4.593,4.6026,4.6096,4.617,4.6229,4.1733,4.2002,4.2249,4.1562,4.0762,3.9434,3.6816,3.4434,0.0,0.0,2.5987,2.3521,2.2704,2.4536,2.7286,3.076,0.0,0.0,0.0,0.0,4.142,0.0,0.0,0.0,0.0,0.0,0.0,0.0,0.0,4.6222,4.6085,4.6222,4.63,4.63,4.63,4.63,4.63,4.63,4.63,4.63,4.63,4.63,4.63,4.63,4.63,4.63,4.63,0.0,4.63,4.63,4.63,4.63,4.63,4.63,4.63,4.63,4.63,4.63,4.63,4.63,4.63,4.63,4.63,4.63,4.63,4.63,4.63,4.63,4.63,4.63,4.63,4.63,4.63,4.63,4.6123,4.5981,4.5969,4.5763,4.5569,4.5569,4.5569,4.5569,4.5569,4.5006,4.4579,4.4579,4.3957,4.351,4.351,4.3238,4.3122,4.3258,4.3277,4.3335,4.3491,4.351,4.3481,4.3402,4.409,4.4444,4.4383,4.508,4.5492,4.5587,4.5587,4.5664,4.58,4.593,4.6035,4.6106,4.6107,4.6179,4.1241,4.0798,4.0437,4.0507,3.9199,3.7187,3.4609,0.0,0.0,0.0,2.3273,2.1684,2.1296,2.3304,0.0,2.8457,3.1368,0.0,0.0,0.0,0.0,0.0,0.0,0.0,0.0,0.0,0.0,0.0,0.0,4.63,4.63,4.63,4.63,4.63,4.63,4.63,4.63,4.63,4.63,4.63,4.63,4.63,4.63,4.63,4.63,4.63,4.63,0.0,4.63,4.63,4.63,4.63,4.63,4.63,4.63,4.63,4.63,4.63,4.63,4.63,4.63,4.63,4.63,4.63,4.63,4.63,4.63,4.63,4.63,4.63,4.63,4.63,4.63,4.63,4.6255,4.619,4.6111,4.6056,4.5997,4.5997,4.5997,4.5997,4.5997,4.5686,4.5414,4.5414,4.5064,4.4792,4.4792,4.4792,4.4637,4.4229,4.419,4.4345,4.4773,4.4792,4.4792,4.4762,4.5149,4.5347,4.5279,4.5674,4.586,4.58,4.58,4.58,4.58,4.5858,4.5949,4.6046,4.6037,4.6127,4.0834,3.9758,3.8844,3.9902,3.8066,3.5332,3.2773,3.0039,0.0,0.0,2.1208,2.0582,2.0594,0.0,2.4539,0.0,2.8986,3.2051,0.0,0.0,0.0,0.0,0.0,0.0,0.0,0.0,0.0,0.0,0.0,0.0,4.63,4.63,4.63,4.63,4.63,4.63,4.63,4.63,4.63,4.63,4.63,4.63,4.63,4.63,4.63,4.63,4.63,0.0,0.0,4.63,4.63,4.63,4.6306,4.6306,4.63,4.6306,4.6309,4.6309,4.6309,4.6309,4.6309,4.6309,4.6306,4.63,4.63,4.63,4.63,4.63,4.63,4.63,4.6277,4.6273,4.6273,4.6264,4.6228,4.6146,4.6017,4.5997,4.5997,4.5997,4.5997,4.5997,4.5997,4.5997,4.5997,4.5997,4.5997,4.5997,4.5997,4.5997,4.5763,4.5122,4.5064,4.5317,4.5938,4.5997,4.5997,4.5997,4.5994,4.5972,4.5917,4.5912,4.5887,4.5814,4.5814,4.5814,4.58,4.58,4.5858,4.6007,4.5972,4.6038,4.0003,3.9313,3.8984,4.0586,3.8476,3.5332,3.2773,0.0,0.0,2.2617,2.1167,2.0539,2.0599,2.1384,0.0,0.0,0.0,3.1211,3.5528,3.6735,0.0,0.0,0.0,0.0,0.0,0.0,0.0,0.0,0.0,0.0,4.63,4.63,4.63,4.63,4.63,4.63,4.63,4.63,4.63,4.63,4.63,4.63,4.63,4.63,4.63,4.63,4.63,0.0,0.0,4.63,4.63,4.6303,4.6301,4.63,4.6303,4.6301,4.6306,4.6306,4.6306,4.6306,4.6306,4.6306,4.6297,4.63,4.63,4.63,4.63,4.63,4.63,4.6296,4.6216,4.6211,4.6201,4.6135,4.6111,4.6084,4.6017,4.5997,4.5997,4.5997,4.5997,4.5997,4.5997,4.5997,4.5997,4.5997,4.5997,4.5997,4.5997,4.5997,4.5958,4.5899,4.588,4.5919,4.5977,4.5997,4.5997,4.5997,4.5997,4.6005,4.5991,4.5991,4.5956,4.5893,4.5893,4.586,4.58,4.58,4.5858,4.6007,4.5886,4.5924,3.9605,3.9261,3.8881,4.0078,3.7773,3.4551,3.1992,0.0,2.5234,2.1766,2.0753,2.0501,2.0526,2.0798,2.1814,0.0,0.0,0.0,3.1535,3.2414,3.4344,0.0,0.0,0.0,0.0,0.0,0.0,0.0,0.0,0.0,4.63,4.63,4.63,4.63,4.63,4.63,4.63,4.63,4.63,4.63,4.63,4.63,4.63,4.63,4.63,4.63,4.63,0.0,0.0,4.6295,4.63,4.6301,4.6269,4.623,4.623,4.6249,4.6249,4.6249,4.6249,4.6269,4.6307,4.6307,4.63,4.63,4.63,4.63,4.63,4.63,4.63,4.63,4.6273,4.624,4.6176,4.6119,4.6093,4.6084,4.6007,4.5997,4.5997,4.5997,4.5997,4.5997,4.5997,4.5997,4.5997,4.5997,4.5997,4.5997,4.5997,4.5997,4.5997,4.5997,4.5997,4.5997,4.5997,4.5997,4.5997,4.5997,4.5997,4.6005,4.6003,4.596,4.5925,4.5893,4.586,4.5833,4.58,4.58,4.5819,4.5877,4.5819,4.5877,3.8902,3.9078,3.8807,3.9683,3.7284,3.3964,0.0,2.7799,2.4395,2.1168,2.048,2.048,2.0504,2.0508,2.0999,2.2476,2.3141,2.4901,2.9004,2.9979,3.2241,0.0,0.0,0.0,0.0,0.0,0.0,0.0,0.0,0.0,4.63,4.63,4.63,4.63,4.63,4.63,4.63,4.63,4.63,4.63,4.63,4.63,4.63,4.6309,4.6306,4.63,4.6276,0.0,0.0,4.6287,4.6269,4.6269,4.6223,4.62,4.6204,4.6198,4.6198,4.6198,4.6198,4.6223,4.6268,4.6268,4.6287,4.6293,4.6293,4.6306,4.63,4.63,4.6292,4.626,4.626,4.6215,4.613,4.6074,4.6075,4.6066,4.6007,4.5997,4.5997,4.5997,4.5997,4.5997,4.5997,4.5997,4.5997,4.5997,4.5997,4.5997,4.5997,4.5997,4.5997,4.5997,4.5997,4.5997,4.5997,4.5997,4.5997,4.5997,4.5997,4.5997,4.5994,4.5941,4.5925,4.5899,4.586,4.5814,4.58,4.58,4.58,4.58,4.58,4.5993,3.7669,3.8609,3.8801,3.9683,3.7279,3.3785,3.0311,2.6877,2.3667,2.1032,2.0449,2.0427,2.05,2.0497,2.0798,2.1675,2.3259,0.0,2.9022,3.0996,3.3376,0.0,0.0,0.0,0.0,0.0,0.0,0.0,0.0,0.0,4.63,4.63,4.63,4.63,4.63,4.63,4.63,4.63,4.63,4.63,4.63,4.63,4.63,4.6301,4.6301,0.0,0.0,0.0,0.0,4.6228,4.6204,4.6202,4.6199,4.6206,4.6202,4.6199,4.6206,4.6206,4.6206,4.6206,4.6206,4.6206,4.6241,4.6307,4.6307,4.6297,4.63,4.63,4.625,4.6196,4.6196,4.6102,4.6007,4.5997,4.5997,4.5997,4.5997,4.5997,4.5997,4.5997,4.5997,4.5997,4.5997,4.5997,4.5997,4.5997,4.5997,4.5997,4.5997,4.5997,4.5997,4.5997,4.5997,4.5997,4.5997,4.5997,4.5997,4.5997,4.5997,4.5997,4.5997,4.5994,4.596,4.5886,4.5899,4.586,4.58,4.58,4.58,4.58,4.58,4.6264,3.2747,3.3648,3.4009,3.368,3.1926,2.9669,2.7429,2.5099,2.2881,2.09,2.0452,2.041,2.0495,2.05,2.1368,2.4021,2.4924,2.6264,0.0,0.0,0.0,3.4422,3.8514,0.0,0.0,0.0,0.0,0.0,0.0,0.0,4.63,4.63,4.63,4.63,4.63,4.63,4.63,4.63,4.63,4.63,4.63,4.6309,4.6301,4.6306,4.6269,0.0,0.0,0.0,0.0,4.6212,4.6202,4.6199,4.6201,4.6195,4.6206,4.6209,4.6203,4.6203,4.6203,4.6206,4.6191,4.6192,4.6247,4.6306,4.6297,4.6306,4.63,4.63,4.624,4.6209,4.6203,4.6138,4.6066,4.6007,4.5997,4.5997,4.5997,4.5997,4.5997,4.5997,4.5997,4.5997,4.5997,4.5997,4.5997,4.5997,4.5997,4.5997,4.5997,4.5997,4.5997,4.5997,4.5997,4.5997,4.5997,4.5997,4.5997,4.5997,4.5997,4.5997,4.5997,4.5953,4.5917,4.5886,4.5854,4.5814,4.58,4.58,4.6109,4.6689,4.6689,4.7154,2.9123,3.0353,3.089,3.0346,2.8957,2.725,2.5567,2.382,2.2169,2.0783,2.0477,2.0457,2.0482,2.0511,2.1204,2.3396,2.4296,2.5619,0.0,0.0,0.0,0.0,0.0,0.0,0.0,0.0,0.0,0.0,0.0,0.0,4.63,4.63,4.63,4.63,4.63,4.6306,4.6295,4.6295,4.6297,4.6264,4.6264,4.6268,4.6269,4.6268,4.6246,0.0,0.0,0.0,0.0,4.6201,4.6206,4.6201,4.619,4.6196,4.6196,4.6196,4.6196,4.6196,4.6196,4.6203,4.6192,4.6206,4.6247,4.6306,4.6309,4.63,4.63,4.63,4.626,4.6203,4.6203,4.6138,4.6037,4.6007,4.5997,4.5997,4.5997,4.5997,4.5997,4.5997,4.5997,4.5997,4.5997,4.5997,4.5997,4.5997,4.5997,4.5997,4.5997,4.5997,4.5997,4.5997,4.5997,4.5997,4.5997,4.5997,4.5997,4.5997,4.5997,4.5997,4.6005,4.5972,4.5937,4.5893,4.5874,4.5833,4.58,4.6129,4.6728,4.7579,4.7579,4.8063,0.0,2.809,2.883,2.8765,2.7579,2.6018,2.4394,2.2823,0.0,2.0672,2.0497,2.0545,2.0659,2.0585,2.0613,2.0984,2.2406,2.4388,0.0,0.0,0.0,0.0,0.0,0.0,0.0,0.0,0.0,0.0,0.0,0.0,4.6027,4.6027,4.6027,4.6027,4.6144,4.6234,4.6307,4.6307,4.6269,4.6204,4.6204,4.6204,4.6202,4.6202,4.6202,0.0,0.0,0.0,0.0,4.6196,4.6196,4.6196,4.6196,4.6196,4.6196,4.6196,4.6196,4.6196,4.6196,4.6196,4.6209,4.6197,4.6241,4.6306,4.6309,4.63,4.63,4.63,4.625,4.6203,4.6196,4.6102,4.6007,4.5997,4.5997,4.5997,4.5997,4.5997,4.5997,4.5997,4.5997,4.5997,4.5997,4.5997,4.5997,4.5997,4.5997,4.5997,4.5997,4.5997,4.5997,4.5997,4.5997,4.5997,4.5997,4.5997,4.5997,4.5997,4.5997,4.6005,4.6003,4.5991,4.5956,4.5906,4.5951,4.5957,4.5877,4.6767,4.7637,4.8488,4.8488,4.8952,1.9922,0.0,2.3267,2.2617,2.2139,2.1764,0.0,2.1041,2.0686,2.0534,0.0,2.0914,2.2235,2.1403,2.18,2.5753,2.6732,2.7913,3.0537,0.0,0.0,0.0,0.0,0.0,0.0,0.0,0.0,0.0,0.0,4.2611,4.3274,4.3313,4.3313,4.3313,4.4602,4.5629,4.6287,4.6249,4.6226,4.6204,4.6204,4.6198,4.6199,4.6191,4.6197,0.0,0.0,0.0,4.6196,4.6203,4.6196,4.6196,4.6196,4.6196,4.6196,4.6196,4.6196,4.6196,4.6196,4.6196,4.6196,4.6206,4.6248,4.6306,4.6309,4.63,4.63,4.63,4.624,4.6189,4.6203,4.6138,4.6047,4.6007,4.5997,4.5997,4.5997,4.5997,4.5997,4.5997,4.5997,4.5997,4.5997,4.5997,4.5997,4.5997,4.5997,4.5997,4.5997,4.5997,4.5997,4.5997,4.5997,4.5997,4.5997,4.5997,4.5997,4.5997,4.5994,4.6003,4.5991,4.5944,4.5919,4.5893,4.6505,4.682,4.6806,4.7676,4.8546,4.9397,4.9397,4.9842,1.7793,1.9367,2.0889,2.0411,2.0624,2.0965,2.1027,0.0,0.0,0.0,0.0,2.0784,2.173,2.1795,2.2737,2.594,2.7464,0.0,0.0,0.0,0.0,0.0,0.0,0.0,0.0,0.0,0.0,0.0,0.0,4.1303,4.1771,4.1791,4.1791,4.1791,4.272,4.3824,4.5097,4.5836,4.6195,4.6191,4.6191,4.6201,4.6201,4.6201,4.6203,0.0,0.0,0.0,4.6196,4.6196,4.6196,4.6196,4.6196,4.6196,4.6196,4.6196,4.6196,4.6196,4.6196,4.6201,4.6186,4.6152,4.62,4.6257,4.6255,4.625,4.625,4.6245,4.6231,4.6196,4.6162,4.6102,4.6037,4.6007,4.5997,4.5997,4.5997,4.5997,4.5997,4.5997,4.5997,4.5997,4.5997,4.5997,4.5997,4.5997,4.5997,4.5997,4.5997,4.5997,4.5997,4.5997,4.5997,4.5997,4.5997,4.5997,4.5997,4.5997,4.5994,4.5991,4.596,4.5925,4.5899,4.5893,4.6698,4.7289,4.7695,4.8566,4.9436,5.0248,5.0248,5.048,1.7733,1.913,2.0455,2.0173,2.0901,2.1667,2.1536,0.0,0.0,0.0,0.0,0.0,0.0,0.0,0.0,0.0,0.0,0.0,0.0,0.0,0.0,0.0,0.0,0.0,0.0,0.0,0.0,0.0,0.0,4.0385,4.0503,4.0522,4.0522,4.0522,4.0775,4.1543,4.2882,4.4716,4.5613,4.5611,4.5864,4.6001,4.6001,4.6137,4.6196,4.6196,0.0,0.0,4.6196,4.6196,4.6196,4.6196,4.6196,4.6196,4.6196,4.6196,4.6196,4.6196,4.6203,4.6195,4.6191,4.6134,4.6153,4.619,4.6203,4.6196,4.6203,4.6189,4.6196,4.6189,4.613,4.6066,4.6007,4.6007,4.5997,4.5997,4.5997,4.5997,4.5997,4.5997,4.5997,4.5997,4.5997,4.5997,4.5997,4.5997,4.5997,4.5997,4.5997,4.5997,4.5997,4.5997,4.5997,4.5997,4.5997,4.5997,4.5997,4.5997,4.5983,4.5949,4.5893,4.5873,4.5958,4.6087,4.6878,4.7734,4.8604,4.9455,5.0229,5.0906,5.0906,5.0906,1.7466,1.9646,2.1119,1.9652,2.0512,2.1527,2.0845,0.0,0.0,0.0,0.0,0.0,0.0,0.0,0.0,0.0,0.0,0.0,0.0,0.0,0.0,0.0,0.0,3.6202,3.6208,3.6423,0.0,0.0,0.0,3.7106,3.7848,3.7887,3.7887,3.7887,3.9256,3.9762,3.9309,4.1752,4.2949,4.2922,4.4384,4.5105,4.5124,4.5864,4.6196,4.6196,0.0,4.6196,4.6196,4.6196,4.6196,4.6196,4.6196,4.6196,4.6196,4.6196,4.6196,4.6203,4.6196,4.6206,4.6204,4.619,4.6153,4.6133,4.617,4.6196,4.6196,4.6127,4.6154,4.6189,4.613,4.6093,4.6075,4.6007,4.5997,4.5997,4.5997,4.5997,4.5997,4.5997,4.5997,4.5997,4.5997,4.5997,4.5997,4.5997,4.5997,4.5997,4.5997,4.5997,4.5997,4.5997,4.5997,4.5997,4.5997,4.5994,4.6003,4.6003,4.5949,4.5893,4.5827,4.5827,4.6162,4.6897,4.7753,4.8624,4.9494,5.0326,5.079,5.0906,5.0906,5.0906,1.6275,1.8382,2.0269,1.9938,2.2202,2.4292,2.3446,0.0,0.0,0.0,0.0,0.0,0.0,0.0,0.0,0.0,0.0,0.0,0.0,0.0,0.0,0.0,0.0,3.5996,3.5992,3.5993,0.0,0.0,0.0,0.0,3.6581,3.6601,3.6601,3.6601,3.7341,3.7559,3.7153,3.8762,4.0277,4.1656,4.2455,4.3078,4.3507,4.3916,4.4605,4.5495,0.0,4.5768,4.6209,4.6209,4.6209,4.6209,4.6209,4.6209,4.6203,4.6196,4.6203,4.6187,4.6156,4.6152,4.6145,4.6094,4.6066,4.6049,4.6083,4.6093,4.6084,4.6047,4.6093,4.6138,4.6047,4.6056,4.6027,4.6007,4.5997,4.5997,4.5997,4.5997,4.5997,4.5997,4.5997,4.5997,4.5997,4.5997,4.5997,4.5997,4.5997,4.5997,4.5997,4.5997,4.5997,4.5997,4.6005,4.5994,4.5994,4.5972,4.6162,4.6622,4.6629,4.6784,4.7192,4.7192,4.7386,4.7792,4.8662,4.9301,4.9707,5.0519,5.0906,5.0906,5.0906,5.0906,1.5777,1.7648,1.9683,2.0566,0.0,2.5732,2.5868,0.0,0.0,0.0,0.0,0.0,0.0,0.0,0.0,0.0,0.0,0.0,0.0,0.0,0.0,0.0,0.0,0.0,3.5996,3.5996,0.0,0.0,0.0,0.0,3.5992,3.5992,3.5992,3.5992,3.5994,3.5991,3.5996,3.6618,3.8022,4.0201,4.0604,4.113,4.1734,4.2124,4.3026,4.4306,4.4507,4.5078,4.5889,4.5894,4.6011,4.6206,4.6206,4.6206,4.6206,4.6189,4.6192,4.6186,4.6133,4.6117,4.6089,4.6044,4.5998,4.5997,4.5997,4.5997,4.5997,4.5997,4.6047,4.6056,4.6007,4.5997,4.5997,4.5997,4.5997,4.5997,4.5997,4.5997,4.5997,4.5997,4.5997,4.5997,4.5997,4.5997,4.5997,4.5997,4.5997,4.5997,4.5986,4.5986,4.5986,4.5986,4.5983,4.598,4.598,4.5937,4.6345,4.7409,4.7307,4.7564,4.8372,4.8392,4.8508,4.8701,4.9359,4.9784,4.9977,5.0596,5.0906,5.0906,5.0906,5.0906,1.7155,1.8938,2.0517,2.14,2.1897,0.0,2.6104,2.6236,0.0,0.0,0.0,0.0,0.0,0.0,0.0,0.0,0.0,0.0,0.0,0.0,0.0,0.0,0.0,0.0,0.0,3.5996,0.0,0.0,0.0,0.0,3.5995,3.5993,3.5992,3.5995,3.5995,3.5993,3.6003,3.6055,3.6563,3.7503,3.9129,3.9922,4.0039,4.1598,4.2377,4.2533,4.335,4.4195,4.5,4.4991,4.5465,4.6206,4.6206,4.6206,4.6206,4.6189,4.6206,4.6202,4.6186,4.6145,4.6105,4.6079,4.6054,4.5997,4.5997,4.5997,4.5997,4.5997,4.6007,4.6007,4.5997,4.5997,4.5997,4.5997,4.5997,4.5997,4.5997,4.5997,4.5997,4.5997,4.5997,4.5997,4.5997,4.5997,4.5997,4.5997,4.5997,4.5986,4.6003,4.6003,4.5991,4.5898,4.5917,4.5905,4.5906,4.5906,4.6577,4.8198,4.7622,4.7564,4.8372,4.8392,4.8778,4.9591,4.9668,5.0074,5.0809,5.0867,5.0906,5.0906,5.0906,5.0906,1.6038,1.8314,2.067,2.1547,2.2991,0.0,0.0,2.8735,0.0,0.0,0.0,0.0,0.0,0.0,0.0,0.0,0.0,0.0,0.0,0.0,0.0,0.0,0.0,0.0,0.0,0.0,0.0,0.0,0.0,0.0,3.5994,3.601,3.5988,3.5946,3.5974,3.5994,3.6004,3.6004,3.6157,3.6458,3.7079,3.7659,3.819,3.8848,4.0023,4.1579,4.191,4.2856,4.4157,4.4161,4.4356,4.4708,4.5234,4.5777,4.626,4.6225,4.6204,4.6191,4.6158,4.6114,4.6088,4.6054,4.6018,4.5997,4.5997,4.5997,4.5997,4.5997,4.5997,4.5997,4.5997,4.5997,4.5997,4.5997,4.5997,4.5997,4.5997,4.5997,4.5997,4.5997,4.5997,4.5997,4.5994,4.5994,4.5983,4.5953,4.5941,4.5941,4.5949,4.5949,4.5917,4.5886,4.5893,4.5887,4.5847,4.5847,4.6336,4.7521,4.7806,4.8542,4.99,4.9958,5.0113,5.0442,5.0461,5.0596,5.0906,5.0906,5.0906,5.0906,5.0906,5.0906,1.5318,1.7629,2.0359,0.0,0.0,0.0,2.8512,3.0833,3.315,0.0,0.0,0.0,0.0,0.0,0.0,0.0,0.0,0.0,3.8082,3.7126,3.6501,0.0,0.0,0.0,0.0,0.0,0.0,0.0,0.0,0.0,0.0,3.6532,3.6473,3.6703,3.6774,3.6797,3.6817,3.6544,3.6411,3.6414,3.6087,3.6235,3.682,3.7089,3.8185,3.9899,4.0442,4.1523,4.29,4.3177,4.345,4.3762,4.4367,4.5125,4.5882,4.5846,4.5976,4.6182,4.6113,4.6086,4.6066,4.6017,4.5997,4.5997,4.5997,4.5997,4.5997,4.5997,4.5997,4.5997,4.5997,4.5997,4.5997,4.5997,4.5997,4.5997,4.5997,4.5997,4.5997,4.5997,4.5997,4.6005,4.6003,4.5991,4.5949,4.5917,4.5905,4.5905,4.5893,4.5893,4.5893,4.588,4.5874,4.5847,4.5814,4.58,4.6167,4.7038,4.7657,4.8759,5.0461,5.077,5.0906,5.0906,5.0906,5.0906,5.0906,5.0906,5.0906,5.0906,5.0906,5.0906,1.5405,1.7176,0.0,0.0,0.0,0.0,3.003,3.2173,3.4394,3.7823,0.0,0.0,0.0,0.0,0.0,0.0,0.0,0.0,3.9819,3.8355,3.7633,3.8495,3.7848,0.0,0.0,0.0,0.0,0.0,3.7803,3.7659,3.8459,3.7671,3.7613,3.8479,3.8498,3.8521,3.859,3.7744,3.7315,3.7301,3.6433,3.6013,3.6025,3.6824,3.7191,3.7292,3.9037,4.0274,4.1152,4.2022,4.2903,4.3684,4.3684,4.4211,4.4988,4.5,4.5485,4.6163,4.6095,4.6047,4.5977,4.5977,4.5977,4.5997,4.5997,4.5997,4.5997,4.5997,4.5997,4.5997,4.5997,4.5997,4.5997,4.5997,4.5997,4.5997,4.5997,4.5997,4.5997,4.5997,4.5994,4.5991,4.5991,4.5929,4.5905,4.5905,4.5905,4.5893,4.5906,4.5893,4.586,4.5814,4.58,4.58,4.58,4.58,4.6167,4.7018,4.7096,4.7869,4.9629,5.048,5.0906,5.0906,5.0906,5.0906,5.0906,5.0906,5.0906,5.0906,5.0906,5.0906,1.6135,0.0,0.0,0.0,0.0,0.0,0.0,3.3542,0.0,0.0,0.0,0.0,0.0,0.0,0.0,0.0,0.0,0.0,0.0,3.8902,3.8316,3.8573,3.8375,3.8316,3.857,3.859,3.8593,3.8593,3.8355,3.8313,3.8567,3.8333,3.8287,3.8498,3.8544,3.8567,3.8521,3.8313,3.8219,3.8199,3.7946,3.7201,3.6004,3.6251,3.6684,3.7292,3.7815,3.8853,4.0246,4.1127,4.2006,4.2786,4.2786,4.3313,4.4078,4.4036,4.4178,4.4364,4.4295,4.4666,4.5161,4.5161,4.553,4.5997,4.5997,4.5997,4.5997,4.5997,4.5997,4.5997,4.5997,4.5997,4.5997,4.5997,4.5997,4.5997,4.5997,4.5997,4.5997,4.5994,4.6003,4.598,4.5932,4.5899,4.5887,4.5841,4.5841,4.5827,4.5827,4.5827,4.5814,4.58,4.58,4.58,4.58,4.58,4.5896,4.6167,4.6748,4.7869,4.9629,4.9939,5.0326,5.0906,5.0906,5.0906,5.0906,5.0906,5.0906,5.0906,5.0906,5.0906,1.7331,0.0,0.0,0.0,0.0,0.0,0.0,0.0,0.0,0.0,0.0,0.0,0.0,0.0,0.0,0.0,0.0,0.0,0.0,0.0,3.9244,3.9557,3.9301,3.9239,3.9566,3.9585,3.9585,3.9585,3.9273,3.9234,3.9566,3.9253,3.9211,3.952,3.9566,3.9566,3.954,3.925,3.9117,3.9117,3.8765,3.7867,3.6521,3.6515,3.6612,3.6813,3.7513,3.8567,3.9878,4.0737,4.14,4.1888,4.1888,4.2415,4.318,4.3138,4.334,4.3601,4.3543,4.387,4.4277,4.4278,4.4851,4.5511,4.5511,4.5744,4.5997,4.5997,4.5997,4.5997,4.5997,4.5997,4.5997,4.5997,4.5997,4.6005,4.6005,4.5975,4.5964,4.596,4.5968,4.5944,4.5906,4.5893,4.5847,4.5814,4.58,4.58,4.58,4.58,4.58,4.58,4.58,4.58,4.58,4.58,4.58,4.58,4.6283,4.7366,4.9107,4.9513,5.0074,5.0887,5.0906,5.0906,5.0906,5.0906,5.0906,5.0906,5.0906,5.0906,1.8673,0.0,0.0,0.0,0.0,0.0,0.0,0.0,0.0,0.0,0.0,0.0,0.0,0.0,0.0,0.0,0.0,0.0,0.0,0.0,4.0288,4.1011,4.0464,4.0306,4.1035,4.1091,4.1091,4.1108,4.0366,4.0268,4.1049,4.0346,4.0288,4.1069,4.1108,4.1108,4.1108,4.0366,4.0015,3.9998,3.9217,3.8378,3.7538,3.736,3.6813,3.6088,3.775,3.8902,3.9644,4.0581,4.0971,4.0991,4.1069,4.1576,4.2279,4.2279,4.2746,4.3378,4.3366,4.3387,4.3396,4.3393,4.3986,4.4695,4.4773,4.5317,4.5899,4.5977,4.5997,4.5997,4.5997,4.5997,4.5997,4.5997,4.5994,4.5991,4.5991,4.5949,4.5905,4.5905,4.5899,4.5893,4.5893,4.5847,4.58,4.58,4.58,4.58,4.58,4.58,4.58,4.58,4.58,4.58,4.58,4.58,4.58,4.58,4.58,4.6554,4.8217,4.9126,4.9997,5.0887,5.0906,5.0906,5.0906,5.0906,5.0906,5.0906,5.0906,5.0906,0.0,2.1029,0.0,0.0,0.0,0.0,0.0,0.0,0.0,0.0,0.0,0.0,0.0,0.0,0.0,0.0,0.0,0.0,0.0,0.0,0.0,0.0,4.0976,4.0917,4.1073,4.1108,4.1101,4.1091,4.0932,4.0893,4.1088,4.0912,4.0912,4.1088,4.1108,4.1108,4.1108,4.0932,4.084,0.0,4.0656,4.0129,3.9287,3.7912,3.6813,3.6049,3.7126,3.7672,3.7946,3.9468,4.0073,4.0151,4.0834,4.1205,4.1381,4.1381,4.1496,4.164,4.164,4.2045,4.2565,4.2571,4.31,4.3918,4.4598,4.4928,4.5181,4.5822,4.5997,4.5997,4.5997,4.5997,4.5997,4.5997,4.5994,4.5991,4.5991,4.5949,4.5905,4.5899,4.5906,4.5893,4.5827,4.5814,4.58,4.58,4.58,4.58,4.58,4.58,4.58,4.58,4.58,4.58,4.58,4.58,4.58,4.58,4.58,4.6283,4.7347,4.8217,4.9378,5.0867,5.0906,5.0906,5.0906,5.0906,5.0906,5.0906,5.0906,5.0906,0.0,0.0,0.0,0.0,0.0,0.0,0.0,0.0,0.0,0.0,0.0,0.0,0.0,0.0,0.0,0.0,0.0,0.0,0.0,0.0,0.0,0.0,0.0,3.9902,3.9902,4.0272,4.0524,4.0521,4.0887,4.1097,4.1111,4.1108,4.1108,4.1108,4.1108,4.1108,4.1108,4.1121,4.1146,4.1146,4.1146,4.0716,3.9838,3.8094,3.6819,3.6049,3.6911,3.7301,3.7438,3.9136,3.9839,3.9897,4.0756,4.1108,4.1108,4.1108,4.1099,4.1108,4.1093,4.1361,4.1722,4.1694,4.2233,4.3002,4.3433,4.384,4.4268,4.4695,4.4782,4.4849,4.5276,4.5382,4.5467,4.5856,4.5941,4.5949,4.5949,4.5893,4.5854,4.586,4.5847,4.5847,4.5814,4.58,4.58,4.58,4.58,4.58,4.58,4.58,4.58,4.58,4.58,4.58,4.58,4.58,4.58,4.58,4.58,4.6187,4.7057,4.754,4.8585,5.0287,5.0712,5.0906,5.0906,5.0906,5.0906,5.0906,5.0906,5.0906,0.0,0.0,0.0,0.0,0.0,0.0,0.0,0.0,0.0,0.0,0.0,0.0,0.0,0.0,0.0,0.0,0.0,0.0,0.0,0.0,0.0,0.0,0.0,0.0,3.8593,3.9258,3.9687,3.9687,4.0292,4.0736,4.0882,4.0879,4.0957,4.1094,4.1094,4.1091,4.1108,4.1167,4.119,4.1207,4.1207,4.0737,3.9859,3.8415,3.718,3.6253,3.6994,3.7207,3.7207,3.8785,3.9429,3.9468,4.0327,4.0678,4.0698,4.0834,4.0893,4.0918,4.1051,4.1093,4.1094,4.1042,4.1499,4.2089,4.2169,4.2704,4.3306,4.3442,4.3441,4.3566,4.4292,4.4591,4.4878,4.5537,4.5808,4.5905,4.5905,4.5854,4.58,4.58,4.58,4.58,4.58,4.58,4.58,4.58,4.58,4.58,4.58,4.58,4.58,4.58,4.58,4.58,4.58,4.58,4.58,4.58,4.58,4.6109,4.6844,4.7018,4.7773,4.9223,5.0055,5.0538,5.0693,5.0693,5.0693,5.0712,5.0848,5.0751,0.0,0.0,0.0,0.0,0.0,0.0,0.0,0.0,0.0,0.0,0.0,0.0,0.0,0.0,0.0,0.0,0.0,0.0,0.0,0.0,0.0,0.0,0.0,0.0,3.8598,3.8703,3.8766,3.8766,3.8866,3.9258,4.0019,4.0055,4.0384,4.1086,4.1105,4.1101,4.1108,4.1114,4.1144,4.1191,4.1191,4.0742,3.9883,3.9668,3.8672,3.7128,3.7242,3.6868,3.6243,3.7248,3.7633,3.7711,3.859,3.8941,3.9039,3.978,4.0054,4.0151,4.086,4.1094,4.1097,4.1084,4.1127,4.1295,4.1995,4.2276,4.2518,4.3214,4.3416,4.3435,4.3552,4.4122,4.4723,4.4839,4.5376,4.5906,4.5906,4.586,4.58,4.58,4.58,4.58,4.58,4.58,4.58,4.58,4.58,4.58,4.58,4.58,4.58,4.58,4.58,4.58,4.58,4.58,4.58,4.58,4.58,4.5838,4.5974,4.6689,4.7212,4.7444,4.8295,4.9107,4.9861,4.9861,4.9861,4.9881,5.0577,5.0132,1.5656,0.0,0.0,0.0,0.0,0.0,0.0,0.0,0.0,0.0,0.0,0.0,0.0,0.0,0.0,0.0,0.0,0.0,0.0,0.0,0.0,0.0,0.0,0.0,0.0,3.758,3.7878,3.7878,3.8329,3.876,3.9154,3.9178,3.9336,3.9687,4.0175,4.0427,4.0425,4.0913,4.1169,4.1191,4.1191,4.0996,4.0625,4.0625,3.9687,3.8008,3.7519,3.7089,3.6757,3.7145,3.7297,3.7391,3.8268,3.86,3.8659,3.9029,3.9479,3.9947,4.0301,4.073,4.1101,4.1101,4.1074,4.1129,4.1438,4.1498,4.1543,4.19,4.1966,4.2063,4.2548,4.2942,4.3434,4.4408,4.4912,4.5305,4.575,4.5814,4.58,4.58,4.58,4.58,4.58,4.58,4.58,4.58,4.58,4.58,4.58,4.58,4.58,4.58,4.58,4.58,4.58,4.58,4.58,4.58,4.58,4.58,4.58,4.6167,4.6361,4.6361,4.7715,4.8585,4.8972,4.8972,4.8972,4.8972,4.9339,4.9107,0.0,0.0,0.0,0.0,0.0,0.0,0.0,0.0,0.0,0.0,0.0,0.0,0.0,0.0,0.0,0.0,0.0,0.0,0.0,0.0,0.0,0.0,0.0,0.0,0.0,0.0,3.6638,3.6638,3.7458,3.8043,3.8258,3.8268,3.8371,3.8586,3.9235,3.9569,3.957,4.043,4.0976,4.1191,4.1191,4.1191,4.1191,4.1191,4.0488,3.9219,3.834,3.7832,3.7637,3.7637,3.7636,3.7692,3.8356,3.8454,3.8317,3.8766,3.9196,3.9625,4.0075,4.0485,4.0836,4.1051,4.0953,4.0801,4.0964,4.0971,4.0927,4.0939,4.0885,4.1001,4.1659,4.1918,4.237,4.3672,4.4291,4.4813,4.5626,4.58,4.58,4.58,4.58,4.58,4.58,4.58,4.58,4.58,4.58,4.58,4.58,4.58,4.58,4.58,4.58,4.58,4.58,4.58,4.58,4.58,4.58,4.58,4.58,4.58,4.58,4.58,4.7076,4.785,4.8063,4.8063,4.8063,4.8063,4.8295,4.8159,0.0,0.0,0.0,2.0118,0.0,0.0,0.0,0.0,0.0,0.0,3.1636,3.3158,3.2372,0.0,0.0,0.0,0.0,0.0,0.0,0.0,0.0,0.0,0.0,0.0,0.0,0.0,0.0,0.0,3.5642,3.6501,3.7321,3.736,3.7753,3.8573,3.8632,3.8663,3.8672,3.9531,4.0371,4.1191,4.1191,4.1191,4.1191,4.1191,4.1152,4.1016,4.0137,3.9297,3.8535,3.8535,3.8535,3.8535,3.8574,3.8105,3.7578,3.9219,3.9336,3.8906,4.0566,4.0625,4.0098,4.0937,4.0586,4.0019,4.0859,4.1055,4.0994,4.1001,4.0996,4.0996,4.1054,4.157,4.2131,4.2286,4.3492,4.4813,4.5626,4.58,4.58,4.58,4.58,4.58,4.58,4.58,4.58,4.58,4.58,4.58,4.58,4.58,4.58,4.58,4.58,4.58,4.58,4.58,4.58,4.58,4.58,4.58,4.58,4.58,4.58,4.58,4.5877,4.6341,4.7173,4.7173,4.7173,4.7192,4.8024,4.7502,0.0,0.0,0.0,1.8189,2.1035,2.3425,0.0,2.6504,2.8437,2.8688,2.9888,3.1142,3.1959,3.3025,3.3797,3.3797,0.0,0.0,0.0,0.0,0.0,0.0,0.0,0.0,0.0,0.0,0.0,0.0,0.0,3.5896,3.5642,3.6169,3.6618,3.6911,3.7465,3.8039,3.8591,3.9467,4.0051,4.0369,4.0896,4.1132,4.1133,4.1133,4.1152,4.1172,4.0879,4.0234,3.9394,3.8828,3.8594,3.8594,3.8594,3.8418,3.8203,3.8848,3.9219,3.9512,4.0156,4.0527,4.0781,4.1094,4.0976,4.0762,4.1074,4.1112,4.1062,4.1055,4.1026,4.1002,4.1002,4.1205,4.1663,4.2723,4.38,4.4813,4.5626,4.58,4.58,4.58,4.58,4.58,4.58,4.58,4.58,4.58,4.58,4.58,4.58,4.58,4.58,4.58,4.58,4.58,4.58,4.58,4.58,4.58,4.5805,4.581,4.581,4.5761,4.5761,4.581,4.5761,4.5911,4.6264,4.6264,4.6264,4.6264,4.6593,4.6399,0.9661,0.0,0.0,0.0,0.0,2.0874,2.2338,0.0,2.6016,2.7166,2.8051,2.9065,3.0482,3.1432,3.2191,3.2796,3.338,3.3668,0.0,0.0,0.0,0.0,0.0,0.0,0.0,0.0,0.0,0.0,0.0,0.0,3.5126,3.5405,3.5701,3.5991,3.6565,3.7276,3.816,3.8734,3.9318,3.991,4.0437,4.0832,4.1091,4.1093,4.1112,4.1171,4.1171,4.0859,4.0293,3.9707,3.9473,3.9473,3.9473,3.9297,3.9062,3.9355,3.9648,3.9941,4.0234,4.0527,4.0801,4.1094,4.0996,4.082,4.1113,4.1172,4.1133,4.1133,4.1097,4.1061,4.1042,4.1033,4.1432,4.3047,4.3859,4.4555,4.5667,4.588,4.5838,4.58,4.5838,4.5838,4.58,4.58,4.58,4.58,4.58,4.58,4.58,4.58,4.58,4.58,4.58,4.5805,4.5805,4.5771,4.5771,4.5771,4.5761,4.5765,4.5765,4.5715,4.5715,4.5765,4.5715,4.5712,4.5771,4.5805,4.5805,4.5771,4.5805,4.5805,0.0,0.0,0.0,0.0,0.0,0.0,2.1028,0.0,2.3437,2.5135,2.6201,2.7089,2.7906,2.8787,2.994,3.169,3.2051,3.1797,3.0955,3.0838,0.0,0.0,0.0,0.0,0.0,0.0,0.0,0.0,3.412,3.4991,3.5752,3.5106,3.5096,3.5932,3.5991,3.6409,3.724,3.729,3.8141,3.9819,3.9858,4.0288,4.1052,4.1064,4.1087,4.1107,4.1107,4.115,4.1191,4.1191,4.1191,4.1191,4.1191,4.0684,4.0039,4.0898,4.0664,4.0059,4.0918,4.0644,4.0078,4.0937,4.0625,4.0098,4.0937,4.1191,4.1191,4.1191,4.1205,4.1186,4.1127,4.1099,4.1504,4.3097,4.3517,4.4053,4.5706,4.6034,4.5969,4.5833,4.591,4.5969,4.5819,4.5814,4.5814,4.58,4.58,4.5814,4.58,4.58,4.58,4.58,4.581,4.58,4.58,4.575,4.57,4.57,4.57,4.57,4.57,4.57,4.57,4.57,4.57,4.57,4.57,4.5765,4.5765,4.57,4.5765,4.5765,0.948,0.0,0.0,0.0,0.0,0.0,0.0,0.0,0.0,2.2383,2.4014,2.547,2.6961,2.791,2.8612,2.913,3.0788,3.1942,3.1709,3.167,3.1668,0.0,0.0,0.0,0.0,0.0,0.0,0.0,3.321,3.3526,3.3176,3.4133,3.4807,3.5041,3.5676,3.6111,3.635,3.6972,3.7536,3.8024,3.8668,3.9409,4.0229,4.0235,4.0547,4.1097,4.1097,4.1116,4.1121,4.1132,4.1152,4.1191,4.1191,4.1055,4.0879,4.1113,4.1055,4.0879,4.1113,4.1035,4.0879,4.1113,4.1035,4.0879,4.1066,4.1164,4.1188,4.1149,4.1123,4.1127,4.1108,4.1051,4.1309,4.2385,4.3082,4.383,4.4927,4.5685,4.6124,4.6026,4.6057,4.6065,4.6027,4.6028,4.5995,4.5963,4.5912,4.5854,4.581,4.5761,4.5727,4.5727,4.5731,4.5731,4.5731,4.5715,4.57,4.57,4.5703,4.5706,4.5706,4.5654,4.5654,4.5706,4.5654,4.5654,4.5706,4.5719,4.5715,4.57,4.5715,4.5715,0.0,0.0,0.0,0.0,0.0,0.0,0.0,1.6685,0.0,0.0,2.2034,2.3235,2.4962,2.5954,2.6618,2.6967,2.8604,3.0074,3.0812,3.1222,3.1456,0.0,0.0,0.0,0.0,3.2272,3.2563,3.2096,3.2497,3.2572,3.2114,3.3403,3.4156,3.4156,3.4992,3.5467,3.5467,3.6325,3.6931,3.7301,3.7809,3.8687,3.9858,3.9858,4.0307,4.1108,4.1108,4.1108,4.1091,4.1105,4.1111,4.1151,4.1152,4.1152,4.1152,4.1191,4.1191,4.1191,4.1169,4.1167,4.1168,4.1151,4.1151,4.1151,4.1101,4.1138,4.114,4.1107,4.1099,4.1108,4.1108,4.1074,4.1262,4.2136,4.2708,4.3383,4.4616,4.5318,4.5774,4.6045,4.6124,4.6119,4.6096,4.6113,4.6095,4.6038,4.6003,4.5964,4.5937,4.5841,4.5786,4.5786,4.5731,4.5703,4.5703,4.5668,4.5651,4.5651,4.5673,4.5657,4.5657,4.5622,4.5622,4.5657,4.5622,4.5622,4.5657,4.569,4.5703,4.5703,4.5668,4.5651,0.0,0.0,0.0,0.0,0.0,0.0,1.7015,1.6481,1.6405,0.0,0.0,2.0706,2.2285,2.3367,2.4255,2.4962,2.5971,2.7258,2.9011,2.9924,3.0416,0.0,0.0,0.0,3.0554,3.1331,3.1856,3.1856,3.1864,3.1882,3.1929,3.2775,3.3255,3.3259,3.4192,3.4705,3.4705,3.5564,3.6384,3.7165,3.7165,3.7985,3.9527,3.9624,4.0132,4.0952,4.1049,4.1108,4.1108,4.1108,4.1097,4.1107,4.1092,4.1094,4.1113,4.1172,4.1191,4.1171,4.1119,4.1091,4.1091,4.1103,4.1105,4.1105,4.1105,4.1099,4.1091,4.1103,4.1099,4.1108,4.1108,4.1108,4.1303,4.2064,4.2324,4.282,4.4379,4.4862,4.5187,4.585,4.6111,4.6203,4.6127,4.6119,4.6119,4.6102,4.6102,4.6102,4.6093,4.5975,4.5893,4.5893,4.5781,4.5693,4.5693,4.564,4.5586,4.5586,4.5586,4.5586,4.5586,4.5586,4.5586,4.5586,4.5586,4.5586,4.5586,4.5657,4.5693,4.5693,4.564,4.5586,0.0,0.0,0.0,0.0,0.0,0.0,1.5048,1.5676,1.6644,0.0,1.7967,1.8723,1.9753,2.123,2.2312,2.242,2.4291,2.6353,2.8105,2.85,2.8604,0.0,0.0,0.0,2.9641,3.0438,3.0943,3.0943,3.095,3.0951,3.0962,3.1851,3.2342,3.2358,3.3877,3.4705,3.4705,3.5564,3.6088,3.6247,3.6247,3.6794,3.7809,3.8512,3.9273,4.0093,4.0795,4.1108,4.1108,4.1108,4.1091,4.1094,4.1097,4.1103,4.111,4.111,4.1129,4.1128,4.1105,4.1099,4.1111,4.1094,4.1094,4.1094,4.1094,4.1091,4.1111,4.1094,4.1091,4.1108,4.1108,4.1108,4.1147,4.1303,4.1892,4.25,4.2829,4.4016,4.5047,4.5191,4.5796,4.6288,4.6264,4.6264,4.625,4.6196,4.613,4.6068,4.6036,4.591,4.5827,4.5827,4.57,4.5622,4.5622,4.5622,4.5586,4.5586,4.5586,4.5586,4.5586,4.5586,4.5586,4.5586,4.5586,4.5586,4.5586,4.5603,4.5622,4.5622,4.5622,4.5586,0.0,0.0,0.0,1.6376,0.0,0.0,0.0,0.0,1.6419,1.7675,1.7595,1.7689,1.8966,0.0,2.0611,2.099,2.2494,2.4053,2.5337,2.6992,2.8092,0.0,0.0,0.0,2.8748,2.9156,2.9583,3.001,3.0457,3.0697,3.0698,3.1156,3.1393,3.1408,3.2709,3.3406,3.3406,3.4703,3.5349,3.5369,3.5798,3.6462,3.7301,3.775,3.8629,3.9819,4.0268,4.0698,4.1108,4.1108,4.1108,4.1108,4.1108,4.1094,4.1099,4.1099,4.1099,4.1099,4.1099,4.1097,4.1108,4.1108,4.1108,4.1108,4.1108,4.1108,4.1108,4.1108,4.1108,4.1108,4.1108,4.1108,4.1108,4.1108,4.1423,4.1869,4.2318,4.343,4.4484,4.4914,4.5695,4.63,4.63,4.63,4.6292,4.625,4.6226,4.6201,4.6157,4.6035,4.5917,4.5859,4.5766,4.5668,4.5603,4.5586,4.5586,4.5586,4.5586,4.5586,4.5586,4.5586,4.5586,4.5586,4.5586,4.5586,4.5586,4.5586,4.5586,4.5586,4.5586,4.5586,0.0,0.0,0.0,0.0,0.0,1.8808,0.0,0.0,0.0,0.0,0.0,0.0,0.0,0.0,0.0,0.0,0.0,0.0,0.0,0.0,0.0,0.0,0.0,0.0,2.7595,2.7615,2.8042,2.9078,2.9505,2.994,3.0451,3.0477,3.0547,3.0709,3.1612,3.2097,3.2097,3.3812,3.47,3.4703,3.5578,3.6362,3.7067,3.7223,3.8043,3.9331,3.9663,4.019,4.0854,4.103,4.1108,4.1108,4.1108,4.1108,4.1108,4.1108,4.1108,4.1108,4.1108,4.1108,4.1108,4.1108,4.1108,4.1108,4.1108,4.1108,4.1108,4.1108,4.1108,4.1108,4.1108,4.1108,4.1108,4.1108,4.1108,4.1283,4.2006,4.2825,4.3704,4.4582,4.5441,4.6105,4.6261,4.63,4.63,4.63,4.63,4.63,4.63,4.6181,4.6049,4.591,4.5835,4.5742,4.5603,4.5586,4.5586,4.5586,4.5586,4.5586,4.5586,4.5586,4.5586,4.5586,4.5586,4.5586,4.5586,4.5586,4.5586,4.5586,4.5586,4.5586,0.0,0.0,0.0,0.0,2.085,0.0,0.0,0.0,0.0,0.0,0.0,0.0,0.0,0.0,0.0,0.0,0.0,0.0,0.0,0.0,0.0,0.0,0.0,0.0,0.0,2.5886,2.6533,2.812,2.6961,2.7187,2.951,2.9647,2.9994,3.0755,3.1641,3.2094,3.2094,3.3775,3.4647,3.4706,3.5522,3.5997,3.6169,3.695,3.7399,3.7672,3.9156,3.9858,4.0015,4.0776,4.1108,4.1108,4.1108,4.1108,4.1108,4.1108,4.1108,4.1108,4.1108,4.1108,4.1108,4.1108,4.1108,4.1108,4.1108,4.1108,4.1108,4.1108,4.1108,4.1108,4.1108,4.1108,4.1108,4.1108,4.1108,4.1127,4.1225,4.1927,4.2806,4.3684,4.4543,4.5382,4.6163,4.63,4.63,4.63,4.63,4.63,4.63,4.6181,4.6049,4.591,4.5835,4.5742,4.5603,4.5586,4.5586,4.5586,4.5586,4.5586,4.5586,4.5586,4.5586,4.5586,4.5586,4.5586,4.5586,4.5586,4.5586,4.5586,4.5586,4.5586,0.0,0.0,0.0,0.0,0.0,0.0,1.9319,0.0,1.9747,0.0,0.0,0.0,0.0,0.0,0.0,0.0,1.8594,0.0,0.0,0.0,0.0,0.0,0.0,0.0,0.0,0.0,0.0,0.0,2.5718,2.6306,2.7918,2.8903,2.9609,2.9971,3.0831,3.1524,3.2049,3.2781,3.3676,3.4702,3.5041,3.548,3.601,3.6384,3.6813,3.7379,3.857,3.937,3.9878,4.0737,4.1108,4.1108,4.1108,4.1108,4.1108,4.1108,4.1108,4.1108,4.1108,4.1108,4.1108,4.1108,4.1108,4.1108,4.1108,4.1108,4.1108,4.1108,4.1108,4.1108,4.1108,4.1108,4.1108,4.1108,4.1108,4.1108,4.1108,4.1771,4.2513,4.2864,4.4055,4.5129,4.548,4.5968,4.63,4.63,4.63,4.63,4.63,4.6245,4.615,4.6041,4.5998,4.5894,4.5727,4.5731,4.5684,4.5603,4.5586,4.5586,4.5586,4.5586,4.5586,4.5586,4.5586,4.5586,4.5586,4.5586,4.5586,4.5586,4.5586,4.5586,2.0934,0.0,0.0,0.0,0.0,0.0,0.0,0.0,0.0,0.0,0.0,0.0,0.0,0.0,0.0,0.0,0.0,1.7594,0.0,0.0,0.0,0.0,0.0,0.0,0.0,0.0,0.0,0.0,0.0,2.463,2.6456,2.7913,2.8923,2.9389,3.0251,3.1002,3.1644,3.2172,3.2937,3.396,3.4698,3.5236,3.5656,3.5871,3.632,3.6989,3.7867,3.8707,3.9546,4.0385,4.0873,4.1108,4.1104,4.1101,4.1101,4.1108,4.1108,4.1108,4.1108,4.1108,4.1108,4.1108,4.1108,4.1108,4.1108,4.1108,4.1108,4.1101,4.1101,4.1101,4.1074,4.1097,4.1101,4.1101,4.1104,4.1108,4.1108,4.1596,4.2103,4.235,4.3423,4.4434,4.4899,4.5707,4.63,4.63,4.63,4.63,4.6273,4.6273,4.6211,4.6096,4.6033,4.5949,4.58,4.5742,4.568,4.5603,4.5586,4.5586,4.5586,4.5586,4.5586,4.5586,4.5586,4.5586,4.5586,4.5586,4.5586,4.5586,4.5586,4.5586,0.0,0.0,0.0,1.9921,0.0,0.0,0.0,0.0,2.0573,0.0,0.0,0.0,0.0,0.0,0.0,0.0,0.0,0.0,0.0,0.0,0.0,0.0,0.0,0.0,0.0,0.0,2.0357,0.0,2.0784,0.0,2.5426,2.6495,2.7718,2.935,3.0243,3.0717,3.0736,3.2426,3.2875,3.2116,3.464,3.5474,3.4765,3.5561,3.5958,3.6088,3.697,3.7848,3.871,3.9507,4.0346,4.1108,4.1105,4.1096,4.1096,4.1101,4.1108,4.1108,4.1108,4.1108,4.1108,4.1108,4.1108,4.1108,4.1108,4.1108,4.1104,4.11,4.1096,4.1091,4.1019,4.1056,4.1096,4.1096,4.1094,4.1108,4.1108,4.1127,4.1397,4.2232,4.2442,4.3002,4.4631,4.5685,4.63,4.63,4.63,4.6273,4.6211,4.6206,4.6151,4.6027,4.5891,4.5789,4.5696,4.5565,4.555,4.5605,4.5586,4.5586,4.5586,4.5586,4.5586,4.5586,4.5586,4.5586,4.5586,4.5586,4.5586,4.5586,4.5586,4.5586,0.0,0.0,2.3283,2.0722,0.0,0.0,0.0,0.0,0.0,0.0,0.0,0.0,0.0,0.0,0.0,0.0,0.0,0.0,0.0,0.0,0.0,0.0,0.0,0.0,0.0,0.0,0.0,0.0,1.991,0.0,0.0,2.4941,2.6553,2.7699,2.9117,3.0399,3.1545,3.1566,3.2305,3.3725,3.4035,3.4642,3.5495,3.5788,3.5909,3.5973,3.685,3.7401,3.7791,3.9214,3.9975,4.0287,4.0836,4.1056,4.1096,4.1105,4.1109,4.1109,4.1104,4.1108,4.1108,4.1108,4.1101,4.1109,4.1109,4.1076,4.1022,4.1031,4.1025,4.1025,4.1013,4.1019,4.1025,4.1025,4.1037,4.1022,4.1022,4.1022,4.112,4.1421,4.1947,4.2512,4.3085,4.4409,4.5571,4.6156,4.6234,4.6228,4.6196,4.6196,4.615,4.6018,4.5968,4.5859,4.5654,4.551,4.5438,4.5476,4.5476,4.5476,4.5476,4.5513,4.5531,4.5531,4.5568,4.5586,4.5586,4.5586,4.5586,4.5586,4.5586,4.5586,2.3161,2.3618,0.0,2.1483,2.1352,0.0,1.9986,0.0,0.0,0.0,0.0,0.0,0.0,0.0,0.0,0.0,0.0,0.0,0.0,1.3241,0.0,0.0,0.0,0.0,0.0,0.0,1.7482,1.8721,1.8997,0.0,0.0,0.0,2.5679,2.6864,2.8534,3.0088,3.1525,3.1294,3.2007,3.3679,3.3706,3.4327,3.5443,3.5755,3.5897,3.5928,3.6493,3.6902,3.7311,3.8753,3.9519,3.9889,4.0682,4.1039,4.1064,4.1086,4.1091,4.1096,4.1094,4.1074,4.1066,4.1066,4.1057,4.1061,4.1061,4.1025,4.1007,4.0993,4.0993,4.0986,4.0979,4.0979,4.0993,4.0993,4.1,4.0994,4.0994,4.0994,4.1007,4.0993,4.1441,4.1928,4.2225,4.3199,4.4355,4.5553,4.6001,4.6169,4.6111,4.6083,4.6027,4.5902,4.5847,4.5742,4.5543,4.5456,4.54,4.54,4.54,4.54,4.54,4.5438,4.5457,4.5457,4.5513,4.5531,4.5531,4.5531,4.5531,4.5531,4.5531,4.5531]},{"header":{"parameterUnit":"m.s-1","parameterCategory":1,"la1":30.6,"la2":29.2853,"lo1":-89.7004,"lo2":-87.6739,"dy":0.0162,"dx":0.0183,"nx":112,"ny":82,"refTime":"2025-09-05T12:00:00:Z","depth":0,"parameterNumber":3,"parameterNumberName":"V-component_of_WINDS"},"data":[0.0,0.0,0.0,0.0,0.0,0.0,0.0,0.0,0.0,0.0,0.0,0.0,0.0,0.0,0.0,0.0,0.0,0.0,0.0,0.0,0.0,0.0,0.0,0.0,0.0,0.0,0.0,0.0,0.0,0.0,0.0,0.0,0.0,0.0,0.0,0.0,0.0,0.0,0.0,0.0,0.0,0.0,0.0,0.0,0.0,0.0,0.0,0.0,0.0,0.0,0.0,0.0,0.0,0.0,0.0,0.0,0.0,0.0,0.0,0.0,0.0,0.0,0.0,0.0,0.0,0.0,0.0,0.0,0.0,0.0,0.0,0.0,0.0,0.0,0.0,0.0,0.0,0.0,0.0,0.0,0.0,0.0,0.0,0.0,0.0,0.0,0.0,0.0,0.0,0.0,0.0,-0.1043,-0.0419,0.0089,0.0175,0.104,0.1607,0.1787,0.0,0.0,0.0,0.0,0.0,0.0,0.0,0.0,0.0,0.0,0.0,0.0,0.0,0.0,0.0,0.0,0.0,0.0,0.0,0.0,0.0,0.0,0.0,0.0,0.0,0.0,0.0,0.0,0.0,0.0,0.0,0.0,0.0,0.0,0.0,0.0,0.0,0.0,0.0,0.0,0.0,0.0,0.0,0.0,0.0,0.0,0.0,0.0,0.0,0.0,0.0,0.0,0.0,0.0,0.0,0.0,0.0,0.0,0.0,0.0,0.0,0.0,0.0,0.0,0.0,0.0,0.0,0.0,0.0,0.0,0.0,0.0,0.0,0.0,0.0,0.0,0.0,0.0,0.0,0.0,0.0,0.0,0.0,0.0,0.0,0.0,0.0,0.0,0.0,0.0,0.0,0.0,0.0,0.0,0.0,0.0,0.0,0.0,0.0,0.0,0.0,0.0,0.0,0.0,-0.0771,-0.025,-0.0088,0.0358,0.1158,0.1896,0.2239,0.1882,0.0,0.0,0.0,0.0,0.0,0.0,0.0,0.0,0.0,0.0,0.0,0.0,0.0,0.0,0.0,0.0,0.0,0.0,0.0,0.0,0.0,0.0,0.0,0.0,0.0,0.0,0.0,0.0,0.0,0.0,0.0,0.0,0.0,0.0,0.0,0.0,0.0,0.0,0.0,0.0,0.0,0.0,0.0,0.0,0.0,0.0,0.0,0.0,0.0,0.0,0.0,0.0,0.0,0.0,0.0,0.0,0.0,0.0,0.0,0.0,0.0,0.0,0.0,0.0,0.0,0.0,0.0,0.0,0.0,0.0,0.0,0.0,0.0,0.0,0.0,0.0,0.0,0.0,0.0,0.0,0.0,0.0,0.0,0.0,0.0,0.0,0.0,0.0,0.0,0.0,0.0,0.0,0.0,0.0,0.0,0.0,0.0,0.0,0.0,0.0,0.0,0.0,0.0,-0.0594,-0.0222,-0.0,0.098,0.1702,0.2149,0.2928,0.3182,0.2627,0.2302,0.0,0.0,0.0,0.0,0.0,0.0,0.0,0.0,0.0,0.0,0.0,0.0,0.0,0.0,0.0,0.0,0.0,0.0,0.0,0.0,0.0,0.0,0.0,0.0,0.0,0.0,0.0,0.0,0.0,0.0,0.0,0.0,0.0,0.0,0.0,0.0,0.0,0.0,0.0,0.0,0.0,0.0,0.0,0.0,0.0,0.0,0.0,0.0,0.0,0.0,0.0,0.0,0.0,0.0,0.0,0.0,0.0,0.0,0.0,0.0,0.0,0.0,0.0,0.0,0.0,0.0,0.0,0.0,0.0,0.0,0.0,0.0,0.0,0.0,0.0,0.0,0.0,0.0,0.0,0.0,0.0,0.0,0.0,0.0,0.0,0.0,0.0,0.0,0.0,0.0,0.0,0.0,0.0,0.0,0.0,0.0,0.0,0.0,0.0,0.0,0.0,0.0,-0.0372,0.0236,0.0354,0.1881,0.2952,0.3204,0.3643,0.3726,0.3226,0.2817,0.0,0.0,0.0,0.0,0.0,0.0,0.0,0.0,0.0,0.0,0.0,0.0,0.0,0.0,0.0,0.0,0.0,0.0,0.0,0.0,0.0,0.0,0.0,0.0,0.0,0.0,0.0,0.0,0.0,0.0,0.0,0.0,0.0,0.0,0.0,0.0,0.0,0.0,0.0,0.0,0.0,0.0,0.0,0.0,0.0,0.0,0.0,0.0,0.0,0.0,0.0,0.0,0.0,0.0,0.0,0.0,0.0,0.0,0.0,0.0,0.0,0.0,0.0,0.0,0.0,0.0,0.0,0.0,0.0,0.0,0.0,0.0,0.0,0.0,0.0,0.0,0.0,0.0,0.0,0.0,0.0,0.0,0.0,0.0,0.0,0.0,0.0,0.0,0.0,0.0,0.0,0.0,0.0,0.0,0.0,0.0,0.0,0.0,0.0,0.0,0.0,0.0,-0.0376,0.0414,0.1244,0.2238,0.3201,0.4013,0.3778,0.3495,0.3124,0.2603,0.0,0.0,0.0,0.0,0.0,0.0,0.0,0.0,0.0,0.0,0.0,0.0,0.0,0.0,0.0,0.0,0.0,0.0,0.0,0.0,0.0,0.0,0.0,0.0,0.0,0.0,0.0,0.0,0.0,0.0,0.0,0.0,0.0,0.0,0.0,0.0,0.0,0.0,0.0,0.0,0.0,0.0,0.0,0.0,0.0,0.0,0.0,0.0,0.0,0.0,0.0,0.0,0.0,0.0,0.0,0.0,0.0,0.0,0.0,0.0,0.0,0.0,0.0,0.0,0.0,0.0,0.0,0.0,0.0,0.0,0.0,0.0,0.0,0.0,0.0,0.0,0.0,0.0,0.0,0.0,0.0,0.0,0.0,0.0,0.0,0.0,0.0,0.0,0.0,0.0,0.0,0.0,0.0,0.0,0.0,0.0,0.0,0.0,0.0,0.0,0.0,0.0,0.022,0.121,0.0,0.2864,0.3909,0.4179,0.3942,0.3595,0.312,0.0,0.0,0.0,0.0,0.0,0.0,0.0,0.0,0.0,0.0,0.0,0.0,0.0,0.0,0.0,0.0,0.0,0.0,0.0,0.0,0.0,0.0,0.0,0.0,0.0,0.0,0.0,0.0,0.0,0.0,0.0,0.0,0.0,0.0,0.0,0.0,0.0,0.0,0.0,0.0,0.0,0.0,0.0,0.0,0.0,0.0,0.0,0.0,0.0,0.0,0.0,0.0,0.0,0.0,0.0,0.0,0.0,0.0,0.0,0.0,0.0,0.0,0.0,0.0,0.0,0.0,0.0,0.0,0.0,0.0,0.0,0.0,0.0,0.0,0.0,0.0,0.0,0.0,0.0,0.0,0.0,0.0,0.0,0.0,0.0,0.0,0.0,0.0,0.0,0.0,0.0,0.0,0.0,0.0,0.0,0.0,0.0,0.0,0.0,0.0,0.0,0.0,-0.0714,0.066,0.1699,0.0,0.3298,0.4253,0.4138,0.3989,0.3639,0.3079,0.0,0.0,0.0,0.0,0.0,0.0,0.0,0.0,0.0,0.0,0.0,0.0,0.0,0.0,0.0,0.0,0.0,0.0,0.0,0.0,0.0,0.0,0.0,0.0,0.0,0.0,0.0,0.0,0.0,0.0,0.0,0.0,0.0,0.0,0.0,0.0,0.0,0.0,0.0,0.0,0.0,0.0,0.0,0.0,0.0,0.0,0.0,0.0,0.0,0.0,0.0,0.0,0.0,0.0,0.0,0.0,0.0,0.0,0.0,0.0,0.0,0.0,0.0,0.0,0.0,0.0,0.0,0.0,0.0,0.0,0.0,0.0,0.0,0.0,0.0,0.0,0.0,0.0,0.0,0.0,0.0,0.0,0.0,0.0,0.0,0.0,0.0,0.0,0.0,0.0,0.0,0.0,0.0,0.0,0.0,0.0,0.0,0.0,0.0,0.0,0.0,0.0,0.0127,0.0986,0.1779,0.2596,0.3624,0.4226,0.405,0.3857,0.3548,0.0,0.0,0.0,0.0,0.0,0.0,0.0,0.0,0.0,0.0,0.0,0.0,0.0,0.0,0.0,0.0,0.0,0.0,0.0,0.0,0.0,0.0,0.0,0.0,0.0,0.0,0.0,0.0,0.0,0.0,0.0,0.0,0.0,0.0,0.0,0.0,0.0,0.0,0.0,0.0,0.0,0.0,0.0,0.0,0.0,0.0,0.0,0.0,0.0,0.0,0.0,0.0,0.0,0.0,0.0,0.0,0.0,0.0,0.0,0.0,0.0,0.0,0.0,0.0,0.0,0.0,0.0,0.0,0.0,0.0,0.0,0.0,0.0,0.0,0.0,0.0,0.0,0.0,0.0,0.0,0.0,0.0,0.0,0.0,0.0,0.0,0.0,0.0,0.0,0.0,0.0,0.0,0.0,0.0,0.0,0.0,0.0,0.0,0.0,0.0,0.0,0.0,0.0,0.0191,0.1516,0.2456,0.2683,0.358,0.4163,0.4044,0.3917,0.3619,0.3104,0.0,0.0,0.0,0.0,0.0,0.0,0.0,0.0,0.0,0.0,0.0,0.0,0.0,0.0,0.0,0.0,0.0,0.0,0.0,0.0,0.0,0.0,0.0,0.0,0.0,0.0,0.0,0.0,0.0,0.0,0.0,0.0,0.0,0.0,0.0,0.0,0.0,0.0,0.0,0.0,0.0,0.0,0.0,0.0,0.0,0.0,0.0,0.0,0.0,0.0,0.0,0.0,0.0,0.0,0.0,0.0,0.0,0.0,0.0,0.0,0.0,0.0,0.0,0.0,0.0,0.0,0.0,0.0,0.0,0.0,0.0,0.0,0.0,0.0,0.0,0.0,0.0,0.0,0.0,0.0,0.0,0.0,0.0,0.0,0.0,0.0,0.0,0.0,0.0,0.0,0.0,0.0,0.0,0.0,0.0,0.0,0.0,0.0,0.0,0.0,0.0,0.0,0.0689,0.1959,0.2859,0.3126,0.3867,0.4291,0.4076,0.4077,0.3882,0.3353,0.0,0.0,0.0,0.0,0.0,0.0,0.0,0.0,0.0,0.0,0.0,0.0,0.0,0.0,0.0,0.0,0.0,0.0,0.0,0.0,0.0,0.0,0.0,0.0,0.0,0.0,0.0,0.0,0.0,0.0,0.0,0.0,0.0,0.0,0.0,0.0,0.0,0.0,0.0,0.0,0.0,0.0,0.0,0.0,0.0,0.0,0.0,0.0,0.0,0.0,0.0,0.0,0.0,0.0,0.0,0.0,0.0,0.0,0.0,0.0,0.0,0.0,0.0,0.0,0.0,0.0,0.0,0.0,0.0,0.0,0.0,0.0,0.0,0.0,0.0,0.0,0.0,0.0,0.0,0.0,0.0,0.0,0.0,0.0,0.0,0.0,0.0,0.0,0.0,0.0,0.0,0.0,0.0,0.0,0.0,0.0,0.0,0.0,0.0,0.0,0.0,0.0,0.1405,0.2315,0.3164,0.3826,0.4221,0.4424,0.4243,0.4428,0.4272,0.3649,0.0,0.0,0.0,0.0,0.0,0.0,0.0,0.0,0.0,0.0,0.0,0.0,0.0,0.0,0.0,0.0,0.0,0.0,0.0,0.0,0.0,0.0,0.0,0.0,0.0,0.0,0.0,0.0,0.0,0.0,0.0,0.0,0.0,0.0,0.0,0.0,0.0,0.0,0.0,0.0,0.0,0.0,0.0,0.0,0.0,0.0,0.0,0.0,0.0,0.0,0.0,0.0,0.0,0.0,0.0,0.0,0.0,0.0,0.0,0.0,0.3168,0.0,0.0,0.0,0.0,0.0,0.0,0.0,0.0,0.0,0.0,0.0,0.0,0.0,0.0,0.0,0.0,0.0,0.0,0.0,0.0,0.0,0.0,0.0,0.0,0.0,0.0,0.0,0.0,0.0,0.0,0.0,0.0,0.0,0.0,0.0,0.0,0.0,0.0,0.0,0.0,0.0,0.1467,0.2838,0.3833,0.4074,0.4244,0.4347,0.4394,0.4503,0.4302,0.3951,0.3633,0.0,0.0,0.0,0.0,0.0,0.0,0.0,0.0,0.0,0.0,0.0,0.0,0.0,0.0,0.0,0.0,0.0,0.0,0.0,0.0,0.0,0.0,0.0,0.0,0.0,0.0,0.0,0.0,0.0,0.0,0.0,0.0,0.0,0.0,0.0,0.0,0.0,0.0,0.0,0.0,0.0,0.0,0.0,0.0,0.0,0.0,0.0,0.0,0.0,0.0,0.0,0.0,0.0,0.0,0.0,0.0,0.0,0.0,0.0,0.0,0.3332,0.0,0.0,0.0,0.0,0.0,0.0,0.0,0.0,0.0,0.0,0.0,0.0,0.0,0.0,0.0,0.0,0.0,0.0,0.0,0.0,0.0,0.0,0.0,0.0,0.0,0.0,0.0,0.0,0.0,0.0,0.0,0.0,0.0,0.0,0.0,0.0,0.0,0.0,0.0,0.0,0.2164,0.3411,0.4331,0.4396,0.4557,0.4639,0.4562,0.463,0.458,0.4343,0.3951,0.0,0.0,0.0,0.0,0.0,0.0,0.0,0.0,0.0,0.0,0.0,0.0,0.0,0.0,0.0,0.0,0.0,0.0,0.0,0.0,0.0,0.0,0.0,0.0,0.0,0.0,0.0,0.0,0.0,0.0,0.0,0.0,0.0,0.0,0.0,0.0,0.0,0.0,0.0,0.0,0.0,0.0,0.0,0.0,0.0,0.0,0.0,0.0,0.0,0.0,0.0,0.0,0.0,0.3698,0.3804,0.4032,0.3951,0.3987,0.4108,0.3814,0.3819,0.4019,0.0,0.0,0.0,0.0,0.0,0.0,0.0,0.0,0.0,0.0,0.0,0.0,0.0,0.0,0.0,0.0,0.0,0.0,0.0,0.0,0.0,0.0,0.0,0.0,0.0,0.0368,0.0444,0.0,0.0,0.0,0.0,0.0,0.0,0.0,0.0,0.0,0.0,0.0,0.0,0.2943,0.4015,0.4668,0.4661,0.4899,0.4956,0.4826,0.478,0.4814,0.4692,0.4289,0.3988,0.0,0.0,0.0,0.0,0.0,0.0,0.0,0.0,0.0,0.0,0.0,0.0,0.0,0.0,0.0,0.0,0.0,0.0,0.0,0.0,0.0,0.0,0.0,0.0,0.0,0.0,0.0,0.0,0.0,0.0,0.0,0.0,0.2771,0.2695,0.0,0.0,0.0,0.0,0.0,0.0,0.0,0.0,0.0,0.0,0.0,0.0,0.0,0.3602,0.3852,0.3884,0.3975,0.4153,0.4391,0.4518,0.4541,0.4461,0.4479,0.45,0.4438,0.0,0.3989,0.385,0.0,0.0,0.0,0.0,0.0,0.0,0.0,0.0,0.0,0.0,0.0,0.0,0.0,0.0,0.0,0.0,0.0,0.0,0.0,0.0,0.0,0.0,0.0973,0.0319,0.0731,0.1476,0.0,0.1898,0.1546,0.1503,0.1546,0.0,0.0,0.0,0.0,0.0,0.0,0.0,0.3233,0.4133,0.478,0.5009,0.503,0.5072,0.5095,0.5059,0.4942,0.4817,0.4651,0.4412,0.4083,0.3806,0.0,0.0,0.0,0.0,0.0,0.0,0.0,0.0,0.0,0.0,0.0,0.0,0.0,0.0,0.0,0.0,0.0,0.0,0.0,0.0,0.0,0.0,0.0,0.0,0.0,0.0,0.0,0.0,0.0,0.2576,0.2837,0.2715,0.2756,0.269,0.0,0.0,0.0,0.0,0.0,0.0,0.0,0.0,0.0,0.4107,0.4073,0.4144,0.4335,0.4341,0.4357,0.44,0.4516,0.46,0.4649,0.4649,0.4675,0.4716,0.4669,0.4559,0.4395,0.4153,0.3899,0.365,0.0,0.0,0.0,0.0,0.3147,0.2995,0.252,0.223,0.0,0.133,0.0,0.0,0.0,0.0,0.0,0.0,0.0,0.0,0.0,0.0,0.0,0.1685,0.1972,0.2513,0.3306,0.3301,0.2903,0.0,0.2241,0.2145,0.1513,0.0,0.0,0.0,0.0,0.3682,0.3923,0.4698,0.5214,0.5299,0.5302,0.5228,0.5203,0.514,0.5061,0.4944,0.4822,0.4683,0.4526,0.4159,0.3827,0.0,0.0,0.0,0.0,0.0,0.0,0.0,0.0,0.0,0.0,0.0,0.0,0.0,0.0,0.0,0.0,0.0,0.0,0.0,0.0,0.0,0.0,0.0,0.0,0.0,0.0,0.0,0.0,0.2652,0.2932,0.2779,0.2938,0.2942,0.0,0.0,0.0,0.0,0.0,0.0,0.3625,0.3905,0.4095,0.436,0.4448,0.4514,0.4657,0.4658,0.4608,0.4608,0.4628,0.4675,0.4741,0.4741,0.4775,0.483,0.4769,0.4728,0.4687,0.4395,0.4181,0.4024,0.3887,0.3781,0.3724,0.3879,0.3877,0.3681,0.327,0.3118,0.2866,0.2132,0.0,0.1483,0.087,0.0,0.0,0.0,0.0,0.1756,0.1593,0.1908,0.2316,0.2789,0.3099,0.3479,0.4043,0.4206,0.398,0.0,0.3108,0.2933,0.2123,0.0,0.0,0.0,0.0,0.4232,0.4518,0.503,0.5475,0.5505,0.548,0.5464,0.5252,0.5205,0.5137,0.5023,0.4931,0.4866,0.4836,0.4461,0.4167,0.3985,0.0,0.0,0.0,0.0,0.0,0.0,0.0,0.0,0.0,0.0,0.0,0.0,0.0,0.0,0.0,0.0,0.0,0.0,0.0,0.0,0.0,0.0,0.0,0.0,0.0,0.0,0.0,0.0,0.0,0.3005,0.332,0.0,0.0,0.0,0.0,0.3399,0.3422,0.3589,0.3857,0.4042,0.4222,0.4402,0.4502,0.4557,0.4565,0.4657,0.4702,0.4702,0.4783,0.4824,0.4828,0.4828,0.483,0.4834,0.483,0.4783,0.47,0.4596,0.4496,0.4406,0.4398,0.4338,0.4271,0.4365,0.4344,0.4279,0.4294,0.4218,0.4004,0.3099,0.2307,0.162,0.1531,0.1249,0.0,0.0,0.1854,0.2098,0.1629,0.2807,0.3929,0.313,0.358,0.4208,0.4293,0.4293,0.4297,0.0,0.412,0.4055,0.3834,0.0,0.3815,0.3806,0.3986,0.4214,0.4661,0.4957,0.5244,0.5354,0.5441,0.5499,0.5371,0.5254,0.5137,0.5023,0.5012,0.4955,0.4838,0.47,0.4463,0.4115,0.3746,0.0,0.0,0.0,0.0,0.0,0.0,0.0,0.0,0.0,0.0,0.0,0.0,0.0,0.0,0.0,0.0,0.0,0.0,0.0,0.0,0.0,0.0,0.0,0.0,0.0,0.0,0.0,0.0,0.2478,0.266,0.0,0.2882,0.2717,0.2881,0.3697,0.3605,0.3688,0.4232,0.4363,0.4485,0.4608,0.4643,0.4687,0.4741,0.4773,0.479,0.479,0.482,0.4834,0.4834,0.4834,0.4834,0.4834,0.4834,0.4818,0.4688,0.436,0.4367,0.4524,0.4524,0.4504,0.4479,0.4512,0.4504,0.4471,0.4444,0.4393,0.4246,0.3593,0.2472,0.1474,0.1474,0.1628,0.1779,0.1963,0.2768,0.3508,0.3358,0.3827,0.421,0.3851,0.403,0.43,0.43,0.43,0.4271,0.4262,0.4199,0.4082,0.3912,0.3893,0.393,0.3812,0.4133,0.4382,0.4536,0.4891,0.5058,0.5097,0.5154,0.5175,0.5238,0.5126,0.5062,0.5029,0.4942,0.4844,0.4722,0.4599,0.4474,0.4346,0.3993,0.3632,0.0,0.0,0.0,0.0,0.0,0.0,0.0,0.0,0.0,0.0,0.0,0.0,0.0,0.0,0.0,0.0,0.0,0.0,0.0,0.0,0.0,0.0,0.0,0.0,0.0,0.0,0.2412,0.214,0.2363,0.2575,0.2664,0.2512,0.2775,0.3475,0.358,0.3783,0.4193,0.4472,0.4647,0.4706,0.4736,0.4777,0.4832,0.4834,0.4834,0.4834,0.4834,0.4834,0.4834,0.4834,0.4834,0.4834,0.4834,0.4834,0.4734,0.4435,0.447,0.4661,0.4467,0.4467,0.4661,0.4661,0.4643,0.4602,0.4293,0.4066,0.3867,0.352,0.2689,0.1973,0.2063,0.224,0.2508,0.2776,0.3492,0.4121,0.43,0.43,0.43,0.43,0.43,0.43,0.43,0.43,0.43,0.43,0.4255,0.4157,0.3975,0.4044,0.4083,0.3961,0.4265,0.4474,0.4474,0.4705,0.4921,0.4921,0.4921,0.5041,0.5072,0.4962,0.4902,0.4873,0.4787,0.468,0.4716,0.452,0.4414,0.4414,0.4058,0.3757,0.352,0.0,0.0,0.0,0.0,0.0,0.0,0.0,0.0,0.0,0.0,0.0,0.0,0.0,0.0,0.0,0.0,0.0,0.0,0.0,0.0,0.0,0.0,0.0,0.2403,0.2331,0.2261,0.221,0.2606,0.2798,0.2543,0.2681,0.2894,0.2862,0.3333,0.3736,0.3806,0.4371,0.4614,0.4712,0.4692,0.4734,0.4734,0.4834,0.4834,0.4834,0.4834,0.4834,0.4834,0.4834,0.4834,0.4834,0.4734,0.4734,0.4734,0.4734,0.4734,0.4734,0.4234,0.4334,0.4834,0.4734,0.4682,0.4586,0.3946,0.3335,0.2859,0.289,0.2869,0.296,0.3408,0.3227,0.3047,0.403,0.3942,0.3676,0.421,0.43,0.43,0.43,0.43,0.43,0.43,0.43,0.43,0.43,0.43,0.43,0.43,0.43,0.43,0.43,0.43,0.0,0.43,0.4569,0.4661,0.4661,0.4835,0.493,0.473,0.4613,0.4583,0.4709,0.4487,0.4481,0.4745,0.449,0.4306,0.4306,0.3955,0.3823,0.3818,0.0,0.0,0.0,0.0,0.0,0.0,0.0,0.0,0.0,0.0,0.0,0.0,0.0,0.0,0.0,0.0,0.0,0.0,0.0,0.0,0.0,0.0,0.2264,0.2306,0.2138,0.1917,0.1625,0.1762,0.1959,0.2277,0.2071,0.2206,0.2864,0.2849,0.3095,0.3789,0.3666,0.3804,0.4203,0.4223,0.4234,0.4234,0.4634,0.4834,0.4834,0.4834,0.4834,0.4834,0.4834,0.4834,0.4734,0.4433,0.4234,0.4234,0.3831,0.3833,0.4234,0.4533,0.4634,0.4734,0.4332,0.3886,0.3526,0.3296,0.287,0.2357,0.2402,0.2202,0.1921,0.1982,0.2153,0.2511,0.3136,0.3406,0.3676,0.421,0.43,0.43,0.43,0.43,0.43,0.43,0.43,0.43,0.43,0.43,0.43,0.43,0.43,0.43,0.43,0.43,0.0,0.43,0.4389,0.4389,0.4389,0.4476,0.4545,0.4671,0.4507,0.4496,0.4711,0.4489,0.4413,0.4572,0.4474,0.4423,0.4423,0.4243,0.4064,0.0,0.0,0.0,0.0,0.0,0.0,0.0,0.0,0.0,0.0,0.0,0.0,0.0,0.0,0.0,0.0,0.0,0.0,0.0,0.0,0.0,0.0,0.2013,0.2083,0.2235,0.1956,0.1658,0.1431,0.1436,0.153,0.1908,0.1654,0.1771,0.2273,0.242,0.2656,0.3272,0.321,0.3331,0.3632,0.3632,0.3732,0.4033,0.4334,0.4533,0.4834,0.4834,0.4834,0.4834,0.4533,0.4433,0.0,0.3932,0.3833,0.3932,0.3632,0.3732,0.0,0.0,0.0,0.0,0.0,0.3307,0.2776,0.2853,0.2435,0.1923,0.1963,0.1759,0.1567,0.1715,0.1974,0.2333,0.2778,0.3136,0.3406,0.3673,0.3851,0.4032,0.4032,0.4121,0.43,0.43,0.43,0.43,0.43,0.43,0.0,0.43,0.43,0.43,0.43,0.43,0.43,0.43,0.43,0.43,0.43,0.43,0.4374,0.4517,0.4335,0.0,0.0,0.0,0.4385,0.4474,0.4469,0.0,0.0,0.0,0.0,0.0,0.0,0.0,0.0,0.2306,0.1179,0.0,0.0,0.0,0.0,0.0,0.0,0.0,0.0,0.0,0.0,0.0,0.0,0.0,0.0,0.0,0.0,0.2047,0.197,0.2052,0.1705,0.1436,0.1436,0.1436,0.1447,0.1478,0.1484,0.151,0.1567,0.2065,0.2379,0.242,0.0,0.0,0.0,0.0,0.333,0.3932,0.3932,0.4234,0.4834,0.4834,0.4734,0.4734,0.4234,0.3932,0.3831,0.333,0.343,0.3932,0.3831,0.3831,0.3932,0.3932,0.3831,0.3731,0.333,0.2725,0.2315,0.2277,0.0,0.0,0.151,0.1489,0.1572,0.1994,0.2158,0.2243,0.2689,0.2778,0.2868,0.2867,0.3227,0.3497,0.3587,0.3942,0.421,0.43,0.43,0.43,0.43,0.43,0.43,0.43,0.43,0.43,0.43,0.43,0.43,0.43,0.43,0.43,0.43,0.0,0.0,0.4193,0.4197,0.4333,0.4482,0.4513,0.4514,0.4556,0.4564,0.4567,0.455,0.4458,0.454,0.481,0.4766,0.4826,0.5075,0.4627,0.2982,0.0,0.0,0.0,0.0,0.0,0.0,0.0,0.0,0.0,0.0,0.0,0.0,0.0,0.0,0.0,0.1441,0.1847,0.2004,0.1609,0.1436,0.1436,0.1436,0.1436,0.1447,0.1478,0.1503,0.1532,0.1568,0.1693,0.1911,0.2421,0.212,0.2121,0.2522,0.2522,0.2825,0.3331,0.3833,0.4234,0.4834,0.0,0.0,0.4133,0.4033,0.3732,0.3331,0.2825,0.2825,0.3331,0.2925,0.2925,0.3331,0.3331,0.3128,0.2723,0.2623,0.2221,0.1716,0.1711,0.1708,0.1602,0.1566,0.1537,0.1512,0.1574,0.1637,0.0,0.2153,0.2333,0.2422,0.2778,0.2957,0.3136,0.3497,0.3676,0.3855,0.421,0.43,0.43,0.43,0.43,0.43,0.43,0.43,0.43,0.43,0.43,0.43,0.43,0.43,0.43,0.43,0.43,0.4293,0.4275,0.4348,0.4507,0.4677,0.4934,0.5072,0.5048,0.5143,0.5148,0.505,0.5167,0.5205,0.5156,0.5202,0.5231,0.5406,0.5043,0.4378,0.0,0.0,0.0,0.0,0.0,0.0,0.0,0.0,0.0,0.0,0.0,0.089,0.0723,0.0,0.0812,0.1019,0.148,0.1684,0.1433,0.1436,0.1436,0.1436,0.1436,0.1447,0.1478,0.1508,0.1538,0.1569,0.16,0.1718,0.2019,0.1717,0.1717,0.2019,0.2019,0.2221,0.2826,0.3026,0.3429,0.4033,0.4033,0.3833,0.3632,0.3328,0.3026,0.2725,0.2221,0.2322,0.2826,0.2522,0.2522,0.2725,0.2524,0.2423,0.2321,0.212,0.1818,0.1617,0.1617,0.1617,0.1612,0.1581,0.1562,0.154,0.1495,0.147,0.1455,0.1709,0.1794,0.1884,0.2062,0.2331,0.2601,0.2871,0.3229,0.3676,0.3944,0.4121,0.43,0.43,0.43,0.43,0.43,0.43,0.43,0.43,0.43,0.43,0.43,0.43,0.43,0.43,0.43,0.43,0.43,0.448,0.473,0.488,0.5149,0.5279,0.5279,0.5336,0.5341,0.5279,0.5401,0.5436,0.5374,0.5427,0.5523,0.5489,0.5177,0.5038,0.0,0.0,0.0,0.0,0.0,0.0,0.0,0.0,0.1268,0.1148,0.1156,0.0995,0.0637,0.0498,0.0431,0.0535,0.0897,0.1166,0.1256,0.1345,0.1436,0.1436,0.1436,0.1447,0.1478,0.1508,0.1538,0.1569,0.16,0.1617,0.1617,0.1617,0.1617,0.1617,0.1617,0.1818,0.2422,0.2422,0.2623,0.323,0.323,0.313,0.3029,0.2623,0.2321,0.222,0.1919,0.1919,0.222,0.2321,0.2321,0.222,0.1818,0.1818,0.2221,0.1717,0.1617,0.1617,0.1617,0.1617,0.1613,0.1588,0.1577,0.1562,0.1513,0.149,0.1476,0.1451,0.144,0.1436,0.1436,0.1705,0.2064,0.2154,0.2871,0.3497,0.3587,0.3942,0.43,0.43,0.43,0.43,0.43,0.43,0.43,0.43,0.43,0.43,0.43,0.43,0.43,0.43,0.43,0.43,0.4389,0.4673,0.494,0.5027,0.5357,0.5442,0.5442,0.5442,0.5442,0.5442,0.5545,0.5513,0.5513,0.5628,0.5684,0.5502,0.4508,0.4236,0.3866,0.3375,0.3138,0.3398,0.289,0.2546,0.0,0.0,0.1659,0.202,0.1676,0.1284,0.1205,0.0615,0.0089,0.009,0.009,0.0269,0.0718,0.1166,0.1436,0.1436,0.1436,0.1447,0.1478,0.1508,0.1538,0.1569,0.16,0.1617,0.1617,0.1617,0.1617,0.1617,0.1617,0.1818,0.2422,0.2422,0.2623,0.323,0.323,0.2927,0.2522,0.2422,0.212,0.1718,0.2119,0.212,0.1717,0.222,0.212,0.1718,0.1617,0.1617,0.1718,0.1617,0.1617,0.1617,0.1617,0.1617,0.1616,0.1613,0.1594,0.157,0.1564,0.1523,0.148,0.1476,0.1456,0.1436,0.1436,0.1436,0.1615,0.2064,0.2601,0.3136,0.3497,0.3942,0.43,0.43,0.43,0.43,0.43,0.43,0.43,0.43,0.43,0.43,0.43,0.43,0.43,0.43,0.43,0.4389,0.4659,0.4825,0.5078,0.5336,0.5513,0.5692,0.5692,0.5692,0.5692,0.5692,0.5714,0.5638,0.5638,0.567,0.5684,0.5594,0.2158,0.0629,0.4001,0.3302,0.2769,0.0,0.2759,0.2233,0.2433,0.1952,0.1388,0.1276,0.1309,0.1152,0.0621,0.0268,0.0,0.0,0.0,0.009,0.0269,0.0718,0.1076,0.1166,0.1345,0.144,0.1453,0.1498,0.1531,0.1544,0.159,0.1617,0.1617,0.1617,0.1617,0.1617,0.1617,0.1718,0.1919,0.1919,0.202,0.2222,0.2222,0.2121,0.1919,0.1919,0.1818,0.1618,0.184,0.1836,0.1617,0.1818,0.1818,0.1617,0.1617,0.1617,0.1617,0.1617,0.1617,0.1617,0.1617,0.1617,0.1617,0.1617,0.1608,0.1594,0.1577,0.1553,0.1526,0.1491,0.1472,0.1457,0.144,0.1436,0.1525,0.2064,0.2601,0.3047,0.3497,0.3942,0.43,0.43,0.43,0.43,0.43,0.43,0.43,0.43,0.43,0.43,0.43,0.43,0.43,0.43,0.43,0.4389,0.4478,0.4656,0.4924,0.5191,0.5371,0.5552,0.5733,0.5733,0.5733,0.5733,0.5738,0.5741,0.5657,0.458,0.4589,0.5594,0.1798,0.0,0.3648,0.0,0.0,0.2969,0.2593,0.2107,0.2055,0.1676,0.1206,0.0875,0.0888,0.0808,0.009,0.0,0.0,0.0,0.0,0.009,0.0359,0.0718,0.0987,0.1076,0.1256,0.1436,0.1436,0.1483,0.1517,0.1525,0.1575,0.1608,0.1616,0.1617,0.1617,0.1617,0.1617,0.1617,0.1617,0.1617,0.1617,0.1617,0.1617,0.1617,0.1617,0.1617,0.1617,0.1618,0.164,0.1637,0.1617,0.1617,0.1617,0.1617,0.1617,0.1617,0.1617,0.1617,0.1617,0.1617,0.1617,0.1617,0.1617,0.1617,0.1617,0.1613,0.1591,0.1578,0.1562,0.1518,0.15,0.1486,0.1455,0.1448,0.1536,0.1887,0.2422,0.2957,0.3317,0.3853,0.43,0.43,0.43,0.43,0.43,0.43,0.43,0.43,0.43,0.43,0.43,0.43,0.43,0.43,0.43,0.43,0.43,0.4569,0.4748,0.501,0.528,0.5463,0.5733,0.5733,0.5733,0.5733,0.5735,0.5741,0.5662,0.3315,0.2781,0.4051,0.1258,0.0,0.0,0.0,0.252,0.2726,0.252,0.2357,0.2761,0.2058,0.1433,0.1344,0.0628,0.0,0.0,0.0,0.0,0.0,0.0,0.0359,0.1256,0.1345,0.1346,0.1346,0.1436,0.1436,0.0,0.1463,0.1494,0.1524,0.1555,0.1585,0.1615,0.1617,0.1617,0.1617,0.1617,0.1617,0.1617,0.1617,0.1617,0.1617,0.1617,0.1617,0.1617,0.1617,0.1617,0.1617,0.1618,0.1618,0.1617,0.1617,0.1617,0.1617,0.1617,0.1617,0.1617,0.1617,0.1617,0.1617,0.1617,0.1617,0.1617,0.1617,0.1617,0.1617,0.1615,0.1595,0.1571,0.1569,0.1547,0.1517,0.1487,0.1479,0.1472,0.1442,0.2152,0.2867,0.2957,0.3673,0.43,0.43,0.43,0.43,0.43,0.43,0.43,0.43,0.43,0.43,0.43,0.43,0.43,0.43,0.43,0.43,0.43,0.4569,0.4748,0.501,0.528,0.5463,0.5733,0.5733,0.5733,0.5733,0.5741,0.5662,0.567,0.1883,0.009,0.018,0.009,0.0,0.2878,0.0,0.1848,0.2271,0.1998,0.1601,0.1433,0.1436,0.1436,0.1436,0.0622,0.0,0.0,0.0,0.0,0.0,0.0534,0.0808,0.0539,0.0987,0.1436,0.1436,0.1436,0.0,0.0,0.0,0.0,0.1523,0.1554,0.1585,0.1615,0.1617,0.1617,0.1617,0.1617,0.1617,0.1617,0.1617,0.1617,0.1617,0.1617,0.1617,0.1618,0.1638,0.1636,0.1618,0.1638,0.1635,0.1617,0.1617,0.1617,0.1617,0.1617,0.1617,0.1617,0.1617,0.1617,0.1617,0.1617,0.1617,0.1617,0.1617,0.1617,0.1617,0.1617,0.161,0.1597,0.1577,0.1564,0.1549,0.1519,0.1495,0.1571,0.1835,0.2175,0.2601,0.3227,0.3585,0.3942,0.421,0.43,0.43,0.43,0.43,0.43,0.43,0.43,0.43,0.43,0.43,0.43,0.43,0.43,0.43,0.43,0.4389,0.4567,0.5008,0.5099,0.5282,0.5644,0.5733,0.5733,0.5733,0.5735,0.5657,0.567,0.3179,0.128,0.0,0.0,0.0,0.2986,0.2236,0.1419,0.1844,0.1617,0.1267,0.0629,0.0718,0.0894,0.088,0.0431,0.0,0.0,0.025,0.0418,0.0514,0.087,0.0971,0.0538,0.0987,0.1436,0.1436,0.1444,0.1451,0.0,0.0,0.0,0.1509,0.1548,0.158,0.16,0.1611,0.1617,0.1617,0.1617,0.1617,0.1617,0.1617,0.1617,0.1617,0.1617,0.1617,0.1618,0.1637,0.1635,0.1618,0.1637,0.1635,0.1617,0.1617,0.1617,0.1617,0.1617,0.1617,0.1617,0.1617,0.1617,0.1617,0.1617,0.1617,0.1617,0.1617,0.1617,0.1617,0.1617,0.1617,0.1613,0.1593,0.1588,0.1581,0.155,0.1528,0.1605,0.1875,0.2211,0.263,0.3264,0.3605,0.3942,0.421,0.43,0.43,0.43,0.43,0.43,0.43,0.43,0.43,0.43,0.43,0.43,0.43,0.43,0.43,0.43,0.43,0.4476,0.5008,0.501,0.5191,0.5644,0.5733,0.5754,0.5793,0.5795,0.5822,0.5791,0.3896,0.1865,0.0,0.0,0.0,0.2911,0.215,0.129,0.1367,0.1387,0.1196,0.018,0.0,0.0089,0.0085,0.0,0.0,0.0,0.0,0.1161,0.1326,0.1009,0.0856,0.1338,0.1436,0.1436,0.0,0.0,0.0,0.0,0.0,0.0,0.1485,0.0,0.1572,0.1574,0.1601,0.1617,0.1617,0.1617,0.1617,0.1617,0.1617,0.1617,0.1617,0.1617,0.1617,0.1617,0.1617,0.1617,0.1617,0.1617,0.1617,0.1617,0.1617,0.1617,0.1617,0.1617,0.1617,0.1617,0.1617,0.1617,0.1617,0.1617,0.1617,0.1617,0.1617,0.1617,0.1617,0.1617,0.1617,0.1617,0.1617,0.1617,0.161,0.1581,0.1573,0.1564,0.1535,0.2162,0.287,0.287,0.3645,0.4222,0.4312,0.4312,0.4312,0.4312,0.431,0.4306,0.4306,0.4302,0.43,0.43,0.43,0.43,0.43,0.43,0.43,0.43,0.43,0.4476,0.5008,0.5015,0.5198,0.5652,0.5746,0.5803,0.5909,0.5912,0.5975,0.6002,0.3998,0.1999,0.0,0.0,0.0,0.2461,0.1906,0.1475,0.1453,0.1373,0.1192,0.0177,0.0433,0.0765,0.0661,0.0309,0.0,0.0,0.0,0.0,0.1394,0.1322,0.0,0.1341,0.1436,0.0,0.1466,0.0,0.149,0.1513,0.1542,0.0,0.0,0.155,0.1581,0.1604,0.1613,0.1617,0.1617,0.1617,0.1617,0.1617,0.1617,0.1617,0.1617,0.1617,0.1617,0.1617,0.1617,0.1617,0.1617,0.1617,0.1617,0.1617,0.1617,0.1617,0.1617,0.1617,0.1617,0.1617,0.1617,0.1617,0.1617,0.1617,0.1617,0.1617,0.1617,0.1617,0.1617,0.1617,0.1617,0.1617,0.1617,0.1617,0.1615,0.1607,0.1589,0.1569,0.1562,0.1728,0.2081,0.2837,0.3202,0.3565,0.4408,0.4504,0.4504,0.4504,0.4447,0.44,0.44,0.4342,0.43,0.43,0.43,0.43,0.43,0.43,0.43,0.43,0.43,0.4476,0.5008,0.5084,0.5403,0.586,0.5947,0.601,0.6037,0.604,0.6059,0.6194,0.5612,0.3502,0.0,0.0,0.0,0.2554,0.1863,0.1123,0.0823,0.082,0.0631,0.0086,0.0332,0.0642,0.0751,0.0554,0.0,0.0063,0.0655,0.0,0.0,0.0,0.0,0.1427,0.1436,0.1446,0.0,0.1493,0.0,0.1543,0.1573,0.1584,0.0,0.1581,0.1593,0.1596,0.1609,0.1617,0.1617,0.1617,0.1617,0.1617,0.1617,0.1617,0.1617,0.1617,0.1617,0.1617,0.1617,0.1617,0.1617,0.0,0.1617,0.1617,0.1617,0.1617,0.1617,0.1617,0.1617,0.1617,0.1617,0.1617,0.1617,0.1617,0.1617,0.1617,0.1617,0.1617,0.1617,0.1617,0.1617,0.1617,0.1617,0.1617,0.1617,0.1617,0.1605,0.1592,0.1592,0.1862,0.2317,0.2896,0.3355,0.3905,0.4478,0.4573,0.4573,0.4573,0.4528,0.4496,0.4496,0.4451,0.4418,0.4418,0.4349,0.4314,0.4355,0.4359,0.4375,0.4416,0.4418,0.4601,0.4965,0.5113,0.5425,0.58,0.5957,0.6111,0.6165,0.6165,0.6192,0.6246,0.623,0.4567,0.1389,0.0401,0.0,0.2723,0.1779,0.0647,0.0092,0.0,0.0,0.0,0.0,0.015,0.0594,0.0,0.0572,0.0166,0.0583,0.1079,0.1277,0.0,0.1328,0.1417,0.1433,0.1446,0.1477,0.1508,0.154,0.1575,0.1601,0.1617,0.1617,0.1617,0.1605,0.1579,0.1603,0.1617,0.1617,0.1617,0.1617,0.1617,0.1617,0.1617,0.1617,0.1617,0.1617,0.1617,0.1617,0.1617,0.1617,0.1617,0.0,0.1617,0.1617,0.1617,0.1617,0.1617,0.1617,0.1617,0.1617,0.1617,0.1617,0.1617,0.1617,0.1617,0.1617,0.1617,0.1617,0.1617,0.1617,0.1617,0.1617,0.1617,0.1617,0.1617,0.1617,0.1617,0.1617,0.2293,0.3053,0.3053,0.3886,0.4608,0.4608,0.4608,0.4608,0.4608,0.4598,0.4589,0.4589,0.4579,0.4573,0.4573,0.4434,0.4365,0.4444,0.4453,0.4485,0.4567,0.4573,0.4666,0.4849,0.5149,0.5446,0.5733,0.5937,0.6184,0.6287,0.629,0.6339,0.6437,0.6353,0.5448,0.3527,0.1411,0.0303,0.1913,0.1559,0.1199,0.0272,0.0,0.0,0.0,0.0,0.0,0.0,0.068,0.0821,0.0694,0.0857,0.1012,0.1141,0.0,0.0,0.0,0.0,0.1446,0.0,0.0,0.0,0.0,0.0,0.0,0.0,0.0,0.1614,0.1609,0.1614,0.1617,0.1617,0.1617,0.1617,0.1617,0.1617,0.1617,0.1617,0.1617,0.1617,0.1617,0.1617,0.1617,0.1617,0.1617,0.0,0.1617,0.1617,0.1617,0.1617,0.1617,0.1617,0.1617,0.1617,0.1617,0.1617,0.1617,0.1617,0.1617,0.1617,0.1617,0.1617,0.1617,0.1617,0.1617,0.1617,0.1617,0.1617,0.1617,0.1617,0.1617,0.1617,0.2115,0.2611,0.3114,0.4004,0.479,0.479,0.479,0.479,0.479,0.473,0.4685,0.4685,0.462,0.4573,0.4573,0.4545,0.4532,0.4547,0.4549,0.4555,0.4571,0.4573,0.4666,0.4849,0.5023,0.5359,0.5843,0.5935,0.609,0.6407,0.6407,0.6418,0.6437,0.6353,0.6163,0.5763,0.3629,0.1713,0.153,0.1336,0.0971,0.0177,0.0,0.0,0.0,0.0,0.0,0.0,0.0609,0.0805,0.0744,0.0865,0.0,0.1056,0.1095,0.0,0.0,0.0,0.0,0.0,0.0,0.0,0.0,0.0,0.0,0.0,0.0,0.1617,0.1617,0.1617,0.1617,0.1617,0.1617,0.1617,0.1617,0.1617,0.1617,0.1617,0.1617,0.1617,0.1617,0.1617,0.1617,0.1617,0.1617,0.0,0.1617,0.1617,0.1617,0.1617,0.1617,0.1617,0.1617,0.1617,0.1617,0.1617,0.1617,0.1617,0.1617,0.1617,0.1617,0.1617,0.1617,0.1617,0.1617,0.1617,0.1617,0.1617,0.1617,0.1617,0.1617,0.1617,0.2222,0.3027,0.3831,0.4435,0.4834,0.4834,0.4834,0.4834,0.4834,0.4802,0.4773,0.4773,0.4736,0.4708,0.4708,0.4708,0.4692,0.4649,0.4645,0.4661,0.4706,0.4708,0.4708,0.4803,0.5044,0.5367,0.576,0.5912,0.6139,0.6437,0.6437,0.6437,0.6437,0.6445,0.6356,0.6369,0.4636,0.363,0.0713,0.0781,0.0508,0.0087,0.0,0.0,0.0,0.0,0.0,0.0,0.0324,0.0404,0.0674,0.0,0.075,0.0,0.1012,0.1119,0.0,0.0,0.0,0.0,0.0,0.0,0.0,0.0,0.0,0.0,0.0,0.0,0.1617,0.1617,0.1617,0.1617,0.1617,0.1617,0.1617,0.1617,0.1617,0.1617,0.1617,0.1617,0.1617,0.1617,0.1617,0.1617,0.1617,0.0,0.0,0.1617,0.1617,0.1617,0.1415,0.1415,0.1617,0.1415,0.1314,0.1314,0.1314,0.1314,0.1314,0.1314,0.1415,0.1617,0.1617,0.1617,0.1617,0.1617,0.1617,0.1617,0.1717,0.1818,0.1818,0.202,0.2726,0.3632,0.4634,0.4834,0.4834,0.4834,0.4834,0.4834,0.4834,0.4834,0.4834,0.4834,0.4834,0.4834,0.4834,0.4834,0.481,0.4743,0.4736,0.4763,0.4828,0.4834,0.4834,0.4834,0.5037,0.5238,0.5536,0.5739,0.5939,0.6337,0.6337,0.6337,0.6437,0.6437,0.6445,0.6364,0.5238,0.5347,-0.1135,-0.0515,0.0085,0.0,0.0,0.0,0.0,0.0,0.0,0.0049,-0.0462,-0.0583,0.0494,0.0327,0.0,0.0,0.0,0.109,0.1163,0.1283,0.0,0.0,0.0,0.0,0.0,0.0,0.0,0.0,0.0,0.0,0.1617,0.1617,0.1617,0.1617,0.1617,0.1617,0.1617,0.1617,0.1617,0.1617,0.1617,0.1617,0.1617,0.1617,0.1617,0.1617,0.1617,0.0,0.0,0.1617,0.1617,0.1516,0.0808,0.0909,0.1516,0.0808,0.0505,0.0505,0.0505,0.0505,0.0505,0.0505,0.101,0.1617,0.1617,0.1617,0.1617,0.1617,0.1617,0.1718,0.222,0.2321,0.2522,0.353,0.3831,0.4133,0.4634,0.4834,0.4834,0.4834,0.4834,0.4834,0.4834,0.4834,0.4834,0.4834,0.4834,0.4834,0.4834,0.4834,0.483,0.4824,0.4822,0.4826,0.4832,0.4834,0.4834,0.4834,0.4834,0.4937,0.524,0.524,0.5541,0.6042,0.6042,0.6139,0.6437,0.6437,0.6445,0.6364,0.6245,0.625,-0.1383,-0.1114,-0.0679,-0.0175,0.0,0.0,0.0,0.0,-0.0165,-0.0713,-0.1088,-0.103,-0.0269,-0.0318,-0.0333,0.0,0.0,0.0,0.0688,0.0707,0.0899,0.0,0.0,0.0,0.0,0.0,0.0,0.0,0.0,0.0,0.1617,0.1617,0.1617,0.1617,0.1617,0.1617,0.1617,0.1617,0.1617,0.1617,0.1617,0.1617,0.1617,0.1617,0.1617,0.1617,0.1617,0.0,0.0,0.1111,0.0909,0.0808,-0.0,-0.0101,0.0101,-0.0202,-0.0303,-0.0303,-0.0303,-0.0,0.0404,0.0404,0.0909,0.1617,0.1617,0.1617,0.1617,0.1617,0.1617,0.1617,0.1818,0.212,0.2622,0.3731,0.4033,0.4133,0.4734,0.4834,0.4834,0.4834,0.4834,0.4834,0.4834,0.4834,0.4834,0.4834,0.4834,0.4834,0.4834,0.4834,0.4834,0.4834,0.4834,0.4834,0.4834,0.4834,0.4834,0.4834,0.4834,0.4937,0.514,0.5338,0.5639,0.6042,0.6139,0.6339,0.6437,0.6437,0.6439,0.6448,0.6439,0.6448,-0.1358,-0.1365,-0.127,-0.0606,-0.0244,-0.0148,0.0,-0.0849,-0.0958,-0.1341,-0.1657,-0.1657,-0.0985,-0.0895,-0.0825,-0.0441,-0.0404,-0.0272,0.0127,0.0327,0.0563,0.0,0.0,0.0,0.0,0.0,0.0,0.0,0.0,0.0,0.1617,0.1617,0.1617,0.1617,0.1617,0.1617,0.1617,0.1617,0.1617,0.1617,0.1617,0.1617,0.1617,0.1314,0.1415,0.1617,0.1111,0.0,0.0,0.0404,0.0,-0.0,-0.0807,-0.1008,-0.0806,-0.1109,-0.1109,-0.1109,-0.1109,-0.0807,-0.0303,-0.0303,0.0404,0.1212,0.1212,0.1415,0.1617,0.1617,0.1819,0.2121,0.2121,0.2624,0.3327,0.4031,0.4234,0.4334,0.4734,0.4834,0.4834,0.4834,0.4834,0.4834,0.4834,0.4834,0.4834,0.4834,0.4834,0.4834,0.4834,0.4834,0.4834,0.4834,0.4834,0.4834,0.4834,0.4834,0.4834,0.4834,0.4834,0.4834,0.5037,0.5336,0.5639,0.5839,0.6139,0.6337,0.6437,0.6437,0.6437,0.6437,0.6437,0.6464,-0.1398,-0.1348,-0.144,-0.1386,-0.0651,-0.0516,-0.2452,-0.2884,-0.2592,-0.1609,-0.2194,-0.2553,-0.1389,-0.1433,-0.1318,-0.0426,-0.0355,0.0,-0.0317,0.0135,0.0437,0.0,0.0,0.0,0.0,0.0,0.0,0.0,0.0,0.0,0.1617,0.1617,0.1617,0.1617,0.1617,0.1617,0.1617,0.1617,0.1617,0.1617,0.1617,0.1617,0.1617,0.0808,0.0808,0.0,0.0,0.0,0.0,-0.0504,-0.0806,-0.0907,-0.1714,-0.1513,-0.0907,-0.1714,-0.2017,-0.2017,-0.2017,-0.2017,-0.2017,-0.2017,-0.0908,0.0404,0.0404,0.101,0.1617,0.1617,0.2323,0.323,0.323,0.3932,0.4734,0.4834,0.4834,0.4834,0.4834,0.4834,0.4834,0.4834,0.4834,0.4834,0.4834,0.4834,0.4834,0.4834,0.4834,0.4834,0.4834,0.4834,0.4834,0.4834,0.4834,0.4834,0.4834,0.4834,0.4834,0.4834,0.4834,0.4834,0.4834,0.5037,0.5338,0.5634,0.5839,0.6139,0.6437,0.6437,0.6437,0.6437,0.6437,0.6502,-0.2362,-0.2353,-0.2229,-0.1839,-0.1324,-0.1036,-0.1318,-0.2196,-0.2759,-0.2197,-0.2511,-0.2687,-0.1928,-0.1884,-0.1822,-0.1417,-0.1361,-0.1147,0.0,0.0,0.0,0.0901,0.1261,0.0,0.0,0.0,0.0,0.0,0.0,0.0,0.1617,0.1617,0.1617,0.1617,0.1617,0.1617,0.1617,0.1617,0.1617,0.1617,0.1617,0.1314,0.0808,0.0505,0.0202,0.0,0.0,0.0,0.0,-0.1311,-0.1613,-0.1714,-0.2522,-0.2623,-0.2422,-0.2725,-0.2826,-0.2826,-0.2826,-0.2422,-0.1916,-0.131,-0.0504,0.0505,0.101,0.1415,0.1617,0.1617,0.212,0.2725,0.313,0.3732,0.4334,0.4734,0.4834,0.4834,0.4834,0.4834,0.4834,0.4834,0.4834,0.4834,0.4834,0.4834,0.4834,0.4834,0.4834,0.4834,0.4834,0.4834,0.4834,0.4834,0.4834,0.4834,0.4834,0.4834,0.4834,0.4834,0.4834,0.4834,0.4834,0.5236,0.5536,0.5634,0.6037,0.6337,0.6437,0.6437,0.648,0.6562,0.6562,0.6627,-0.2804,-0.2656,-0.2567,-0.2255,-0.1961,-0.1726,-0.1396,-0.2032,-0.2624,-0.2368,-0.2469,-0.2467,-0.2062,-0.1975,-0.1902,-0.1687,-0.1699,-0.1511,0.0,0.0,0.0,0.0,0.0,0.0,0.0,0.0,0.0,0.0,0.0,0.0,0.1617,0.1617,0.1617,0.1617,0.1617,0.1415,0.1111,0.1111,0.101,0.0707,0.0707,0.0404,-0.0101,-0.0404,-0.0605,0.0,0.0,0.0,0.0,-0.2118,-0.2422,-0.2522,-0.3027,-0.323,-0.323,-0.323,-0.323,-0.323,-0.323,-0.2826,-0.232,-0.1513,-0.0504,0.0505,0.1314,0.1617,0.1617,0.1617,0.2121,0.2826,0.313,0.3732,0.4433,0.4734,0.4834,0.4834,0.4834,0.4834,0.4834,0.4834,0.4834,0.4834,0.4834,0.4834,0.4834,0.4834,0.4834,0.4834,0.4834,0.4834,0.4834,0.4834,0.4834,0.4834,0.4834,0.4834,0.4834,0.4834,0.4834,0.4834,0.4937,0.5238,0.5539,0.5737,0.6039,0.6339,0.6437,0.6483,0.6567,0.6687,0.6687,0.6755,0.0,-0.2519,-0.2586,-0.2643,-0.2534,-0.2448,-0.2403,-0.2399,0.0,-0.2127,-0.2109,-0.2024,-0.1853,-0.1801,-0.1713,-0.1467,-0.1567,-0.1492,0.0,0.0,0.0,0.0,0.0,0.0,0.0,0.0,0.0,0.0,0.0,0.0,0.1607,0.1607,0.1607,0.1607,0.1611,0.1211,0.0404,0.0303,-0.0101,-0.0806,-0.0806,-0.0806,-0.0907,-0.1613,-0.1613,0.0,0.0,0.0,0.0,-0.2927,-0.323,-0.323,-0.323,-0.323,-0.323,-0.323,-0.323,-0.323,-0.323,-0.323,-0.3029,-0.2219,-0.0908,0.0505,0.1314,0.1617,0.1617,0.1617,0.2323,0.313,0.323,0.3932,0.4734,0.4834,0.4834,0.4834,0.4834,0.4834,0.4834,0.4834,0.4834,0.4834,0.4834,0.4834,0.4834,0.4834,0.4834,0.4834,0.4834,0.4834,0.4834,0.4834,0.4834,0.4834,0.4834,0.4834,0.4834,0.4834,0.4834,0.4937,0.514,0.524,0.5541,0.5942,0.605,0.6152,0.6448,0.6573,0.6695,0.6815,0.6815,0.688,-0.2933,0.0,-0.327,-0.2978,-0.2866,-0.2721,0.0,-0.2351,-0.2357,-0.1932,0.0,-0.206,-0.1994,-0.1872,-0.1811,-0.1857,-0.1869,-0.1768,-0.1333,0.0,0.0,0.0,0.0,0.0,0.0,0.0,0.0,0.0,0.0,0.1488,0.1511,0.1513,0.1513,0.1513,0.1558,0.1195,0.0404,-0.0202,-0.0605,-0.0806,-0.0806,-0.1109,-0.1714,-0.1916,-0.2219,0.0,0.0,0.0,-0.2927,-0.313,-0.323,-0.323,-0.323,-0.323,-0.323,-0.323,-0.323,-0.323,-0.323,-0.323,-0.2927,-0.1513,-0.0404,0.0505,0.1314,0.1617,0.1617,0.1617,0.212,0.2724,0.313,0.3732,0.4332,0.4734,0.4834,0.4834,0.4834,0.4834,0.4834,0.4834,0.4834,0.4834,0.4834,0.4834,0.4834,0.4834,0.4834,0.4834,0.4834,0.4834,0.4834,0.4834,0.4834,0.4834,0.4834,0.4834,0.4834,0.4834,0.5037,0.514,0.524,0.5641,0.5842,0.6042,0.6329,0.6476,0.6578,0.67,0.6823,0.6942,0.6942,0.7005,-0.2898,-0.3197,-0.3449,-0.3096,-0.299,-0.2807,-0.2303,0.0,0.0,0.0,0.0,-0.1773,-0.171,-0.162,-0.159,-0.17,-0.174,0.0,0.0,0.0,0.0,0.0,0.0,0.0,0.0,0.0,0.0,0.0,0.0,0.1442,0.1459,0.1459,0.1459,0.1459,0.1119,0.0574,-0.0197,-0.06,-0.121,-0.1916,-0.1916,-0.2118,-0.2522,-0.2522,-0.2826,0.0,0.0,0.0,-0.323,-0.323,-0.323,-0.323,-0.323,-0.323,-0.323,-0.323,-0.323,-0.323,-0.323,-0.2522,-0.1512,0.0,0.1008,0.1716,0.2222,0.2323,0.2323,0.2019,0.2322,0.2927,0.343,0.3932,0.4433,0.4734,0.4834,0.4834,0.4834,0.4834,0.4834,0.4834,0.4834,0.4834,0.4834,0.4834,0.4834,0.4834,0.4834,0.4834,0.4834,0.4834,0.4834,0.4834,0.4834,0.4834,0.4834,0.4834,0.4834,0.4834,0.5037,0.524,0.5338,0.5639,0.5839,0.6042,0.6355,0.6646,0.6703,0.6825,0.6948,0.7062,0.7062,0.7095,-0.265,-0.2944,-0.3194,-0.297,-0.2845,-0.2708,-0.2311,0.0,0.0,0.0,0.0,0.0,0.0,0.0,0.0,0.0,0.0,0.0,0.0,0.0,0.0,0.0,0.0,0.0,0.0,0.0,0.0,0.0,0.0,0.141,0.1414,0.1415,0.1415,0.1415,0.0712,-0.0,-0.0842,-0.0976,-0.1692,-0.3189,-0.3207,-0.3217,-0.3217,-0.3226,-0.323,-0.323,0.0,0.0,-0.323,-0.323,-0.323,-0.323,-0.323,-0.323,-0.323,-0.323,-0.323,-0.323,-0.313,-0.1815,0.0,0.1309,0.2318,0.3027,0.313,0.323,0.313,0.2724,0.2927,0.3331,0.3833,0.4334,0.4734,0.4734,0.4834,0.4834,0.4834,0.4834,0.4834,0.4834,0.4834,0.4834,0.4834,0.4834,0.4834,0.4834,0.4834,0.4834,0.4834,0.4834,0.4834,0.4834,0.4834,0.4834,0.4834,0.4834,0.4834,0.4834,0.5138,0.5438,0.5737,0.5734,0.5847,0.6067,0.6484,0.6709,0.6831,0.695,0.7059,0.7154,0.7154,0.7154,-0.2299,-0.2499,-0.2687,-0.2456,-0.2337,-0.2215,-0.1961,0.0,0.0,0.0,0.0,0.0,0.0,0.0,0.0,0.0,0.0,0.0,0.0,0.0,0.0,0.0,0.0,0.079,0.1264,0.1272,0.0,0.0,0.0,0.1296,0.1322,0.1323,0.1323,0.1323,0.1285,0.0521,-0.0772,-0.1458,-0.2251,-0.3001,-0.3104,-0.3154,-0.3155,-0.3207,-0.323,-0.323,0.0,-0.323,-0.323,-0.323,-0.323,-0.323,-0.323,-0.323,-0.323,-0.323,-0.323,-0.313,-0.2927,-0.2017,-0.0806,0.0302,0.1309,0.2317,0.3026,0.323,0.323,0.363,0.3531,0.3331,0.3833,0.4033,0.4234,0.4734,0.4834,0.4834,0.4834,0.4834,0.4834,0.4834,0.4834,0.4834,0.4834,0.4834,0.4834,0.4834,0.4834,0.4834,0.4834,0.4834,0.4834,0.4834,0.4834,0.4834,0.4834,0.5037,0.514,0.514,0.5438,0.5737,0.6237,0.6237,0.6385,0.6487,0.6711,0.6834,0.6956,0.7073,0.7138,0.7154,0.7154,0.7154,-0.207,-0.2054,-0.2041,-0.2008,-0.2138,-0.2232,-0.2051,0.0,0.0,0.0,0.0,0.0,0.0,0.0,0.0,0.0,0.0,0.0,0.0,0.0,0.0,0.0,0.0,0.0,0.055,0.0471,0.0,0.0,0.0,0.0,0.0239,0.024,0.024,0.024,0.0407,-0.0,-0.1054,-0.1438,-0.2111,-0.2913,-0.2969,-0.3012,-0.3042,-0.3071,-0.3021,-0.2882,0.0,-0.2899,-0.2725,-0.2725,-0.2725,-0.2725,-0.2725,-0.2725,-0.2826,-0.2927,-0.2826,-0.2421,-0.1209,-0.0201,0.0805,0.2315,0.312,0.3624,0.393,0.4033,0.4133,0.4332,0.4033,0.3732,0.4332,0.4435,0.4533,0.4734,0.4834,0.4834,0.4834,0.4834,0.4834,0.4834,0.4834,0.4834,0.4834,0.4834,0.4834,0.4834,0.4834,0.4834,0.4834,0.4834,0.4834,0.4834,0.4937,0.5037,0.5037,0.5238,0.5464,0.5725,0.5829,0.6159,0.6632,0.6632,0.666,0.6717,0.6839,0.6929,0.6986,0.71,0.7154,0.7154,0.7154,0.7154,-0.2112,-0.1933,-0.1809,-0.1799,0.0,-0.2138,-0.2149,0.0,0.0,0.0,0.0,0.0,0.0,0.0,0.0,0.0,0.0,0.0,0.0,0.0,0.0,0.0,0.0,0.0,-0.0079,-0.0157,0.0,0.0,0.0,0.0,-0.055,-0.055,-0.055,-0.055,-0.0393,-0.0628,-0.1178,-0.1279,-0.1826,-0.2723,-0.2839,-0.2876,-0.2918,-0.2946,-0.2914,-0.2807,-0.2722,-0.2658,-0.2505,-0.2405,-0.2411,-0.2422,-0.2422,-0.2422,-0.2422,-0.2724,-0.232,-0.1512,-0.0101,0.1208,0.2415,0.3927,0.4632,0.4834,0.4834,0.4834,0.4834,0.4834,0.4535,0.4232,0.4734,0.4834,0.4834,0.4834,0.4834,0.4834,0.4834,0.4834,0.4834,0.4834,0.4834,0.4834,0.4834,0.4834,0.4834,0.4834,0.4834,0.4834,0.4935,0.4935,0.4935,0.4935,0.5138,0.534,0.534,0.5539,0.5896,0.6347,0.6228,0.6367,0.6798,0.6801,0.6817,0.6844,0.6937,0.6997,0.7024,0.7111,0.7154,0.7154,0.7154,0.7154,-0.2679,-0.2493,-0.2292,-0.2108,-0.182,0.0,-0.1883,-0.1662,0.0,0.0,0.0,0.0,0.0,0.0,0.0,0.0,0.0,0.0,0.0,0.0,0.0,0.0,0.0,0.0,0.0,-0.0,0.0,0.0,0.0,0.0,-0.0314,-0.0471,-0.055,-0.0314,-0.0314,-0.0471,-0.0943,-0.118,-0.1676,-0.2376,-0.265,-0.2792,-0.28,-0.2909,-0.2963,-0.2974,-0.2746,-0.2703,-0.2654,-0.2456,-0.2383,-0.2422,-0.2422,-0.2422,-0.2422,-0.2724,-0.2017,-0.0907,-0.0705,0.0805,0.282,0.3222,0.4029,0.4834,0.4834,0.4834,0.4834,0.4834,0.4734,0.4734,0.4834,0.4834,0.4834,0.4834,0.4834,0.4834,0.4834,0.4834,0.4834,0.4834,0.4834,0.4834,0.4834,0.4834,0.4834,0.4834,0.4834,0.4935,0.514,0.514,0.524,0.5534,0.5536,0.5636,0.5942,0.5942,0.6235,0.6774,0.6375,0.6367,0.6798,0.6801,0.6855,0.697,0.698,0.7037,0.7141,0.7149,0.7154,0.7154,0.7154,0.7154,-0.2361,-0.2127,-0.1945,-0.179,-0.1608,0.0,0.0,-0.1758,0.0,0.0,0.0,0.0,0.0,0.0,0.0,0.0,0.0,0.0,0.0,0.0,0.0,0.0,0.0,0.0,0.0,0.0,0.0,0.0,0.0,0.0,-0.1257,-0.1336,-0.1414,-0.1491,-0.1256,-0.1257,-0.1493,-0.1493,-0.1579,-0.1831,-0.2268,-0.2386,-0.2336,-0.2461,-0.2448,-0.227,-0.2288,-0.2152,-0.1928,-0.1832,-0.184,-0.1854,-0.1876,-0.1999,-0.2121,-0.1513,-0.0806,0.0101,0.1108,0.2316,0.3627,0.4029,0.4431,0.4834,0.4834,0.4834,0.4834,0.4834,0.4834,0.4834,0.4834,0.4834,0.4834,0.4834,0.4834,0.4834,0.4834,0.4834,0.4834,0.4834,0.4834,0.4834,0.5037,0.5037,0.5138,0.5236,0.5336,0.5336,0.5438,0.5438,0.5536,0.5634,0.5737,0.5939,0.6239,0.6239,0.6409,0.6679,0.6612,0.6714,0.7013,0.7021,0.7043,0.7089,0.7092,0.7111,0.7154,0.7154,0.7154,0.7154,0.7154,0.7154,-0.2289,-0.1931,-0.1692,0.0,0.0,0.0,-0.1557,-0.1683,-0.1882,0.0,0.0,0.0,0.0,0.0,0.0,0.0,0.0,0.0,-0.133,-0.1296,-0.1275,0.0,0.0,0.0,0.0,0.0,0.0,0.0,0.0,0.0,0.0,-0.1915,-0.1911,-0.2004,-0.1766,-0.1687,-0.1688,-0.1675,-0.159,-0.151,-0.1812,-0.1978,-0.201,-0.2106,-0.2085,-0.1829,-0.1943,-0.1813,-0.1592,-0.1508,-0.1517,-0.1528,-0.1549,-0.1674,-0.1803,-0.11,-0.0201,0.0907,0.1913,0.3122,0.4334,0.4634,0.4834,0.4834,0.4834,0.4834,0.4834,0.4834,0.4834,0.4834,0.4834,0.4834,0.4834,0.4834,0.4834,0.4834,0.4834,0.4834,0.4834,0.4834,0.4834,0.4937,0.514,0.524,0.5438,0.5536,0.5636,0.5636,0.5737,0.5737,0.5737,0.5837,0.6039,0.6239,0.6337,0.6437,0.6488,0.6611,0.6698,0.6853,0.7092,0.7135,0.7154,0.7154,0.7154,0.7154,0.7154,0.7154,0.7154,0.7154,0.7154,0.7154,-0.2612,-0.2109,0.0,0.0,0.0,0.0,-0.1311,-0.1475,-0.1652,-0.19,0.0,0.0,0.0,0.0,0.0,0.0,0.0,0.0,-0.1391,-0.1339,-0.1314,-0.126,-0.1322,0.0,0.0,0.0,0.0,0.0,-0.1485,-0.1644,-0.1679,-0.1809,-0.1807,-0.168,-0.1681,-0.1598,-0.1348,-0.1483,-0.1466,-0.1303,-0.1511,-0.173,-0.1888,-0.193,-0.203,-0.1954,-0.1875,-0.1758,-0.1797,-0.1559,-0.1498,-0.1525,-0.1525,-0.1544,-0.1669,-0.1866,-0.0496,0.1612,0.1308,0.2816,0.4832,0.4832,0.4832,0.4834,0.4834,0.4834,0.4834,0.4834,0.4834,0.4834,0.4834,0.4834,0.4834,0.4834,0.4834,0.4834,0.4834,0.4834,0.4834,0.4834,0.5037,0.524,0.524,0.5436,0.5636,0.5636,0.5636,0.5737,0.5942,0.6042,0.6139,0.6337,0.6437,0.6437,0.6437,0.6437,0.6488,0.6608,0.6619,0.6728,0.6975,0.7095,0.7154,0.7154,0.7154,0.7154,0.7154,0.7154,0.7154,0.7154,0.7154,0.7154,-0.2628,0.0,0.0,0.0,0.0,0.0,0.0,-0.1464,0.0,0.0,0.0,0.0,0.0,0.0,0.0,0.0,0.0,0.0,0.0,-0.1358,-0.1338,-0.1263,-0.134,-0.1338,-0.1347,-0.1348,-0.1263,-0.1263,-0.1339,-0.1422,-0.1431,-0.1422,-0.1588,-0.1681,-0.1514,-0.1431,-0.1598,-0.1422,-0.1335,-0.1334,-0.1325,-0.138,-0.1493,-0.1662,-0.1602,-0.1547,-0.1651,-0.1611,-0.1493,-0.1436,-0.1467,-0.1494,-0.1494,-0.1513,-0.1443,-0.0769,0.0386,0.1646,0.2321,0.3515,0.4747,0.4747,0.4785,0.4834,0.4834,0.4834,0.4834,0.4834,0.4834,0.4834,0.4834,0.4834,0.4834,0.4834,0.4834,0.4834,0.4834,0.4834,0.4834,0.5037,0.514,0.534,0.5741,0.5839,0.5939,0.6137,0.6137,0.6237,0.6237,0.6237,0.6337,0.6437,0.6437,0.6437,0.6437,0.6437,0.645,0.6488,0.657,0.6728,0.6975,0.7018,0.7073,0.7154,0.7154,0.7154,0.7154,0.7154,0.7154,0.7154,0.7154,0.7154,-0.2128,0.0,0.0,0.0,0.0,0.0,0.0,0.0,0.0,0.0,0.0,0.0,0.0,0.0,0.0,0.0,0.0,0.0,0.0,0.0,-0.1028,-0.1036,-0.1115,-0.1199,-0.1382,-0.1382,-0.1382,-0.1382,-0.1371,-0.137,-0.1382,-0.1371,-0.1455,-0.1553,-0.1382,-0.1382,-0.1554,-0.1456,-0.1366,-0.1366,-0.1354,-0.1322,-0.1275,-0.1435,-0.1439,-0.1286,-0.1392,-0.1431,-0.1393,-0.1423,-0.1446,-0.1463,-0.1463,-0.1481,-0.1414,-0.0753,0.0095,0.1047,0.2092,0.3164,0.4166,0.4556,0.4714,0.4783,0.4783,0.4808,0.4834,0.4834,0.4834,0.4834,0.4834,0.4834,0.4834,0.4834,0.4834,0.4937,0.4937,0.5035,0.5135,0.5338,0.5441,0.5641,0.5942,0.6042,0.6239,0.6337,0.6437,0.6437,0.6437,0.6437,0.6437,0.6437,0.6437,0.6437,0.6437,0.6437,0.6437,0.6437,0.6505,0.6657,0.6902,0.6959,0.7037,0.7152,0.7154,0.7154,0.7154,0.7154,0.7154,0.7154,0.7154,0.7154,-0.147,0.0,0.0,0.0,0.0,0.0,0.0,0.0,0.0,0.0,0.0,0.0,0.0,0.0,0.0,0.0,0.0,0.0,0.0,0.0,-0.0615,-0.0626,-0.0618,-0.0704,-0.1254,-0.1345,-0.1345,-0.1436,-0.141,-0.1406,-0.1433,-0.1409,-0.1407,-0.1434,-0.1436,-0.1436,-0.1436,-0.141,-0.1397,-0.1309,-0.1284,-0.1256,-0.1229,-0.1305,-0.1286,-0.1339,-0.1318,-0.1358,-0.1384,-0.1417,-0.1431,-0.1431,-0.1434,-0.1452,-0.1476,-0.1476,-0.0839,0.0189,0.1041,0.2084,0.3225,0.4178,0.4526,0.4698,0.4706,0.4763,0.4824,0.4832,0.4834,0.4834,0.4834,0.4834,0.4834,0.4834,0.5037,0.524,0.524,0.5438,0.5636,0.5636,0.5839,0.6042,0.6042,0.6239,0.6437,0.6437,0.6437,0.6437,0.6437,0.6437,0.6437,0.6437,0.6437,0.6437,0.6437,0.6437,0.6437,0.6437,0.6437,0.6543,0.6777,0.6904,0.7027,0.7152,0.7154,0.7154,0.7154,0.7154,0.7154,0.7154,0.7154,0.7154,0.0,-0.1886,0.0,0.0,0.0,0.0,0.0,0.0,0.0,0.0,0.0,0.0,0.0,0.0,0.0,0.0,0.0,0.0,0.0,0.0,0.0,0.0,-0.0179,-0.0179,-0.0269,-0.0628,-0.0987,-0.1345,-0.1429,-0.1428,-0.1435,-0.1429,-0.1429,-0.1435,-0.1436,-0.1436,-0.1436,-0.1429,-0.1248,0.0,-0.0798,-0.0788,-0.0857,-0.1158,-0.1286,-0.1338,-0.1296,-0.1316,-0.1325,-0.1378,-0.1399,-0.1402,-0.1426,-0.1439,-0.1445,-0.1445,-0.0815,0.0091,0.0273,0.1468,0.307,0.3257,0.396,0.4616,0.4687,0.4722,0.4749,0.4816,0.4834,0.4834,0.4834,0.4834,0.4834,0.4834,0.5037,0.524,0.524,0.5438,0.5636,0.5839,0.5942,0.6042,0.6237,0.6337,0.6437,0.6437,0.6437,0.6437,0.6437,0.6437,0.6437,0.6437,0.6437,0.6437,0.6437,0.6437,0.6437,0.6437,0.6437,0.6505,0.6654,0.6777,0.694,0.7149,0.7154,0.7154,0.7154,0.7154,0.7154,0.7154,0.7154,0.7154,0.0,0.0,0.0,0.0,0.0,0.0,0.0,0.0,0.0,0.0,0.0,0.0,0.0,0.0,0.0,0.0,0.0,0.0,0.0,0.0,0.0,0.0,0.0,0.0174,0.0,-0.0264,-0.053,-0.0707,-0.0981,-0.1166,-0.1346,-0.1436,-0.1436,-0.1436,-0.1436,-0.1436,-0.1436,-0.0987,-0.0718,-0.0718,-0.0718,-0.0711,-0.0695,-0.0914,-0.1125,-0.1338,-0.1289,-0.1303,-0.1307,-0.1367,-0.1391,-0.1393,-0.1423,-0.1436,-0.1436,-0.1436,-0.1076,-0.0628,-0.0179,0.0722,0.173,0.2641,0.3324,0.3951,0.4373,0.4608,0.4653,0.4698,0.4806,0.4912,0.4959,0.507,0.518,0.5225,0.5336,0.5438,0.5438,0.5737,0.6037,0.6139,0.6239,0.6239,0.6337,0.6437,0.6437,0.6437,0.6437,0.6437,0.6437,0.6437,0.6437,0.6437,0.6437,0.6437,0.6437,0.6437,0.6437,0.6437,0.6437,0.6491,0.6613,0.6681,0.6828,0.7067,0.7127,0.7154,0.7154,0.7154,0.7154,0.7154,0.7154,0.7154,0.0,0.0,0.0,0.0,0.0,0.0,0.0,0.0,0.0,0.0,0.0,0.0,0.0,0.0,0.0,0.0,0.0,0.0,0.0,0.0,0.0,0.0,0.0,0.0,0.0253,0.0086,0.0087,0.0087,-0.0264,-0.0711,-0.116,-0.1249,-0.1251,-0.1256,-0.1256,-0.1345,-0.1436,-0.0629,-0.0359,-0.0539,-0.0539,-0.0622,-0.0609,-0.0503,-0.073,-0.1108,-0.113,-0.1218,-0.1218,-0.1354,-0.1377,-0.1378,-0.1408,-0.1421,-0.1421,-0.1426,-0.1428,-0.125,-0.0537,-0.0269,0.0,0.1613,0.2629,0.3405,0.4246,0.4583,0.4647,0.4662,0.4853,0.4964,0.5144,0.5278,0.551,0.5591,0.5625,0.5636,0.5636,0.6037,0.6437,0.6437,0.6437,0.6437,0.6437,0.6437,0.6437,0.6437,0.6437,0.6437,0.6437,0.6437,0.6437,0.6437,0.6437,0.6437,0.6437,0.6437,0.6437,0.6437,0.6437,0.648,0.6584,0.6608,0.6714,0.6918,0.7035,0.7103,0.7124,0.7124,0.7124,0.7127,0.7146,0.7133,0.0,0.0,0.0,0.0,0.0,0.0,0.0,0.0,0.0,0.0,0.0,0.0,0.0,0.0,0.0,0.0,0.0,0.0,0.0,0.0,0.0,0.0,0.0,0.0,0.1095,0.076,0.0507,0.0507,0.0339,0.0086,-0.0262,-0.0524,-0.0705,-0.0807,-0.0807,-0.0987,-0.1436,-0.1256,-0.0808,-0.009,-0.009,-0.0089,-0.0087,-0.0087,-0.0084,-0.0162,-0.0569,-0.0724,-0.0712,-0.1138,-0.1314,-0.1317,-0.1348,-0.136,-0.1363,-0.1389,-0.1399,-0.1402,-0.1248,-0.1256,-0.1166,-0.0896,0.1436,0.4158,0.4599,0.4723,0.4844,0.5115,0.5235,0.5237,0.5251,0.5417,0.5491,0.5506,0.5773,0.5942,0.5942,0.6139,0.6437,0.6437,0.6437,0.6437,0.6437,0.6437,0.6437,0.6437,0.6437,0.6437,0.6437,0.6437,0.6437,0.6437,0.6437,0.6437,0.6437,0.6437,0.6437,0.6437,0.6437,0.6442,0.6461,0.6562,0.6635,0.6668,0.6787,0.6902,0.7008,0.7008,0.7008,0.701,0.7108,0.7046,-0.2131,0.0,0.0,0.0,0.0,0.0,0.0,0.0,0.0,0.0,0.0,0.0,0.0,0.0,0.0,0.0,0.0,0.0,0.0,0.0,0.0,0.0,0.0,0.0,0.0,0.1148,0.0992,0.0992,0.092,0.0846,0.0683,0.0342,0.0086,0.0,-0.0175,-0.0441,-0.0617,-0.0625,-0.0449,0.0,0.0,0.0,0.0,0.0,0.0,-0.0,-0.0164,-0.0243,-0.0241,-0.0486,-0.0732,-0.0898,-0.1002,-0.1011,-0.1012,-0.1022,-0.1034,-0.1046,-0.0967,-0.0978,-0.0987,-0.0987,0.009,0.1886,0.3899,0.482,0.5101,0.5238,0.5339,0.5351,0.5413,0.5558,0.5718,0.5945,0.6012,0.6166,0.6226,0.6337,0.6437,0.6437,0.6437,0.6437,0.6437,0.6437,0.6437,0.6437,0.6437,0.6437,0.6437,0.6437,0.6437,0.6437,0.6437,0.6437,0.6437,0.6437,0.6437,0.6437,0.6437,0.6437,0.6437,0.6488,0.6516,0.6516,0.6706,0.6828,0.6883,0.6883,0.6883,0.6883,0.6934,0.6902,0.0,0.0,0.0,0.0,0.0,0.0,0.0,0.0,0.0,0.0,0.0,0.0,0.0,0.0,0.0,0.0,0.0,0.0,0.0,0.0,0.0,0.0,0.0,0.0,0.0,0.0,0.1279,0.1279,0.1308,0.1328,0.1336,0.1002,0.0754,0.0758,0.0514,0.0259,0.0,0.0,0.0,0.0,0.0,0.0,0.0,0.0,0.0,0.0,0.0,0.0,0.0,0.0,-0.0164,-0.0493,-0.0502,-0.0503,-0.0502,-0.0507,-0.0513,-0.0519,-0.0525,-0.053,-0.0535,-0.0537,-0.0536,-0.0089,0.2416,0.3855,0.4663,0.5208,0.5473,0.5489,0.5577,0.5705,0.586,0.6138,0.6225,0.6298,0.6412,0.6437,0.6437,0.6437,0.6437,0.6437,0.6437,0.6437,0.6437,0.6437,0.6437,0.6437,0.6437,0.6437,0.6437,0.6437,0.6437,0.6437,0.6437,0.6437,0.6437,0.6437,0.6437,0.6437,0.6437,0.6437,0.6437,0.6437,0.6616,0.6725,0.6755,0.6755,0.6755,0.6755,0.6787,0.6768,0.0,0.0,0.0,-0.0878,0.0,0.0,0.0,0.0,0.0,0.0,0.1658,0.1738,0.2122,0.0,0.0,0.0,0.0,0.0,0.0,0.0,0.0,0.0,0.0,0.0,0.0,0.0,0.0,0.0,0.1245,0.1275,0.1303,0.1305,0.1236,0.1263,0.1265,0.0844,0.0,0.0,0.0,0.0,0.0,0.0,0.0,0.0,0.0,0.0,0.0,0.0,0.0,0.0,-0.0,-0.0,-0.0,-0.0,-0.0,-0.0,-0.0,-0.0,-0.0,-0.0,-0.0,-0.0,-0.0,-0.0,0.0178,0.1254,0.2867,0.5034,0.567,0.567,0.5679,0.5657,0.5734,0.5755,0.6016,0.6298,0.6412,0.6437,0.6437,0.6437,0.6437,0.6437,0.6437,0.6437,0.6437,0.6437,0.6437,0.6437,0.6437,0.6437,0.6437,0.6437,0.6437,0.6437,0.6437,0.6437,0.6437,0.6437,0.6437,0.6437,0.6437,0.6437,0.6437,0.6437,0.6448,0.6513,0.663,0.663,0.663,0.6632,0.6749,0.6676,0.0,0.0,0.0,-0.1112,-0.0918,-0.0767,0.0,0.0116,0.0186,0.0438,0.0913,0.136,0.1465,0.1659,0.1845,0.1845,0.0,0.0,0.0,0.0,0.0,0.0,0.0,0.0,0.0,0.0,0.0,0.0,0.0,0.1254,0.1245,0.1263,0.1279,0.1289,0.1063,0.0747,0.0421,0.0689,0.0786,0.044,0.0446,0.0269,0.0,0.0,0.0,0.0,0.0,0.0,0.0,0.0,0.0,0.0,0.0,0.0,0.0,0.0,0.0,0.0,0.0,0.0,0.0,0.0,0.0,0.0,0.0,0.0359,0.0986,0.1792,0.2959,0.3948,0.3948,0.3877,0.4012,0.4585,0.5475,0.6298,0.6412,0.6437,0.6437,0.6437,0.6437,0.6437,0.6437,0.6437,0.6437,0.6437,0.6437,0.6437,0.6437,0.6437,0.6437,0.6437,0.6437,0.6437,0.6437,0.6437,0.6437,0.6437,0.6539,0.6642,0.6642,0.6839,0.6839,0.6642,0.6839,0.6759,0.6502,0.6502,0.6502,0.6502,0.6548,0.6521,-0.1552,0.0,0.0,0.0,0.0,-0.1003,-0.0487,0.0,-0.0,0.0296,0.0918,0.146,0.1664,0.2129,0.2463,0.2221,0.2261,0.2354,0.0,0.0,0.0,0.0,0.0,0.0,0.0,0.0,0.0,0.0,0.0,0.0,0.1457,0.1314,0.1247,0.1335,0.1117,0.0813,0.0583,0.1099,0.1201,0.0958,0.0971,0.0802,0.0448,0.0269,0.0269,0.0269,0.0269,0.0178,0.0,0.0,0.0,0.0,0.0,0.0,0.0,0.0,0.0,0.0,0.0,0.0,0.0,0.0,0.0,0.0,0.0,0.0,0.0,0.0,0.1166,0.2422,0.242,0.224,0.2443,0.3671,0.4803,0.5569,0.581,0.6142,0.6442,0.6437,0.6442,0.6442,0.6437,0.6437,0.6437,0.6437,0.6437,0.6437,0.6437,0.6437,0.6437,0.6437,0.6437,0.6539,0.6539,0.6637,0.6637,0.6637,0.6839,0.6942,0.6942,0.7138,0.7138,0.6942,0.7138,0.7036,0.6637,0.6539,0.6539,0.6637,0.6539,0.6539,0.0,0.0,0.0,0.0,0.0,0.0,-0.1056,0.0,-0.0,0.1042,0.1603,0.2072,0.281,0.3026,0.2883,0.2355,0.2241,0.2223,0.2232,0.2224,0.0,0.0,0.0,0.0,0.0,0.0,0.0,0.0,0.2012,0.1834,0.1874,0.1456,0.1226,0.1333,0.1335,0.1112,0.065,0.1058,0.1332,0.1391,0.1392,0.1407,0.1344,0.0896,0.0717,0.0718,0.0718,0.0449,0.0,0.0,0.0,0.0,0.0,0.0,0.0,0.0,0.0,0.0,0.0,0.0,0.0,0.0,0.0,0.0,0.0,0.0,0.0,0.0,0.0719,0.1438,0.1436,0.1076,0.1268,0.3297,0.3903,0.4048,0.4602,0.555,0.6358,0.6339,0.635,0.6358,0.6439,0.6337,0.6337,0.6437,0.6437,0.6337,0.6437,0.6437,0.6437,0.6437,0.6642,0.6845,0.6845,0.7042,0.7238,0.7238,0.7238,0.7238,0.7238,0.7238,0.7238,0.7238,0.7238,0.7238,0.7238,0.6942,0.6942,0.7238,0.6942,0.6942,-0.1311,0.0,0.0,0.0,0.0,0.0,0.0,0.0,0.0,-0.0049,0.0681,0.1391,0.1944,0.2565,0.3007,0.2933,0.3032,0.3076,0.3053,0.284,0.2631,0.0,0.0,0.0,0.0,0.0,0.0,0.0,0.2177,0.2124,0.2102,0.1789,0.1596,0.1607,0.1402,0.1261,0.1111,0.121,0.1311,0.1328,0.135,0.1376,0.1405,0.1229,0.1239,0.1166,0.1166,0.1166,0.0987,0.0269,0.0,0.0,0.0,0.0,0.0,0.0,0.0,0.0,0.0,0.0,0.0,0.0,0.0,0.0089,0.0806,0.0808,0.0539,0.0539,0.0897,0.1436,0.1436,0.1882,0.2527,0.3615,0.4148,0.4124,0.3437,0.3997,0.4543,0.4128,0.5349,0.6372,0.6366,0.5754,0.5546,0.6255,0.6044,0.6037,0.6642,0.6839,0.6936,0.6936,0.7039,0.7039,0.7039,0.7138,0.7238,0.7238,0.7341,0.7444,0.7444,0.764,0.764,0.7444,0.764,0.764,0.7444,0.7241,0.7138,0.7238,0.7138,0.7138,0.0,0.0,0.0,0.0,0.0,0.0,0.0,-0.0692,0.0,0.0,0.0866,0.1472,0.1965,0.2499,0.2915,0.3132,0.3259,0.3294,0.3374,0.3213,0.3029,0.0,0.0,0.0,0.0,0.2682,0.2706,0.2667,0.2558,0.2349,0.2175,0.1897,0.1715,0.1715,0.1375,0.1239,0.1239,0.1269,0.129,0.1303,0.132,0.1351,0.1392,0.1392,0.1408,0.1436,0.1436,0.1436,0.1345,0.0807,0.0448,0.0269,0.009,0.0,0.0,0.0,0.0,0.009,0.0449,0.0629,0.0539,0.0359,0.0269,0.0359,0.0987,0.1077,0.0987,0.0718,0.1076,0.1436,0.1436,0.1793,0.2343,0.2762,0.2986,0.2843,0.2143,0.2573,0.31,0.3422,0.434,0.5153,0.5354,0.4847,0.4642,0.5347,0.514,0.5135,0.5539,0.6137,0.6537,0.6537,0.7039,0.7341,0.7341,0.7437,0.7537,0.7537,0.7643,0.7743,0.7743,0.7942,0.7942,0.7743,0.7942,0.7942,0.7743,0.7543,0.7341,0.7341,0.7437,0.7537,0.0,0.0,0.0,0.0,0.0,0.0,-0.0743,-0.0324,0.0179,0.0,0.0,0.1766,0.2293,0.2456,0.2603,0.2954,0.3074,0.3166,0.3305,0.3409,0.3398,0.0,0.0,0.0,0.3211,0.3293,0.3348,0.3348,0.3068,0.2649,0.2303,0.1933,0.1743,0.167,0.1343,0.1212,0.1212,0.1242,0.1271,0.1298,0.1298,0.1326,0.138,0.1384,0.1401,0.143,0.1433,0.1436,0.1436,0.1436,0.1166,0.0718,0.0359,0.009,0.009,0.009,0.009,0.018,0.1077,0.1345,0.1345,0.0897,0.0807,0.0807,0.0807,0.1076,0.1345,0.0897,0.1076,0.1436,0.1436,0.1436,0.1442,0.1469,0.1293,0.1028,0.1162,0.1371,0.2072,0.3407,0.3325,0.313,0.363,0.3731,0.3731,0.3932,0.3932,0.3932,0.4033,0.5035,0.5737,0.5737,0.6842,0.7646,0.7646,0.7842,0.8038,0.8038,0.8038,0.8038,0.8038,0.8038,0.8038,0.8038,0.8038,0.8038,0.8038,0.7743,0.7646,0.7646,0.7842,0.8038,0.0,0.0,0.0,0.0,0.0,0.0,-0.0953,-0.0924,-0.0727,0.0,0.0274,0.0531,0.1122,0.1298,0.1511,0.2109,0.2446,0.2828,0.3326,0.331,0.3259,0.0,0.0,0.0,0.3115,0.3199,0.3252,0.3252,0.3185,0.298,0.2641,0.2297,0.1978,0.1696,0.1405,0.1212,0.1212,0.1242,0.1339,0.1266,0.1266,0.1285,0.132,0.1345,0.1371,0.14,0.1425,0.1436,0.1436,0.1436,0.1345,0.1256,0.1166,0.0897,0.0538,0.0538,0.0538,0.0628,0.0807,0.1076,0.1346,0.1256,0.1256,0.1256,0.1256,0.1345,0.1346,0.1256,0.1345,0.1436,0.1436,0.1436,0.1437,0.1442,0.1371,0.1298,0.1402,0.1537,0.1671,0.1973,0.2,0.192,0.202,0.202,0.2323,0.323,0.3327,0.3626,0.423,0.5434,0.6237,0.6237,0.7238,0.7942,0.7942,0.7942,0.8038,0.8038,0.8038,0.8038,0.8038,0.8038,0.8038,0.8038,0.8038,0.8038,0.8038,0.7939,0.7942,0.7942,0.7942,0.8038,0.0,0.0,0.0,-0.1002,0.0,0.0,0.0,0.0,-0.0466,0.0116,0.0307,0.0463,0.0828,0.0,0.117,0.1883,0.2166,0.2475,0.3111,0.3254,0.3263,0.0,0.0,0.0,0.3022,0.3064,0.3109,0.3154,0.3201,0.3159,0.2956,0.2657,0.2402,0.2196,0.1714,0.1459,0.1459,0.1288,0.1234,0.1235,0.125,0.1273,0.1303,0.1318,0.1349,0.1391,0.1406,0.1421,0.1436,0.1436,0.1436,0.1436,0.1436,0.1256,0.1076,0.1076,0.1076,0.1076,0.1076,0.1166,0.1436,0.1436,0.1436,0.1436,0.1436,0.1436,0.1436,0.1436,0.1436,0.1436,0.1436,0.1436,0.1436,0.1436,0.1356,0.1462,0.1478,0.1517,0.1553,0.1568,0.1596,0.1617,0.1617,0.1617,0.1819,0.2323,0.2423,0.2522,0.2924,0.4028,0.5029,0.5529,0.6534,0.7437,0.7939,0.8038,0.8038,0.8038,0.8038,0.8038,0.8038,0.8038,0.8038,0.8038,0.8038,0.8038,0.8038,0.8038,0.8038,0.8038,0.8038,0.8038,0.0,0.0,0.0,0.0,0.0,-0.0862,0.0,0.0,0.0,0.0,0.0,0.0,0.0,0.0,0.0,0.0,0.0,0.0,0.0,0.0,0.0,0.0,0.0,0.0,0.2961,0.2963,0.3009,0.3056,0.3101,0.3081,0.3066,0.28,0.2673,0.2619,0.2072,0.1823,0.1823,0.155,0.1363,0.1288,0.1398,0.1349,0.1294,0.13,0.1328,0.1373,0.1385,0.1403,0.1427,0.1433,0.1436,0.1436,0.1436,0.1436,0.1436,0.1436,0.1436,0.1436,0.1436,0.1436,0.1436,0.1436,0.1436,0.1436,0.1436,0.1436,0.1436,0.1436,0.1436,0.1436,0.1436,0.1436,0.1436,0.1436,0.1436,0.1442,0.1467,0.1495,0.1526,0.1557,0.1587,0.161,0.1615,0.1617,0.1617,0.1617,0.1617,0.1617,0.1617,0.2521,0.3624,0.4724,0.5729,0.6836,0.7939,0.8038,0.8038,0.8038,0.8038,0.8038,0.8038,0.8038,0.8038,0.8038,0.8038,0.8038,0.8038,0.8038,0.8038,0.8038,0.8038,0.8038,0.0,0.0,0.0,0.0,-0.1093,0.0,0.0,0.0,0.0,0.0,0.0,0.0,0.0,0.0,0.0,0.0,0.0,0.0,0.0,0.0,0.0,0.0,0.0,0.0,0.0,0.2778,0.2789,0.3018,0.2834,0.2738,0.2647,0.2659,0.2492,0.2285,0.2213,0.2174,0.2174,0.2214,0.2043,0.1667,0.1784,0.165,0.1263,0.129,0.1306,0.1316,0.1367,0.1392,0.1397,0.1424,0.1436,0.1436,0.1436,0.1436,0.1436,0.1436,0.1436,0.1436,0.1436,0.1436,0.1436,0.1436,0.1436,0.1436,0.1436,0.1436,0.1436,0.1436,0.1436,0.1436,0.1436,0.1436,0.1436,0.1436,0.1436,0.1436,0.144,0.1464,0.1495,0.1525,0.1555,0.1585,0.1612,0.1617,0.1617,0.1617,0.1617,0.1617,0.1617,0.2521,0.3624,0.4724,0.5729,0.6836,0.7939,0.8038,0.8038,0.8038,0.8038,0.8038,0.8038,0.8038,0.8038,0.8038,0.8038,0.8038,0.8038,0.8038,0.8038,0.8038,0.8038,0.8038,0.0,0.0,0.0,0.0,0.0,0.0,-0.0801,0.0,-0.0862,0.0,0.0,0.0,0.0,0.0,0.0,0.0,0.0,0.0,0.0,0.0,0.0,0.0,0.0,0.0,0.0,0.0,0.0,0.0,0.2703,0.2707,0.2688,0.2847,0.2851,0.2754,0.2562,0.2481,0.2522,0.2149,0.1912,0.1743,0.1607,0.1394,0.1336,0.1271,0.1286,0.1305,0.1347,0.1375,0.1393,0.1423,0.1436,0.1436,0.1436,0.1436,0.1436,0.1436,0.1436,0.1436,0.1436,0.1436,0.1436,0.1436,0.1436,0.1436,0.1436,0.1436,0.1436,0.1436,0.1436,0.1436,0.1436,0.1436,0.1436,0.1436,0.1436,0.1436,0.1436,0.1459,0.1485,0.1497,0.1538,0.1576,0.1588,0.1605,0.1617,0.1617,0.1617,0.1617,0.1617,0.2019,0.2722,0.3725,0.4227,0.5229,0.6936,0.7039,0.7338,0.7939,0.8038,0.8038,0.8038,0.8038,0.8038,0.8038,0.8038,0.8038,0.8038,0.8038,0.8038,0.8038,0.8038,0.8038,-0.0365,0.0,0.0,0.0,0.0,0.0,0.0,0.0,0.0,0.0,0.0,0.0,0.0,0.0,0.0,0.0,0.0,0.0346,0.0,0.0,0.0,0.0,0.0,0.0,0.0,0.0,0.0,0.0,0.0,0.2589,0.2781,0.2934,0.304,0.3089,0.2913,0.2849,0.2908,0.2461,0.2159,0.2077,0.1818,0.1615,0.1401,0.1409,0.1427,0.1292,0.1322,0.1352,0.1381,0.141,0.1427,0.1436,0.1525,0.1615,0.1615,0.1436,0.1436,0.1436,0.1436,0.1436,0.1436,0.1436,0.1436,0.1436,0.1436,0.1436,0.1436,0.1615,0.1615,0.1615,0.1793,0.1705,0.1615,0.1615,0.1525,0.1436,0.1436,0.1453,0.147,0.1664,0.1706,0.1843,0.196,0.1796,0.1617,0.1617,0.1617,0.1617,0.1818,0.1818,0.2321,0.3527,0.3825,0.4728,0.6437,0.6836,0.7235,0.7939,0.8038,0.8038,0.8038,0.8038,0.8038,0.8038,0.8038,0.8038,0.8038,0.8038,0.8038,0.8038,0.8038,0.8038,0.0,0.0,0.0,-0.0217,0.0,0.0,0.0,0.0,-0.0718,0.0,0.0,0.0,0.0,0.0,0.0,0.0,0.0,0.0,0.0,0.0,0.0,0.0,0.0,0.0,0.0,0.0,0.214,0.0,0.2184,0.0,0.2672,0.2785,0.2913,0.3085,0.3179,0.3161,0.3163,0.3337,0.3166,0.2669,0.2954,0.2558,0.167,0.1786,0.1649,0.1339,0.1291,0.1322,0.1267,0.138,0.1409,0.1436,0.1974,0.2154,0.2154,0.1615,0.1436,0.1436,0.1436,0.1436,0.1436,0.1436,0.1436,0.1436,0.1436,0.1436,0.1525,0.2064,0.2154,0.2243,0.2778,0.2511,0.2154,0.2154,0.1794,0.1436,0.1436,0.1436,0.1536,0.2121,0.2224,0.2348,0.2925,0.2294,0.1617,0.1617,0.1617,0.1818,0.2321,0.2422,0.3025,0.4533,0.5432,0.6232,0.7135,0.7932,0.8237,0.8041,0.8038,0.8038,0.8038,0.8038,0.8038,0.8038,0.8038,0.8038,0.8038,0.8038,0.8038,0.8038,0.8038,0.8038,0.0,0.0,0.1322,0.0905,0.0,0.0,0.0,0.0,0.0,0.0,0.0,0.0,0.0,0.0,0.0,0.0,0.0,0.0,0.0,0.0,0.0,0.0,0.0,0.0,0.0,0.0,0.0,0.0,0.2093,0.0,0.0,0.2621,0.2791,0.2911,0.306,0.3195,0.3316,0.3109,0.2968,0.2876,0.2679,0.2422,0.2249,0.2267,0.2196,0.2121,0.2173,0.2124,0.2146,0.2227,0.227,0.2288,0.2587,0.2511,0.2154,0.1974,0.1885,0.1885,0.1525,0.1436,0.1436,0.1436,0.1615,0.1885,0.1885,0.2153,0.2419,0.2599,0.2689,0.2689,0.2868,0.2778,0.2689,0.2689,0.251,0.2419,0.2419,0.2419,0.2425,0.2624,0.2657,0.2693,0.2918,0.2716,0.2588,0.2621,0.2625,0.2726,0.2927,0.2927,0.3328,0.4431,0.473,0.5529,0.7027,0.8127,0.8627,0.8531,0.8531,0.8531,0.8531,0.8333,0.8233,0.8233,0.8137,0.8038,0.8038,0.8038,0.8038,0.8038,0.8038,0.8038,0.3461,0.3005,0.0,0.2258,0.2197,0.0,0.1705,0.0,0.0,0.0,0.0,0.0,0.0,0.0,0.0,0.0,0.0,0.0,0.0,0.145,0.0,0.0,0.0,0.0,0.0,0.0,0.1837,0.2009,0.1997,0.0,0.0,0.0,0.2699,0.2823,0.2999,0.3162,0.3313,0.3082,0.3011,0.3169,0.2875,0.2702,0.2712,0.2735,0.2668,0.2512,0.2552,0.258,0.2609,0.271,0.2677,0.2702,0.2845,0.278,0.2691,0.2333,0.2243,0.2154,0.1794,0.1793,0.1973,0.1973,0.2152,0.2422,0.2422,0.2689,0.2957,0.3136,0.3136,0.3226,0.3315,0.3315,0.3136,0.3136,0.3047,0.2867,0.2867,0.2867,0.2957,0.3136,0.3171,0.3208,0.3416,0.3495,0.3491,0.3185,0.3217,0.333,0.3831,0.393,0.4331,0.5331,0.5629,0.6429,0.7826,0.8425,0.8825,0.8825,0.8825,0.8825,0.8825,0.8627,0.8528,0.8528,0.8333,0.8233,0.8233,0.8233,0.8233,0.8233,0.8233,0.8233]}]]